Time,TemperatureF,DewpointF,PressureIn,WindDirection,WindDirectionDegrees,WindSpeedMPH,WindSpeedGustMPH,Humidity,HourlyPrecipIn,Conditions,Clouds,dailyrainin,SoftwareType,DateUTC
2013-02-06 00:00:00,68.3,38.9,30.10,SSE,149,0.0,5.0,34,0.00,,---,0.00,VWS V14.01,2013-02-06 05:00:00,
2013-02-06 00:01:00,68.2,38.8,30.11,SSE,149,0.0,0.0,34,0.00,,---,0.00,VWS V14.01,2013-02-06 05:01:00,
2013-02-06 00:02:00,68.2,39.5,30.11,SSE,149,0.0,0.0,35,0.00,,---,0.00,VWS V14.01,2013-02-06 05:02:00,
2013-02-06 00:03:00,68.2,39.5,30.11,SSE,149,0.0,1.0,35,0.00,,---,0.00,VWS V14.01,2013-02-06 05:03:00,
2013-02-06 00:04:00,68.1,39.4,30.11,SSE,149,0.0,1.0,35,0.00,,---,0.00,VWS V14.01,2013-02-06 05:04:00,
2013-02-06 00:05:00,68.1,39.4,30.11,SSE,149,0.0,1.0,35,0.00,,---,0.00,VWS V14.01,2013-02-06 05:05:00,
2013-02-06 00:06:00,68.1,39.4,30.11,SSE,149,0.0,1.0,35,0.00,,---,0.00,VWS V14.01,2013-02-06 05:06:00,
2013-02-06 00:07:00,68.1,39.4,30.11,SSE,149,0.0,1.0,35,0.00,,---,0.00,VWS V14.01,2013-02-06 05:07:00,
2013-02-06 00:08:00,68.1,39.4,30.11,SSE,149,0.0,1.0,35,0.00,,---,0.00,VWS V14.01,2013-02-06 05:08:00,
2013-02-06 00:09:00,68.1,39.4,30.11,SSE,149,0.0,1.0,35,0.00,,---,0.00,VWS V14.01,2013-02-06 05:09:00,
2013-02-06 00:10:00,68.0,39.3,30.11,SSE,149,0.0,1.0,35,0.00,,---,0.00,VWS V14.01,2013-02-06 05:10:00,
2013-02-06 00:11:00,68.0,40.1,30.11,SSE,149,0.0,1.0,36,0.00,,---,0.00,VWS V14.01,2013-02-06 05:11:00,
2013-02-06 00:12:00,68.0,40.1,30.11,SSE,149,0.0,1.0,36,0.00,,---,0.00,VWS V14.01,2013-02-06 05:12:00,
2013-02-06 00:13:00,68.0,39.3,30.11,SSE,149,0.0,1.0,35,0.00,,---,0.00,VWS V14.01,2013-02-06 05:13:00,
2013-02-06 00:14:00,67.9,40.0,30.11,SSE,149,0.0,1.0,36,0.00,,---,0.00,VWS V14.01,2013-02-06 05:14:00,
2013-02-06 00:15:00,67.9,40.0,30.11,SSE,149,0.0,1.0,36,0.00,,---,0.00,VWS V14.01,2013-02-06 05:15:00,
2013-02-06 00:16:00,67.9,40.0,30.11,ESE,119,0.0,1.0,36,0.00,,---,0.00,VWS V14.01,2013-02-06 05:16:00,
2013-02-06 00:17:00,68.0,40.1,30.11,ESE,119,0.0,1.0,36,0.00,,---,0.00,VWS V14.01,2013-02-06 05:17:00,
2013-02-06 00:18:00,67.9,40.0,30.11,ESE,119,0.0,1.0,36,0.00,,---,0.00,VWS V14.01,2013-02-06 05:18:00,
2013-02-06 00:19:00,67.9,40.0,30.12,ESE,119,0.0,1.0,36,0.00,,---,0.00,VWS V14.01,2013-02-06 05:19:00,
2013-02-06 00:20:00,67.9,40.0,30.11,ESE,119,0.0,1.0,36,0.00,,---,0.00,VWS V14.01,2013-02-06 05:20:00,
2013-02-06 00:21:00,67.9,40.7,30.11,ESE,119,0.0,1.0,37,0.00,,---,0.00,VWS V14.01,2013-02-06 05:21:00,
2013-02-06 00:22:00,67.9,40.7,30.12,ESE,119,0.0,1.0,37,0.00,,---,0.00,VWS V14.01,2013-02-06 05:22:00,
2013-02-06 00:23:00,67.8,40.6,30.12,ESE,119,0.0,1.0,37,0.00,,---,0.00,VWS V14.01,2013-02-06 05:23:00,
2013-02-06 00:24:00,67.8,40.6,30.12,ESE,119,0.0,1.0,37,0.00,,---,0.00,VWS V14.01,2013-02-06 05:24:00,
2013-02-06 00:25:00,67.8,41.3,30.12,ESE,119,0.0,1.0,38,0.00,,---,0.00,VWS V14.01,2013-02-06 05:25:00,
2013-02-06 00:26:00,67.7,41.2,30.12,ESE,119,0.0,1.0,38,0.00,,---,0.00,VWS V14.01,2013-02-06 05:26:00,
2013-02-06 00:27:00,67.7,41.2,30.12,ESE,119,0.0,1.0,38,0.00,,---,0.00,VWS V14.01,2013-02-06 05:27:00,
2013-02-06 00:28:00,67.6,41.8,30.12,ESE,119,0.0,1.0,39,0.00,,---,0.00,VWS V14.01,2013-02-06 05:28:00,
2013-02-06 00:29:00,67.6,41.8,30.12,ESE,119,0.0,1.0,39,0.00,,---,0.00,VWS V14.01,2013-02-06 05:29:00,
2013-02-06 00:30:00,67.5,41.7,30.12,ESE,119,0.0,1.0,39,0.00,,---,0.00,VWS V14.01,2013-02-06 05:30:00,
2013-02-06 00:31:00,67.4,42.3,30.12,ESE,119,0.0,0.0,40,0.00,,---,0.00,VWS V14.01,2013-02-06 05:31:00,
2013-02-06 00:32:00,67.3,42.2,30.12,ESE,119,0.0,0.0,40,0.00,,---,0.00,VWS V14.01,2013-02-06 05:32:00,
2013-02-06 00:33:00,67.2,42.7,30.12,ESE,119,0.0,0.0,41,0.00,,---,0.00,VWS V14.01,2013-02-06 05:33:00,
2013-02-06 00:34:00,67.1,42.6,30.12,ESE,119,0.0,0.0,41,0.00,,---,0.00,VWS V14.01,2013-02-06 05:34:00,
2013-02-06 00:35:00,67.0,42.5,30.12,ESE,119,0.0,0.0,41,0.00,,---,0.00,VWS V14.01,2013-02-06 05:35:00,
2013-02-06 00:36:00,66.9,42.5,30.12,ESE,119,0.0,0.0,41,0.00,,---,0.00,VWS V14.01,2013-02-06 05:36:00,
2013-02-06 00:37:00,66.7,42.3,30.12,ESE,119,0.0,0.0,41,0.00,,---,0.00,VWS V14.01,2013-02-06 05:37:00,
2013-02-06 00:38:00,66.7,42.3,30.12,ESE,119,0.0,0.0,41,0.00,,---,0.00,VWS V14.01,2013-02-06 05:38:00,
2013-02-06 00:39:00,66.5,42.1,30.12,ESE,119,0.0,0.0,41,0.00,,---,0.00,VWS V14.01,2013-02-06 05:39:00,
2013-02-06 00:40:00,66.3,41.9,30.12,ESE,119,0.0,0.0,41,0.00,,---,0.00,VWS V14.01,2013-02-06 05:40:00,
2013-02-06 00:41:00,66.1,43.0,30.12,ESE,119,0.0,0.0,43,0.00,,---,0.00,VWS V14.01,2013-02-06 05:41:00,
2013-02-06 00:42:00,65.8,42.7,30.13,ESE,119,0.0,1.0,43,0.00,,---,0.00,VWS V14.01,2013-02-06 05:42:00,
2013-02-06 00:43:00,65.5,43.0,30.13,WSW,241,1.0,1.0,44,0.00,,---,0.00,VWS V14.01,2013-02-06 05:43:00,
2013-02-06 00:44:00,64.9,43.1,30.13,West,261,2.0,3.0,45,0.00,,---,0.00,VWS V14.01,2013-02-06 05:44:00,
2013-02-06 00:45:00,64.3,42.5,30.13,WSW,255,0.0,3.0,45,0.00,,---,0.00,VWS V14.01,2013-02-06 05:45:00,
2013-02-06 00:46:00,64.0,42.8,30.13,West,273,0.0,3.0,46,0.00,,---,0.00,VWS V14.01,2013-02-06 05:46:00,
2013-02-06 00:47:00,63.7,42.5,30.13,NNW,341,0.0,4.0,46,0.00,,---,0.00,VWS V14.01,2013-02-06 05:47:00,
2013-02-06 00:48:00,63.4,42.8,30.13,NNW,341,0.0,4.0,47,0.00,,---,0.00,VWS V14.01,2013-02-06 05:48:00,
2013-02-06 00:49:00,63.2,42.7,30.13,NNW,330,0.0,4.0,47,0.00,,---,0.00,VWS V14.01,2013-02-06 05:49:00,
2013-02-06 00:50:00,63.0,43.0,30.13,NNW,330,0.0,4.0,48,0.00,,---,0.00,VWS V14.01,2013-02-06 05:50:00,
2013-02-06 00:51:00,62.8,43.4,30.13,NNW,330,0.0,4.0,49,0.00,,---,0.00,VWS V14.01,2013-02-06 05:51:00,
2013-02-06 00:52:00,62.7,43.3,30.13,NNW,330,1.0,4.0,49,0.00,,---,0.00,VWS V14.01,2013-02-06 05:52:00,
2013-02-06 00:53:00,62.5,43.6,30.13,NNW,330,0.0,4.0,50,0.00,,---,0.00,VWS V14.01,2013-02-06 05:53:00,
2013-02-06 00:54:00,62.4,43.5,30.13,NNW,330,0.0,4.0,50,0.00,,---,0.00,VWS V14.01,2013-02-06 05:54:00,
2013-02-06 00:55:00,62.3,43.4,30.13,NNW,330,0.0,4.0,50,0.00,,---,0.00,VWS V14.01,2013-02-06 05:55:00,
2013-02-06 00:56:00,62.1,43.8,30.13,NNW,330,0.0,4.0,51,0.00,,---,0.00,VWS V14.01,2013-02-06 05:56:00,
2013-02-06 00:57:00,62.0,43.7,30.13,NNW,330,1.0,4.0,51,0.00,,---,0.00,VWS V14.01,2013-02-06 05:57:00,
2013-02-06 00:58:00,61.9,43.6,30.13,NNW,330,0.0,4.0,51,0.00,,---,0.00,VWS V14.01,2013-02-06 05:58:00,
2013-02-06 00:59:00,61.8,44.0,30.13,NNW,330,0.0,4.0,52,0.00,,---,0.00,VWS V14.01,2013-02-06 05:59:00,
2013-02-06 01:00:00,61.8,44.0,30.13,NNW,330,0.0,4.0,52,0.00,,---,0.00,VWS V14.01,2013-02-06 06:00:00,
2013-02-06 01:01:00,61.6,43.8,30.13,NNW,330,0.0,0.0,52,0.00,,---,0.00,VWS V14.01,2013-02-06 06:01:00,
2013-02-06 01:02:00,61.6,43.8,30.13,West,266,0.0,3.0,52,0.00,,---,0.00,VWS V14.01,2013-02-06 06:02:00,
2013-02-06 01:03:00,61.5,43.7,30.14,WNW,300,3.0,6.0,52,0.00,,---,0.00,VWS V14.01,2013-02-06 06:03:00,
2013-02-06 01:04:00,61.4,43.6,30.14,WNW,294,1.0,6.0,52,0.00,,---,0.00,VWS V14.01,2013-02-06 06:04:00,
2013-02-06 01:05:00,61.4,43.6,30.14,WNW,294,2.0,6.0,52,0.00,,---,0.00,VWS V14.01,2013-02-06 06:05:00,
2013-02-06 01:06:00,61.4,44.1,30.14,WNW,294,0.0,6.0,53,0.00,,---,0.00,VWS V14.01,2013-02-06 06:06:00,
2013-02-06 01:07:00,61.4,43.6,30.14,WNW,294,0.0,6.0,52,0.00,,---,0.00,VWS V14.01,2013-02-06 06:07:00,
2013-02-06 01:08:00,61.3,44.0,30.14,WNW,294,1.0,6.0,53,0.00,,---,0.00,VWS V14.01,2013-02-06 06:08:00,
2013-02-06 01:09:00,61.3,44.0,30.14,WNW,294,0.0,6.0,53,0.00,,---,0.00,VWS V14.01,2013-02-06 06:09:00,
2013-02-06 01:10:00,61.2,44.0,30.14,WNW,294,0.0,6.0,53,0.00,,---,0.00,VWS V14.01,2013-02-06 06:10:00,
2013-02-06 01:11:00,61.1,43.9,30.14,WNW,294,0.0,6.0,53,0.00,,---,0.00,VWS V14.01,2013-02-06 06:11:00,
2013-02-06 01:12:00,61.0,43.8,30.14,WNW,294,0.0,6.0,53,0.00,,---,0.00,VWS V14.01,2013-02-06 06:12:00,
2013-02-06 01:13:00,60.9,43.7,30.14,WNW,294,0.0,6.0,53,0.00,,---,0.00,VWS V14.01,2013-02-06 06:13:00,
2013-02-06 01:14:00,60.9,44.2,30.14,WNW,294,0.0,6.0,54,0.00,,---,0.00,VWS V14.01,2013-02-06 06:14:00,
2013-02-06 01:15:00,60.8,44.1,30.14,WNW,294,0.0,6.0,54,0.00,,---,0.00,VWS V14.01,2013-02-06 06:15:00,
2013-02-06 01:16:00,60.7,44.0,30.14,WNW,294,1.0,6.0,54,0.00,,---,0.00,VWS V14.01,2013-02-06 06:16:00,
2013-02-06 01:17:00,60.6,43.9,30.14,WNW,294,3.0,6.0,54,0.00,,---,0.00,VWS V14.01,2013-02-06 06:17:00,
2013-02-06 01:18:00,60.5,43.8,30.14,WNW,294,0.0,6.0,54,0.00,,---,0.00,VWS V14.01,2013-02-06 06:18:00,
2013-02-06 01:19:00,60.4,43.7,30.14,WNW,294,0.0,6.0,54,0.00,,---,0.00,VWS V14.01,2013-02-06 06:19:00,
2013-02-06 01:20:00,60.3,44.1,30.14,WNW,294,0.0,6.0,55,0.00,,---,0.00,VWS V14.01,2013-02-06 06:20:00,
2013-02-06 01:21:00,60.2,44.0,30.14,WNW,294,0.0,6.0,55,0.00,,---,0.00,VWS V14.01,2013-02-06 06:21:00,
2013-02-06 01:22:00,60.1,43.9,30.14,WNW,292,1.0,6.0,55,0.00,,---,0.00,VWS V14.01,2013-02-06 06:22:00,
2013-02-06 01:23:00,60.0,43.8,30.14,WNW,292,0.0,6.0,55,0.00,,---,0.00,VWS V14.01,2013-02-06 06:23:00,
2013-02-06 01:24:00,59.9,43.7,30.15,WNW,292,0.0,6.0,55,0.00,,---,0.00,VWS V14.01,2013-02-06 06:24:00,
2013-02-06 01:25:00,59.9,44.2,30.14,WNW,292,0.0,6.0,56,0.00,,---,0.00,VWS V14.01,2013-02-06 06:25:00,
2013-02-06 01:26:00,59.8,44.1,30.14,WNW,292,0.0,6.0,56,0.00,,---,0.00,VWS V14.01,2013-02-06 06:26:00,
2013-02-06 01:27:00,59.8,44.1,30.15,WNW,292,0.0,6.0,56,0.00,,---,0.00,VWS V14.01,2013-02-06 06:27:00,
2013-02-06 01:28:00,59.7,44.0,30.15,WNW,292,0.0,6.0,56,0.00,,---,0.00,VWS V14.01,2013-02-06 06:28:00,
2013-02-06 01:29:00,59.6,43.9,30.15,WNW,292,0.0,6.0,56,0.00,,---,0.00,VWS V14.01,2013-02-06 06:29:00,
2013-02-06 01:30:00,59.5,43.8,30.15,WNW,292,0.0,0.0,56,0.00,,---,0.00,VWS V14.01,2013-02-06 06:30:00,
2013-02-06 01:31:00,59.5,43.8,30.15,WNW,292,0.0,0.0,56,0.00,,---,0.00,VWS V14.01,2013-02-06 06:31:00,
2013-02-06 01:32:00,59.4,43.7,30.15,WNW,292,0.0,1.0,56,0.00,,---,0.00,VWS V14.01,2013-02-06 06:32:00,
2013-02-06 01:33:00,59.3,43.6,30.15,WNW,292,0.0,3.0,56,0.00,,---,0.00,VWS V14.01,2013-02-06 06:33:00,
2013-02-06 01:34:00,59.3,43.6,30.15,WNW,292,0.0,3.0,56,0.00,,---,0.00,VWS V14.01,2013-02-06 06:34:00,
2013-02-06 01:35:00,59.2,43.5,30.15,WNW,292,0.0,3.0,56,0.00,,---,0.00,VWS V14.01,2013-02-06 06:35:00,
2013-02-06 01:36:00,59.2,43.5,30.15,WNW,292,0.0,3.0,56,0.00,,---,0.00,VWS V14.01,2013-02-06 06:36:00,
2013-02-06 01:37:00,59.1,43.9,30.15,WNW,292,0.0,3.0,57,0.00,,---,0.00,VWS V14.01,2013-02-06 06:37:00,
2013-02-06 01:38:00,59.0,43.8,30.15,WNW,292,0.0,3.0,57,0.00,,---,0.00,VWS V14.01,2013-02-06 06:38:00,
2013-02-06 01:39:00,58.9,43.7,30.15,WNW,292,0.0,3.0,57,0.00,,---,0.00,VWS V14.01,2013-02-06 06:39:00,
2013-02-06 01:40:00,58.9,43.7,30.15,WNW,292,0.0,3.0,57,0.00,,---,0.00,VWS V14.01,2013-02-06 06:40:00,
2013-02-06 01:41:00,58.8,43.6,30.15,WNW,292,0.0,3.0,57,0.00,,---,0.00,VWS V14.01,2013-02-06 06:41:00,
2013-02-06 01:42:00,58.7,43.5,30.15,WNW,292,0.0,3.0,57,0.00,,---,0.00,VWS V14.01,2013-02-06 06:42:00,
2013-02-06 01:43:00,58.6,43.4,30.15,WNW,292,0.0,3.0,57,0.00,,---,0.00,VWS V14.01,2013-02-06 06:43:00,
2013-02-06 01:44:00,58.5,43.3,30.15,WNW,292,0.0,3.0,57,0.00,,---,0.00,VWS V14.01,2013-02-06 06:44:00,
2013-02-06 01:45:00,58.4,43.7,30.15,WNW,292,0.0,3.0,58,0.00,,---,0.00,VWS V14.01,2013-02-06 06:45:00,
2013-02-06 01:46:00,58.3,43.6,30.15,WNW,292,0.0,3.0,58,0.00,,---,0.00,VWS V14.01,2013-02-06 06:46:00,
2013-02-06 01:47:00,58.2,43.5,30.15,WNW,292,1.0,3.0,58,0.00,,---,0.00,VWS V14.01,2013-02-06 06:47:00,
2013-02-06 01:48:00,58.2,43.5,30.15,WNW,292,0.0,3.0,58,0.00,,---,0.00,VWS V14.01,2013-02-06 06:48:00,
2013-02-06 01:49:00,58.2,43.5,30.15,WNW,292,0.0,3.0,58,0.00,,---,0.00,VWS V14.01,2013-02-06 06:49:00,
2013-02-06 01:50:00,58.1,43.4,30.16,WNW,292,0.0,3.0,58,0.00,,---,0.00,VWS V14.01,2013-02-06 06:50:00,
2013-02-06 01:51:00,58.1,43.4,30.16,WNW,292,0.0,3.0,58,0.00,,---,0.00,VWS V14.01,2013-02-06 06:51:00,
2013-02-06 01:52:00,58.0,43.3,30.16,WNW,292,0.0,3.0,58,0.00,,---,0.00,VWS V14.01,2013-02-06 06:52:00,
2013-02-06 01:53:00,57.9,43.2,30.16,WNW,292,0.0,3.0,58,0.00,,---,0.00,VWS V14.01,2013-02-06 06:53:00,
2013-02-06 01:54:00,57.8,43.6,30.16,WNW,292,0.0,3.0,59,0.00,,---,0.00,VWS V14.01,2013-02-06 06:54:00,
2013-02-06 01:55:00,57.8,43.6,30.16,WNW,292,0.0,3.0,59,0.00,,---,0.00,VWS V14.01,2013-02-06 06:55:00,
2013-02-06 01:56:00,57.8,43.6,30.16,WNW,292,0.0,3.0,59,0.00,,---,0.00,VWS V14.01,2013-02-06 06:56:00,
2013-02-06 01:57:00,57.7,43.5,30.16,WNW,292,0.0,3.0,59,0.00,,---,0.00,VWS V14.01,2013-02-06 06:57:00,
2013-02-06 01:58:00,57.7,43.5,30.16,WNW,292,0.0,3.0,59,0.00,,---,0.00,VWS V14.01,2013-02-06 06:58:00,
2013-02-06 01:59:00,57.7,43.5,30.16,WNW,292,0.0,3.0,59,0.00,,---,0.00,VWS V14.01,2013-02-06 06:59:00,
2013-02-06 02:00:00,57.6,43.4,30.16,WNW,292,0.0,3.0,59,0.00,,---,0.00,VWS V14.01,2013-02-06 07:00:00,
2013-02-06 02:01:00,57.6,43.4,30.16,WNW,292,0.0,0.0,59,0.00,,---,0.00,VWS V14.01,2013-02-06 07:01:00,
2013-02-06 02:02:00,57.6,43.4,30.16,WNW,292,0.0,0.0,59,0.00,,---,0.00,VWS V14.01,2013-02-06 07:02:00,
2013-02-06 02:03:00,57.6,43.4,30.16,WNW,292,0.0,0.0,59,0.00,,---,0.00,VWS V14.01,2013-02-06 07:03:00,
2013-02-06 02:04:00,57.5,43.3,30.16,WNW,292,0.0,0.0,59,0.00,,---,0.00,VWS V14.01,2013-02-06 07:04:00,
2013-02-06 02:05:00,57.5,43.3,30.16,WNW,292,0.0,1.0,59,0.00,,---,0.00,VWS V14.01,2013-02-06 07:05:00,
2013-02-06 02:06:00,57.4,43.2,30.16,WNW,292,0.0,1.0,59,0.00,,---,0.00,VWS V14.01,2013-02-06 07:06:00,
2013-02-06 02:07:00,57.4,43.6,30.16,WNW,292,0.0,1.0,60,0.00,,---,0.00,VWS V14.01,2013-02-06 07:07:00,
2013-02-06 02:08:00,57.3,43.5,30.16,WNW,292,0.0,1.0,60,0.00,,---,0.00,VWS V14.01,2013-02-06 07:08:00,
2013-02-06 02:09:00,57.3,43.5,30.16,WNW,292,0.0,1.0,60,0.00,,---,0.00,VWS V14.01,2013-02-06 07:09:00,
2013-02-06 02:10:00,57.2,43.5,30.16,WNW,292,0.0,1.0,60,0.00,,---,0.00,VWS V14.01,2013-02-06 07:10:00,
2013-02-06 02:11:00,57.2,43.5,30.16,WNW,292,0.0,1.0,60,0.00,,---,0.00,VWS V14.01,2013-02-06 07:11:00,
2013-02-06 02:12:00,57.1,43.4,30.16,WNW,292,0.0,1.0,60,0.00,,---,0.00,VWS V14.01,2013-02-06 07:12:00,
2013-02-06 02:13:00,57.1,43.8,30.16,WNW,292,0.0,1.0,61,0.00,,---,0.00,VWS V14.01,2013-02-06 07:13:00,
2013-02-06 02:14:00,57.0,43.7,30.16,WNW,292,0.0,1.0,61,0.00,,---,0.00,VWS V14.01,2013-02-06 07:14:00,
2013-02-06 02:15:00,56.9,43.6,30.16,WNW,292,0.0,1.0,61,0.00,,---,0.00,VWS V14.01,2013-02-06 07:15:00,
2013-02-06 02:16:00,56.8,43.5,30.16,WNW,292,0.0,1.0,61,0.00,,---,0.00,VWS V14.01,2013-02-06 07:16:00,
2013-02-06 02:17:00,56.7,43.4,30.16,WNW,292,0.0,1.0,61,0.00,,---,0.00,VWS V14.01,2013-02-06 07:17:00,
2013-02-06 02:18:00,56.6,43.3,30.16,WNW,292,0.0,1.0,61,0.00,,---,0.00,VWS V14.01,2013-02-06 07:18:00,
2013-02-06 02:19:00,56.6,43.3,30.17,WNW,292,0.0,1.0,61,0.00,,---,0.00,VWS V14.01,2013-02-06 07:19:00,
2013-02-06 02:20:00,56.5,43.2,30.16,WNW,292,0.0,1.0,61,0.00,,---,0.00,VWS V14.01,2013-02-06 07:20:00,
2013-02-06 02:21:00,56.4,43.6,30.16,WNW,292,0.0,1.0,62,0.00,,---,0.00,VWS V14.01,2013-02-06 07:21:00,
2013-02-06 02:22:00,56.3,43.5,30.17,WNW,292,0.0,1.0,62,0.00,,---,0.00,VWS V14.01,2013-02-06 07:22:00,
2013-02-06 02:23:00,56.2,43.4,30.17,WNW,292,0.0,1.0,62,0.00,,---,0.00,VWS V14.01,2013-02-06 07:23:00,
2013-02-06 02:24:00,56.1,43.3,30.17,WNW,292,0.0,1.0,62,0.00,,---,0.00,VWS V14.01,2013-02-06 07:24:00,
2013-02-06 02:25:00,56.0,43.2,30.17,WNW,292,0.0,1.0,62,0.00,,---,0.00,VWS V14.01,2013-02-06 07:25:00,
2013-02-06 02:26:00,55.9,43.5,30.16,WNW,292,0.0,1.0,63,0.00,,---,0.00,VWS V14.01,2013-02-06 07:26:00,
2013-02-06 02:27:00,55.9,43.5,30.17,WNW,292,0.0,1.0,63,0.00,,---,0.00,VWS V14.01,2013-02-06 07:27:00,
2013-02-06 02:28:00,55.8,43.4,30.16,WNW,292,0.0,1.0,63,0.00,,---,0.00,VWS V14.01,2013-02-06 07:28:00,
2013-02-06 02:29:00,55.8,43.4,30.16,WNW,292,0.0,1.0,63,0.00,,---,0.00,VWS V14.01,2013-02-06 07:29:00,
2013-02-06 02:30:00,55.7,43.3,30.16,WNW,292,0.0,1.0,63,0.00,,---,0.00,VWS V14.01,2013-02-06 07:30:00,
2013-02-06 02:31:00,55.7,43.7,30.17,WNW,292,0.0,0.0,64,0.00,,---,0.00,VWS V14.01,2013-02-06 07:31:00,
2013-02-06 02:32:00,55.6,43.6,30.17,WNW,292,0.0,0.0,64,0.00,,---,0.00,VWS V14.01,2013-02-06 07:32:00,
2013-02-06 02:33:00,55.6,43.6,30.17,WNW,292,0.0,0.0,64,0.00,,---,0.00,VWS V14.01,2013-02-06 07:33:00,
2013-02-06 02:34:00,55.5,43.5,30.17,WNW,292,0.0,1.0,64,0.00,,---,0.00,VWS V14.01,2013-02-06 07:34:00,
2013-02-06 02:35:00,55.4,43.4,30.17,WNW,292,0.0,1.0,64,0.00,,---,0.00,VWS V14.01,2013-02-06 07:35:00,
2013-02-06 02:36:00,55.3,43.8,30.17,WNW,292,0.0,1.0,65,0.00,,---,0.00,VWS V14.01,2013-02-06 07:36:00,
2013-02-06 02:37:00,55.3,43.8,30.17,WNW,292,0.0,1.0,65,0.00,,---,0.00,VWS V14.01,2013-02-06 07:37:00,
2013-02-06 02:38:00,55.3,43.8,30.17,WNW,292,0.0,1.0,65,0.00,,---,0.00,VWS V14.01,2013-02-06 07:38:00,
2013-02-06 02:39:00,55.3,43.8,30.17,WNW,292,0.0,1.0,65,0.00,,---,0.00,VWS V14.01,2013-02-06 07:39:00,
2013-02-06 02:40:00,55.3,43.8,30.17,WNW,292,0.0,1.0,65,0.00,,---,0.00,VWS V14.01,2013-02-06 07:40:00,
2013-02-06 02:41:00,55.3,43.8,30.17,WNW,292,0.0,1.0,65,0.00,,---,0.00,VWS V14.01,2013-02-06 07:41:00,
2013-02-06 02:42:00,55.0,43.5,30.17,WNW,292,0.0,1.0,65,0.00,,---,0.00,VWS V14.01,2013-02-06 07:42:00,
2013-02-06 02:43:00,55.0,43.5,30.17,WNW,292,0.0,1.0,65,0.00,,---,0.00,VWS V14.01,2013-02-06 07:43:00,
2013-02-06 02:44:00,54.9,43.4,30.17,WNW,292,0.0,1.0,65,0.00,,---,0.00,VWS V14.01,2013-02-06 07:44:00,
2013-02-06 02:45:00,54.9,43.8,30.17,WNW,292,0.0,1.0,66,0.00,,---,0.00,VWS V14.01,2013-02-06 07:45:00,
2013-02-06 02:46:00,54.8,43.7,30.17,WNW,292,0.0,1.0,66,0.00,,---,0.00,VWS V14.01,2013-02-06 07:46:00,
2013-02-06 02:47:00,54.8,43.7,30.17,WNW,292,0.0,1.0,66,0.00,,---,0.00,VWS V14.01,2013-02-06 07:47:00,
2013-02-06 02:48:00,54.7,43.6,30.17,WNW,292,0.0,1.0,66,0.00,,---,0.00,VWS V14.01,2013-02-06 07:48:00,
2013-02-06 02:49:00,54.6,43.5,30.17,WNW,292,0.0,1.0,66,0.00,,---,0.00,VWS V14.01,2013-02-06 07:49:00,
2013-02-06 02:50:00,54.5,43.8,30.17,WNW,292,0.0,1.0,67,0.00,,---,0.00,VWS V14.01,2013-02-06 07:50:00,
2013-02-06 02:51:00,54.4,43.7,30.17,WNW,292,0.0,1.0,67,0.00,,---,0.00,VWS V14.01,2013-02-06 07:51:00,
2013-02-06 02:52:00,54.4,43.7,30.17,WNW,292,0.0,1.0,67,0.00,,---,0.00,VWS V14.01,2013-02-06 07:52:00,
2013-02-06 02:53:00,54.2,43.9,30.17,WNW,292,0.0,1.0,68,0.00,,---,0.00,VWS V14.01,2013-02-06 07:53:00,
2013-02-06 02:54:00,54.2,43.9,30.17,WNW,292,0.0,1.0,68,0.00,,---,0.00,VWS V14.01,2013-02-06 07:54:00,
2013-02-06 02:55:00,54.1,43.8,30.17,WNW,292,0.0,1.0,68,0.00,,---,0.00,VWS V14.01,2013-02-06 07:55:00,
2013-02-06 02:56:00,54.0,43.7,30.17,WNW,292,0.0,1.0,68,0.00,,---,0.00,VWS V14.01,2013-02-06 07:56:00,
2013-02-06 02:57:00,54.0,43.7,30.17,WNW,292,0.0,1.0,68,0.00,,---,0.00,VWS V14.01,2013-02-06 07:57:00,
2013-02-06 02:58:00,54.0,43.7,30.17,WNW,292,0.0,1.0,68,0.00,,---,0.00,VWS V14.01,2013-02-06 07:58:00,
2013-02-06 02:59:00,53.9,43.6,30.17,WNW,292,0.0,1.0,68,0.00,,---,0.00,VWS V14.01,2013-02-06 07:59:00,
2013-02-06 03:00:00,53.8,43.5,30.17,WNW,292,0.0,1.0,68,0.00,,---,0.00,VWS V14.01,2013-02-06 08:00:00,
2013-02-06 03:01:00,53.8,43.5,30.18,WNW,292,0.0,0.0,68,0.00,,---,0.00,VWS V14.01,2013-02-06 08:01:00,
2013-02-06 03:02:00,53.7,43.8,30.18,WNW,292,0.0,0.0,69,0.00,,---,0.00,VWS V14.01,2013-02-06 08:02:00,
2013-02-06 03:03:00,53.6,43.7,30.18,WNW,292,0.0,0.0,69,0.00,,---,0.00,VWS V14.01,2013-02-06 08:03:00,
2013-02-06 03:04:00,53.6,43.7,30.18,WNW,292,0.0,0.0,69,0.00,,---,0.00,VWS V14.01,2013-02-06 08:04:00,
2013-02-06 03:05:00,53.5,43.6,30.18,WNW,292,0.0,0.0,69,0.00,,---,0.00,VWS V14.01,2013-02-06 08:05:00,
2013-02-06 03:06:00,53.4,43.5,30.18,WNW,292,0.0,0.0,69,0.00,,---,0.00,VWS V14.01,2013-02-06 08:06:00,
2013-02-06 03:07:00,53.3,43.4,30.18,WNW,292,0.0,0.0,69,0.00,,---,0.00,VWS V14.01,2013-02-06 08:07:00,
2013-02-06 03:08:00,53.3,43.8,30.18,WNW,292,0.0,0.0,70,0.00,,---,0.00,VWS V14.01,2013-02-06 08:08:00,
2013-02-06 03:09:00,53.2,43.7,30.17,WNW,292,0.0,0.0,70,0.00,,---,0.00,VWS V14.01,2013-02-06 08:09:00,
2013-02-06 03:10:00,53.1,43.6,30.17,WNW,292,0.0,0.0,70,0.00,,---,0.00,VWS V14.01,2013-02-06 08:10:00,
2013-02-06 03:11:00,53.1,43.6,30.18,WNW,292,0.0,0.0,70,0.00,,---,0.00,VWS V14.01,2013-02-06 08:11:00,
2013-02-06 03:12:00,53.0,43.5,30.18,WNW,292,0.0,1.0,70,0.00,,---,0.00,VWS V14.01,2013-02-06 08:12:00,
2013-02-06 03:13:00,53.0,43.5,30.18,WNW,292,0.0,1.0,70,0.00,,---,0.00,VWS V14.01,2013-02-06 08:13:00,
2013-02-06 03:14:00,52.9,43.8,30.18,WNW,292,0.0,1.0,71,0.00,,---,0.00,VWS V14.01,2013-02-06 08:14:00,
2013-02-06 03:15:00,52.9,43.8,30.18,WNW,292,0.0,1.0,71,0.00,,---,0.00,VWS V14.01,2013-02-06 08:15:00,
2013-02-06 03:16:00,52.9,43.8,30.18,WNW,292,0.0,1.0,71,0.00,,---,0.00,VWS V14.01,2013-02-06 08:16:00,
2013-02-06 03:17:00,52.9,43.8,30.18,WNW,292,0.0,1.0,71,0.00,,---,0.00,VWS V14.01,2013-02-06 08:17:00,
2013-02-06 03:18:00,52.9,43.8,30.18,WNW,292,0.0,1.0,71,0.00,,---,0.00,VWS V14.01,2013-02-06 08:18:00,
2013-02-06 03:19:00,52.9,43.8,30.18,WNW,292,0.0,1.0,71,0.00,,---,0.00,VWS V14.01,2013-02-06 08:19:00,
2013-02-06 03:20:00,52.9,43.8,30.18,WNW,292,0.0,1.0,71,0.00,,---,0.00,VWS V14.01,2013-02-06 08:20:00,
2013-02-06 03:21:00,52.9,43.8,30.18,WNW,292,0.0,1.0,71,0.00,,---,0.00,VWS V14.01,2013-02-06 08:21:00,
2013-02-06 03:22:00,52.9,43.8,30.18,WNW,292,0.0,1.0,71,0.00,,---,0.00,VWS V14.01,2013-02-06 08:22:00,
2013-02-06 03:23:00,52.8,43.7,30.18,WNW,292,0.0,1.0,71,0.00,,---,0.00,VWS V14.01,2013-02-06 08:23:00,
2013-02-06 03:24:00,52.8,43.7,30.18,WNW,292,0.0,1.0,71,0.00,,---,0.00,VWS V14.01,2013-02-06 08:24:00,
2013-02-06 03:25:00,52.8,44.0,30.18,WNW,292,0.0,1.0,72,0.00,,---,0.00,VWS V14.01,2013-02-06 08:25:00,
2013-02-06 03:26:00,52.8,44.0,30.18,WNW,292,0.0,1.0,72,0.00,,---,0.00,VWS V14.01,2013-02-06 08:26:00,
2013-02-06 03:27:00,52.7,43.9,30.18,WNW,292,0.0,1.0,72,0.00,,---,0.00,VWS V14.01,2013-02-06 08:27:00,
2013-02-06 03:28:00,52.7,43.6,30.18,WNW,292,0.0,1.0,71,0.00,,---,0.00,VWS V14.01,2013-02-06 08:28:00,
2013-02-06 03:29:00,52.7,43.6,30.18,WNW,292,0.0,1.0,71,0.00,,---,0.00,VWS V14.01,2013-02-06 08:29:00,
2013-02-06 03:30:00,52.6,43.8,30.18,WNW,292,0.0,1.0,72,0.00,,---,0.00,VWS V14.01,2013-02-06 08:30:00,
2013-02-06 03:31:00,52.6,43.8,30.18,WNW,292,0.0,0.0,72,0.00,,---,0.00,VWS V14.01,2013-02-06 08:31:00,
2013-02-06 03:32:00,52.5,43.8,30.18,WNW,292,0.0,0.0,72,0.00,,---,0.00,VWS V14.01,2013-02-06 08:32:00,
2013-02-06 03:33:00,52.5,43.8,30.18,WNW,292,0.0,0.0,72,0.00,,---,0.00,VWS V14.01,2013-02-06 08:33:00,
2013-02-06 03:34:00,52.4,43.7,30.18,WNW,292,0.0,0.0,72,0.00,,---,0.00,VWS V14.01,2013-02-06 08:34:00,
2013-02-06 03:35:00,52.3,43.5,30.18,WNW,292,0.0,0.0,72,0.00,,---,0.00,VWS V14.01,2013-02-06 08:35:00,
2013-02-06 03:36:00,52.3,43.5,30.18,WNW,292,0.0,0.0,72,0.00,,---,0.00,VWS V14.01,2013-02-06 08:36:00,
2013-02-06 03:37:00,52.2,43.8,30.18,WNW,292,0.0,0.0,73,0.00,,---,0.00,VWS V14.01,2013-02-06 08:37:00,
2013-02-06 03:38:00,52.2,43.5,30.18,WNW,292,0.0,0.0,72,0.00,,---,0.00,VWS V14.01,2013-02-06 08:38:00,
2013-02-06 03:39:00,52.1,43.7,30.18,WNW,292,0.0,0.0,73,0.00,,---,0.00,VWS V14.01,2013-02-06 08:39:00,
2013-02-06 03:40:00,52.1,43.7,30.18,WNW,292,0.0,0.0,73,0.00,,---,0.00,VWS V14.01,2013-02-06 08:40:00,
2013-02-06 03:41:00,52.0,43.6,30.18,WNW,292,0.0,0.0,73,0.00,,---,0.00,VWS V14.01,2013-02-06 08:41:00,
2013-02-06 03:42:00,52.0,43.6,30.18,WNW,292,0.0,0.0,73,0.00,,---,0.00,VWS V14.01,2013-02-06 08:42:00,
2013-02-06 03:43:00,51.9,43.5,30.18,WNW,292,0.0,0.0,73,0.00,,---,0.00,VWS V14.01,2013-02-06 08:43:00,
2013-02-06 03:44:00,51.9,43.5,30.18,WNW,292,0.0,0.0,73,0.00,,---,0.00,VWS V14.01,2013-02-06 08:44:00,
2013-02-06 03:45:00,51.8,43.4,30.18,WNW,292,0.0,0.0,73,0.00,,---,0.00,VWS V14.01,2013-02-06 08:45:00,
2013-02-06 03:46:00,51.8,43.4,30.18,WNW,292,0.0,1.0,73,0.00,,---,0.00,VWS V14.01,2013-02-06 08:46:00,
2013-02-06 03:47:00,51.7,43.3,30.18,WNW,292,0.0,1.0,73,0.00,,---,0.00,VWS V14.01,2013-02-06 08:47:00,
2013-02-06 03:48:00,51.7,43.3,30.18,WNW,292,0.0,1.0,73,0.00,,---,0.00,VWS V14.01,2013-02-06 08:48:00,
2013-02-06 03:49:00,51.7,43.7,30.18,WNW,292,0.0,1.0,74,0.00,,---,0.00,VWS V14.01,2013-02-06 08:49:00,
2013-02-06 03:50:00,51.6,43.6,30.18,WNW,292,0.0,1.0,74,0.00,,---,0.00,VWS V14.01,2013-02-06 08:50:00,
2013-02-06 03:51:00,51.6,43.6,30.18,WNW,292,0.0,1.0,74,0.00,,---,0.00,VWS V14.01,2013-02-06 08:51:00,
2013-02-06 03:52:00,51.6,43.6,30.18,WNW,292,0.0,1.0,74,0.00,,---,0.00,VWS V14.01,2013-02-06 08:52:00,
2013-02-06 03:53:00,51.6,43.6,30.18,WNW,292,0.0,1.0,74,0.00,,---,0.00,VWS V14.01,2013-02-06 08:53:00,
2013-02-06 03:54:00,51.6,43.6,30.18,WNW,292,0.0,1.0,74,0.00,,---,0.00,VWS V14.01,2013-02-06 08:54:00,
2013-02-06 03:55:00,51.6,43.6,30.18,WNW,292,1.0,1.0,74,0.00,,---,0.00,VWS V14.01,2013-02-06 08:55:00,
2013-02-06 03:56:00,51.5,43.1,30.18,WNW,292,0.0,1.0,73,0.00,,---,0.00,VWS V14.01,2013-02-06 08:56:00,
2013-02-06 03:57:00,51.6,43.2,30.18,WNW,292,0.0,1.0,73,0.00,,---,0.00,VWS V14.01,2013-02-06 08:57:00,
2013-02-06 03:58:00,51.6,43.2,30.18,WNW,292,0.0,1.0,73,0.00,,---,0.00,VWS V14.01,2013-02-06 08:58:00,
2013-02-06 03:59:00,51.6,43.2,30.18,WNW,292,0.0,1.0,73,0.00,,---,0.00,VWS V14.01,2013-02-06 08:59:00,
2013-02-06 04:00:00,51.7,43.3,30.18,WNW,292,0.0,1.0,73,0.00,,---,0.00,VWS V14.01,2013-02-06 09:00:00,
2013-02-06 04:01:00,51.7,43.3,30.18,WNW,292,0.0,1.0,73,0.00,,---,0.00,VWS V14.01,2013-02-06 09:01:00,
2013-02-06 04:02:00,51.7,43.3,30.18,WNW,292,0.0,1.0,73,0.00,,---,0.00,VWS V14.01,2013-02-06 09:02:00,
2013-02-06 04:03:00,51.7,43.3,30.18,WNW,292,0.0,1.0,73,0.00,,---,0.00,VWS V14.01,2013-02-06 09:03:00,
2013-02-06 04:04:00,51.7,43.3,30.18,WNW,292,0.0,1.0,73,0.00,,---,0.00,VWS V14.01,2013-02-06 09:04:00,
2013-02-06 04:05:00,51.8,43.4,30.18,WNW,292,0.0,1.0,73,0.00,,---,0.00,VWS V14.01,2013-02-06 09:05:00,
2013-02-06 04:06:00,51.7,43.3,30.18,WNW,292,0.0,1.0,73,0.00,,---,0.00,VWS V14.01,2013-02-06 09:06:00,
2013-02-06 04:07:00,51.7,43.3,30.18,WNW,292,0.0,1.0,73,0.00,,---,0.00,VWS V14.01,2013-02-06 09:07:00,
2013-02-06 04:08:00,51.7,43.3,30.19,WNW,292,0.0,1.0,73,0.00,,---,0.00,VWS V14.01,2013-02-06 09:08:00,
2013-02-06 04:09:00,51.7,43.3,30.19,WNW,292,0.0,1.0,73,0.00,,---,0.00,VWS V14.01,2013-02-06 09:09:00,
2013-02-06 04:10:00,51.7,43.3,30.19,WNW,292,0.0,1.0,73,0.00,,---,0.00,VWS V14.01,2013-02-06 09:10:00,
2013-02-06 04:11:00,51.7,43.3,30.19,WNW,292,0.0,1.0,73,0.00,,---,0.00,VWS V14.01,2013-02-06 09:11:00,
2013-02-06 04:12:00,51.7,43.3,30.19,WNW,292,0.0,1.0,73,0.00,,---,0.00,VWS V14.01,2013-02-06 09:12:00,
2013-02-06 04:13:00,51.6,43.2,30.18,WNW,292,0.0,1.0,73,0.00,,---,0.00,VWS V14.01,2013-02-06 09:13:00,
2013-02-06 04:14:00,51.6,43.2,30.18,WNW,292,0.0,1.0,73,0.00,,---,0.00,VWS V14.01,2013-02-06 09:14:00,
2013-02-06 04:15:00,51.5,43.1,30.19,WNW,292,0.0,1.0,73,0.00,,---,0.00,VWS V14.01,2013-02-06 09:15:00,
2013-02-06 04:16:00,51.5,43.1,30.19,WNW,292,0.0,1.0,73,0.00,,---,0.00,VWS V14.01,2013-02-06 09:16:00,
2013-02-06 04:17:00,51.4,43.0,30.18,WNW,292,0.0,1.0,73,0.00,,---,0.00,VWS V14.01,2013-02-06 09:17:00,
2013-02-06 04:18:00,51.3,43.0,30.18,WNW,292,0.0,1.0,73,0.00,,---,0.00,VWS V14.01,2013-02-06 09:18:00,
2013-02-06 04:19:00,51.2,42.9,30.18,WNW,292,0.0,1.0,73,0.00,,---,0.00,VWS V14.01,2013-02-06 09:19:00,
2013-02-06 04:20:00,51.2,42.9,30.18,WNW,292,0.0,1.0,73,0.00,,---,0.00,VWS V14.01,2013-02-06 09:20:00,
2013-02-06 04:21:00,51.1,42.8,30.18,WNW,292,0.0,1.0,73,0.00,,---,0.00,VWS V14.01,2013-02-06 09:21:00,
2013-02-06 04:22:00,51.1,43.1,30.18,WNW,292,0.0,1.0,74,0.00,,---,0.00,VWS V14.01,2013-02-06 09:22:00,
2013-02-06 04:23:00,51.1,43.1,30.19,WNW,292,0.0,1.0,74,0.00,,---,0.00,VWS V14.01,2013-02-06 09:23:00,
2013-02-06 04:24:00,51.0,43.0,30.19,WNW,292,0.0,1.0,74,0.00,,---,0.00,VWS V14.01,2013-02-06 09:24:00,
2013-02-06 04:25:00,51.0,43.0,30.19,WNW,292,0.0,1.0,74,0.00,,---,0.00,VWS V14.01,2013-02-06 09:25:00,
2013-02-06 04:26:00,51.0,43.0,30.18,WNW,292,0.0,1.0,74,0.00,,---,0.00,VWS V14.01,2013-02-06 09:26:00,
2013-02-06 04:27:00,51.0,43.0,30.18,WNW,292,0.0,1.0,74,0.00,,---,0.00,VWS V14.01,2013-02-06 09:27:00,
2013-02-06 04:28:00,51.0,43.0,30.18,WNW,292,0.0,1.0,74,0.00,,---,0.00,VWS V14.01,2013-02-06 09:28:00,
2013-02-06 04:29:00,50.9,42.9,30.18,WNW,292,0.0,1.0,74,0.00,,---,0.00,VWS V14.01,2013-02-06 09:29:00,
2013-02-06 04:30:00,50.9,42.9,30.18,WNW,292,0.0,1.0,74,0.00,,---,0.00,VWS V14.01,2013-02-06 09:30:00,
2013-02-06 04:31:00,50.9,42.9,30.18,WNW,292,0.0,0.0,74,0.00,,---,0.00,VWS V14.01,2013-02-06 09:31:00,
2013-02-06 04:32:00,50.9,43.3,30.18,WNW,292,0.0,0.0,75,0.00,,---,0.00,VWS V14.01,2013-02-06 09:32:00,
2013-02-06 04:33:00,50.9,42.9,30.18,WNW,292,0.0,0.0,74,0.00,,---,0.00,VWS V14.01,2013-02-06 09:33:00,
2013-02-06 04:34:00,50.9,42.9,30.18,WNW,292,0.0,0.0,74,0.00,,---,0.00,VWS V14.01,2013-02-06 09:34:00,
2013-02-06 04:35:00,50.8,43.2,30.18,WNW,292,0.0,0.0,75,0.00,,---,0.00,VWS V14.01,2013-02-06 09:35:00,
2013-02-06 04:36:00,50.8,43.2,30.18,WNW,292,0.0,0.0,75,0.00,,---,0.00,VWS V14.01,2013-02-06 09:36:00,
2013-02-06 04:37:00,50.7,43.1,30.18,WNW,292,0.0,0.0,75,0.00,,---,0.00,VWS V14.01,2013-02-06 09:37:00,
2013-02-06 04:38:00,50.7,43.1,30.18,WNW,292,0.0,0.0,75,0.00,,---,0.00,VWS V14.01,2013-02-06 09:38:00,
2013-02-06 04:39:00,50.7,43.1,30.18,WNW,292,0.0,0.0,75,0.00,,---,0.00,VWS V14.01,2013-02-06 09:39:00,
2013-02-06 04:40:00,50.6,43.0,30.18,WNW,292,0.0,0.0,75,0.00,,---,0.00,VWS V14.01,2013-02-06 09:40:00,
2013-02-06 04:41:00,50.6,43.0,30.18,WNW,292,0.0,0.0,75,0.00,,---,0.00,VWS V14.01,2013-02-06 09:41:00,
2013-02-06 04:42:00,50.5,42.9,30.18,WNW,292,0.0,0.0,75,0.00,,---,0.00,VWS V14.01,2013-02-06 09:42:00,
2013-02-06 04:43:00,50.5,42.9,30.18,WNW,292,0.0,0.0,75,0.00,,---,0.00,VWS V14.01,2013-02-06 09:43:00,
2013-02-06 04:44:00,50.5,42.9,30.18,WNW,292,0.0,0.0,75,0.00,,---,0.00,VWS V14.01,2013-02-06 09:44:00,
2013-02-06 04:45:00,50.4,42.8,30.18,WNW,292,0.0,0.0,75,0.00,,---,0.00,VWS V14.01,2013-02-06 09:45:00,
2013-02-06 04:46:00,50.4,42.8,30.18,WNW,292,0.0,0.0,75,0.00,,---,0.00,VWS V14.01,2013-02-06 09:46:00,
2013-02-06 04:47:00,50.4,42.8,30.18,WNW,292,0.0,0.0,75,0.00,,---,0.00,VWS V14.01,2013-02-06 09:47:00,
2013-02-06 04:48:00,50.3,43.0,30.18,WNW,292,0.0,0.0,76,0.00,,---,0.00,VWS V14.01,2013-02-06 09:48:00,
2013-02-06 04:49:00,50.3,43.0,30.18,WNW,292,0.0,0.0,76,0.00,,---,0.00,VWS V14.01,2013-02-06 09:49:00,
2013-02-06 04:50:00,50.2,42.9,30.18,WNW,292,0.0,0.0,76,0.00,,---,0.00,VWS V14.01,2013-02-06 09:50:00,
2013-02-06 04:51:00,50.1,42.8,30.18,WNW,292,0.0,0.0,76,0.00,,---,0.00,VWS V14.01,2013-02-06 09:51:00,
2013-02-06 04:52:00,50.1,42.8,30.18,WNW,292,0.0,0.0,76,0.00,,---,0.00,VWS V14.01,2013-02-06 09:52:00,
2013-02-06 04:53:00,50.0,42.7,30.19,WNW,292,0.0,0.0,76,0.00,,---,0.00,VWS V14.01,2013-02-06 09:53:00,
2013-02-06 04:54:00,50.0,42.7,30.19,WNW,292,0.0,0.0,76,0.00,,---,0.00,VWS V14.01,2013-02-06 09:54:00,
2013-02-06 04:55:00,49.9,42.7,30.18,WNW,292,0.0,0.0,76,0.00,,---,0.00,VWS V14.01,2013-02-06 09:55:00,
2013-02-06 04:56:00,49.8,42.5,30.18,WNW,292,0.0,0.0,76,0.00,,---,0.00,VWS V14.01,2013-02-06 09:56:00,
2013-02-06 04:57:00,49.8,42.9,30.18,WNW,292,0.0,0.0,77,0.00,,---,0.00,VWS V14.01,2013-02-06 09:57:00,
2013-02-06 04:58:00,49.7,42.8,30.18,WNW,292,0.0,0.0,77,0.00,,---,0.00,VWS V14.01,2013-02-06 09:58:00,
2013-02-06 04:59:00,49.7,42.8,30.18,WNW,292,0.0,0.0,77,0.00,,---,0.00,VWS V14.01,2013-02-06 09:59:00,
2013-02-06 05:00:00,49.6,42.7,30.18,WNW,292,0.0,0.0,77,0.00,,---,0.00,VWS V14.01,2013-02-06 10:00:00,
2013-02-06 05:01:00,49.6,42.7,30.18,WNW,292,0.0,0.0,77,0.00,,---,0.00,VWS V14.01,2013-02-06 10:01:00,
2013-02-06 05:02:00,49.5,42.6,30.18,WNW,292,0.0,0.0,77,0.00,,---,0.00,VWS V14.01,2013-02-06 10:02:00,
2013-02-06 05:03:00,49.4,42.5,30.18,WNW,292,0.0,0.0,77,0.00,,---,0.00,VWS V14.01,2013-02-06 10:03:00,
2013-02-06 05:04:00,49.4,42.5,30.18,WNW,292,0.0,0.0,77,0.00,,---,0.00,VWS V14.01,2013-02-06 10:04:00,
2013-02-06 05:05:00,49.3,42.4,30.18,WNW,292,0.0,0.0,77,0.00,,---,0.00,VWS V14.01,2013-02-06 10:05:00,
2013-02-06 05:06:00,49.3,42.4,30.18,WNW,292,0.0,0.0,77,0.00,,---,0.00,VWS V14.01,2013-02-06 10:06:00,
2013-02-06 05:07:00,49.2,42.6,30.19,WNW,292,0.0,0.0,78,0.00,,---,0.00,VWS V14.01,2013-02-06 10:07:00,
2013-02-06 05:08:00,49.2,42.6,30.19,WNW,292,0.0,0.0,78,0.00,,---,0.00,VWS V14.01,2013-02-06 10:08:00,
2013-02-06 05:09:00,49.2,42.6,30.19,WNW,292,0.0,0.0,78,0.00,,---,0.00,VWS V14.01,2013-02-06 10:09:00,
2013-02-06 05:10:00,49.2,42.6,30.19,WNW,292,0.0,0.0,78,0.00,,---,0.00,VWS V14.01,2013-02-06 10:10:00,
2013-02-06 05:11:00,49.1,42.5,30.19,WNW,292,0.0,0.0,78,0.00,,---,0.00,VWS V14.01,2013-02-06 10:11:00,
2013-02-06 05:12:00,49.1,42.5,30.19,WNW,292,0.0,0.0,78,0.00,,---,0.00,VWS V14.01,2013-02-06 10:12:00,
2013-02-06 05:13:00,49.1,42.5,30.19,WNW,292,0.0,0.0,78,0.00,,---,0.00,VWS V14.01,2013-02-06 10:13:00,
2013-02-06 05:14:00,49.0,42.5,30.19,WNW,292,0.0,0.0,78,0.00,,---,0.00,VWS V14.01,2013-02-06 10:14:00,
2013-02-06 05:15:00,49.0,42.5,30.19,WNW,292,0.0,0.0,78,0.00,,---,0.00,VWS V14.01,2013-02-06 10:15:00,
2013-02-06 05:16:00,49.0,42.5,30.19,WNW,292,0.0,0.0,78,0.00,,---,0.00,VWS V14.01,2013-02-06 10:16:00,
2013-02-06 05:17:00,48.9,42.3,30.19,WNW,292,0.0,0.0,78,0.00,,---,0.00,VWS V14.01,2013-02-06 10:17:00,
2013-02-06 05:18:00,48.8,42.3,30.19,WNW,292,0.0,0.0,78,0.00,,---,0.00,VWS V14.01,2013-02-06 10:18:00,
2013-02-06 05:19:00,48.8,42.3,30.19,WNW,292,0.0,0.0,78,0.00,,---,0.00,VWS V14.01,2013-02-06 10:19:00,
2013-02-06 05:20:00,48.8,42.3,30.19,WNW,292,0.0,0.0,78,0.00,,---,0.00,VWS V14.01,2013-02-06 10:20:00,
2013-02-06 05:21:00,48.7,42.5,30.20,WNW,292,0.0,0.0,79,0.00,,---,0.00,VWS V14.01,2013-02-06 10:21:00,
2013-02-06 05:22:00,48.7,42.2,30.20,WNW,292,0.0,0.0,78,0.00,,---,0.00,VWS V14.01,2013-02-06 10:22:00,
2013-02-06 05:23:00,48.6,42.1,30.20,WNW,292,0.0,0.0,78,0.00,,---,0.00,VWS V14.01,2013-02-06 10:23:00,
2013-02-06 05:24:00,48.6,42.1,30.20,WNW,292,0.0,0.0,78,0.00,,---,0.00,VWS V14.01,2013-02-06 10:24:00,
2013-02-06 05:25:00,48.5,42.0,30.20,WNW,292,0.0,0.0,78,0.00,,---,0.00,VWS V14.01,2013-02-06 10:25:00,
2013-02-06 05:26:00,48.5,42.3,30.20,WNW,292,0.0,0.0,79,0.00,,---,0.00,VWS V14.01,2013-02-06 10:26:00,
2013-02-06 05:27:00,48.4,42.2,30.20,WNW,292,0.0,0.0,79,0.00,,---,0.00,VWS V14.01,2013-02-06 10:27:00,
2013-02-06 05:28:00,48.3,42.1,30.20,WNW,292,0.0,0.0,79,0.00,,---,0.00,VWS V14.01,2013-02-06 10:28:00,
2013-02-06 05:29:00,48.3,42.1,30.20,WNW,292,0.0,0.0,79,0.00,,---,0.00,VWS V14.01,2013-02-06 10:29:00,
2013-02-06 05:30:00,48.2,42.0,30.20,WNW,292,0.0,0.0,79,0.00,,---,0.00,VWS V14.01,2013-02-06 10:30:00,
2013-02-06 05:31:00,48.2,43.3,30.20,WNW,292,0.0,0.0,83,0.00,,---,0.00,VWS V14.01,2013-02-06 10:31:00,
2013-02-06 05:32:00,48.1,41.9,30.20,WNW,292,0.0,0.0,79,0.00,,---,0.00,VWS V14.01,2013-02-06 10:32:00,
2013-02-06 05:33:00,48.1,41.9,30.21,WNW,292,0.0,0.0,79,0.00,,---,0.00,VWS V14.01,2013-02-06 10:33:00,
2013-02-06 05:34:00,48.1,42.2,30.21,WNW,292,0.0,0.0,80,0.00,,---,0.00,VWS V14.01,2013-02-06 10:34:00,
2013-02-06 05:35:00,48.1,42.2,30.21,WNW,292,0.0,0.0,80,0.00,,---,0.00,VWS V14.01,2013-02-06 10:35:00,
2013-02-06 05:36:00,48.0,42.1,30.21,WNW,292,0.0,0.0,80,0.00,,---,0.00,VWS V14.01,2013-02-06 10:36:00,
2013-02-06 05:37:00,48.0,42.1,30.21,WNW,292,0.0,0.0,80,0.00,,---,0.00,VWS V14.01,2013-02-06 10:37:00,
2013-02-06 05:38:00,48.0,42.1,30.21,WNW,292,0.0,0.0,80,0.00,,---,0.00,VWS V14.01,2013-02-06 10:38:00,
2013-02-06 05:39:00,48.0,42.1,30.22,WNW,292,0.0,0.0,80,0.00,,---,0.00,VWS V14.01,2013-02-06 10:39:00,
2013-02-06 05:40:00,48.0,42.1,30.22,WNW,292,0.0,0.0,80,0.00,,---,0.00,VWS V14.01,2013-02-06 10:40:00,
2013-02-06 05:41:00,48.0,42.1,30.22,WNW,292,0.0,1.0,80,0.00,,---,0.00,VWS V14.01,2013-02-06 10:41:00,
2013-02-06 05:42:00,48.0,42.1,30.22,WNW,292,0.0,1.0,80,0.00,,---,0.00,VWS V14.01,2013-02-06 10:42:00,
2013-02-06 05:43:00,47.9,42.0,30.22,WNW,292,0.0,1.0,80,0.00,,---,0.00,VWS V14.01,2013-02-06 10:43:00,
2013-02-06 05:44:00,47.9,42.0,30.23,NE,44,1.0,3.0,80,0.00,,---,0.00,VWS V14.01,2013-02-06 10:44:00,
2013-02-06 05:45:00,47.9,42.0,30.23,NE,46,0.0,3.0,80,0.00,,---,0.00,VWS V14.01,2013-02-06 10:45:00,
2013-02-06 05:46:00,47.8,41.9,30.23,NE,46,0.0,3.0,80,0.00,,---,0.00,VWS V14.01,2013-02-06 10:46:00,
2013-02-06 05:47:00,47.7,41.8,30.23,NE,46,0.0,3.0,80,0.00,,---,0.00,VWS V14.01,2013-02-06 10:47:00,
2013-02-06 05:48:00,47.7,41.8,30.23,NE,46,0.0,3.0,80,0.00,,---,0.00,VWS V14.01,2013-02-06 10:48:00,
2013-02-06 05:49:00,47.6,41.8,30.22,NE,46,0.0,3.0,80,0.00,,---,0.00,VWS V14.01,2013-02-06 10:49:00,
2013-02-06 05:50:00,47.5,41.7,30.22,NE,46,0.0,3.0,80,0.00,,---,0.00,VWS V14.01,2013-02-06 10:50:00,
2013-02-06 05:51:00,47.5,41.7,30.22,NE,46,0.0,3.0,80,0.00,,---,0.00,VWS V14.01,2013-02-06 10:51:00,
2013-02-06 05:52:00,47.4,41.5,30.22,NE,46,0.0,3.0,80,0.00,,---,0.00,VWS V14.01,2013-02-06 10:52:00,
2013-02-06 05:53:00,47.3,41.5,30.21,NE,46,0.0,3.0,80,0.00,,---,0.00,VWS V14.01,2013-02-06 10:53:00,
2013-02-06 05:54:00,47.3,41.5,30.21,NE,46,0.0,3.0,80,0.00,,---,0.00,VWS V14.01,2013-02-06 10:54:00,
2013-02-06 05:55:00,47.3,41.8,30.21,NE,46,0.0,3.0,81,0.00,,---,0.00,VWS V14.01,2013-02-06 10:55:00,
2013-02-06 05:56:00,47.3,41.8,30.22,NE,46,0.0,3.0,81,0.00,,---,0.00,VWS V14.01,2013-02-06 10:56:00,
2013-02-06 05:57:00,47.2,41.7,30.22,NE,46,0.0,3.0,81,0.00,,---,0.00,VWS V14.01,2013-02-06 10:57:00,
2013-02-06 05:58:00,47.2,41.7,30.22,NE,46,0.0,3.0,81,0.00,,---,0.00,VWS V14.01,2013-02-06 10:58:00,
2013-02-06 05:59:00,47.2,41.7,30.21,NE,46,0.0,3.0,81,0.00,,---,0.00,VWS V14.01,2013-02-06 10:59:00,
2013-02-06 06:00:00,47.1,41.6,30.21,NE,46,0.0,3.0,81,0.00,,---,0.00,VWS V14.01,2013-02-06 11:00:00,
2013-02-06 06:01:00,47.1,41.6,30.21,NE,46,0.0,0.0,81,0.00,,---,0.00,VWS V14.01,2013-02-06 11:01:00,
2013-02-06 06:02:00,47.0,41.5,30.21,NE,46,0.0,0.0,81,0.00,,---,0.00,VWS V14.01,2013-02-06 11:02:00,
2013-02-06 06:03:00,47.0,41.8,30.21,NE,46,0.0,1.0,82,0.00,,---,0.00,VWS V14.01,2013-02-06 11:03:00,
2013-02-06 06:04:00,47.0,41.8,30.21,NE,46,0.0,1.0,82,0.00,,---,0.00,VWS V14.01,2013-02-06 11:04:00,
2013-02-06 06:05:00,47.0,41.8,30.20,NE,46,0.0,1.0,82,0.00,,---,0.00,VWS V14.01,2013-02-06 11:05:00,
2013-02-06 06:06:00,47.0,41.8,30.20,NE,46,0.0,1.0,82,0.00,,---,0.00,VWS V14.01,2013-02-06 11:06:00,
2013-02-06 06:07:00,47.0,41.8,30.20,NE,46,0.0,1.0,82,0.00,,---,0.00,VWS V14.01,2013-02-06 11:07:00,
2013-02-06 06:08:00,47.0,41.8,30.20,NE,46,0.0,1.0,82,0.00,,---,0.00,VWS V14.01,2013-02-06 11:08:00,
2013-02-06 06:09:00,47.0,41.8,30.20,NE,46,0.0,1.0,82,0.00,,---,0.00,VWS V14.01,2013-02-06 11:09:00,
2013-02-06 06:10:00,46.9,41.7,30.20,NE,46,0.0,1.0,82,0.00,,---,0.00,VWS V14.01,2013-02-06 11:10:00,
2013-02-06 06:11:00,46.9,41.7,30.20,NE,46,0.0,1.0,82,0.00,,---,0.00,VWS V14.01,2013-02-06 11:11:00,
2013-02-06 06:12:00,46.8,41.6,30.20,NE,46,0.0,1.0,82,0.00,,---,0.00,VWS V14.01,2013-02-06 11:12:00,
2013-02-06 06:13:00,46.8,41.6,30.20,NE,46,0.0,1.0,82,0.00,,---,0.00,VWS V14.01,2013-02-06 11:13:00,
2013-02-06 06:14:00,46.8,41.6,30.20,NE,46,0.0,1.0,82,0.00,,---,0.00,VWS V14.01,2013-02-06 11:14:00,
2013-02-06 06:15:00,46.7,41.5,30.20,NE,46,0.0,1.0,82,0.00,,---,0.00,VWS V14.01,2013-02-06 11:15:00,
2013-02-06 06:16:00,46.7,41.5,30.20,NE,46,0.0,1.0,82,0.00,,---,0.00,VWS V14.01,2013-02-06 11:16:00,
2013-02-06 06:17:00,46.6,41.4,30.20,NE,46,0.0,1.0,82,0.00,,---,0.00,VWS V14.01,2013-02-06 11:17:00,
2013-02-06 06:18:00,46.6,41.4,30.20,NE,46,0.0,1.0,82,0.00,,---,0.00,VWS V14.01,2013-02-06 11:18:00,
2013-02-06 06:19:00,46.6,41.4,30.20,NE,46,0.0,1.0,82,0.00,,---,0.00,VWS V14.01,2013-02-06 11:19:00,
2013-02-06 06:20:00,46.5,41.3,30.20,NE,46,0.0,1.0,82,0.00,,---,0.00,VWS V14.01,2013-02-06 11:20:00,
2013-02-06 06:21:00,46.5,41.6,30.20,NE,46,0.0,1.0,83,0.00,,---,0.00,VWS V14.01,2013-02-06 11:21:00,
2013-02-06 06:22:00,46.4,41.5,30.20,NE,46,0.0,1.0,83,0.00,,---,0.00,VWS V14.01,2013-02-06 11:22:00,
2013-02-06 06:23:00,46.4,41.5,30.20,NE,46,0.0,1.0,83,0.00,,---,0.00,VWS V14.01,2013-02-06 11:23:00,
2013-02-06 06:24:00,46.3,41.4,30.20,NE,46,0.0,1.0,83,0.00,,---,0.00,VWS V14.01,2013-02-06 11:24:00,
2013-02-06 06:25:00,46.3,41.4,30.20,NE,46,0.0,1.0,83,0.00,,---,0.00,VWS V14.01,2013-02-06 11:25:00,
2013-02-06 06:26:00,46.2,41.3,30.20,NE,46,0.0,1.0,83,0.00,,---,0.00,VWS V14.01,2013-02-06 11:26:00,
2013-02-06 06:27:00,46.1,41.2,30.20,NE,46,0.0,1.0,83,0.00,,---,0.00,VWS V14.01,2013-02-06 11:27:00,
2013-02-06 06:28:00,46.1,41.2,30.20,NE,46,0.0,1.0,83,0.00,,---,0.00,VWS V14.01,2013-02-06 11:28:00,
2013-02-06 06:29:00,46.0,41.1,30.20,NE,46,0.0,1.0,83,0.00,,---,0.00,VWS V14.01,2013-02-06 11:29:00,
2013-02-06 06:30:00,46.0,41.1,30.20,NE,46,0.0,1.0,83,0.00,,---,0.00,VWS V14.01,2013-02-06 11:30:00,
2013-02-06 06:31:00,45.9,41.3,30.19,NE,46,0.0,0.0,84,0.00,,---,0.00,VWS V14.01,2013-02-06 11:31:00,
2013-02-06 06:32:00,45.9,41.3,30.19,NE,46,0.0,0.0,84,0.00,,---,0.00,VWS V14.01,2013-02-06 11:32:00,
2013-02-06 06:33:00,45.9,41.3,30.20,NE,46,0.0,0.0,84,0.00,,---,0.00,VWS V14.01,2013-02-06 11:33:00,
2013-02-06 06:34:00,45.9,41.3,30.20,NE,46,0.0,0.0,84,0.00,,---,0.00,VWS V14.01,2013-02-06 11:34:00,
2013-02-06 06:35:00,45.8,41.2,30.19,NE,46,0.0,0.0,84,0.00,,---,0.00,VWS V14.01,2013-02-06 11:35:00,
2013-02-06 06:36:00,45.8,41.2,30.19,NE,46,0.0,0.0,84,0.00,,---,0.00,VWS V14.01,2013-02-06 11:36:00,
2013-02-06 06:37:00,45.8,41.2,30.19,NE,46,0.0,0.0,84,0.00,,---,0.00,VWS V14.01,2013-02-06 11:37:00,
2013-02-06 06:38:00,45.7,41.2,30.19,NE,46,0.0,0.0,84,0.00,,---,0.00,VWS V14.01,2013-02-06 11:38:00,
2013-02-06 06:39:00,45.7,41.2,30.19,NE,46,0.0,0.0,84,0.00,,---,0.00,VWS V14.01,2013-02-06 11:39:00,
2013-02-06 06:40:00,45.6,41.0,30.19,NE,46,0.0,0.0,84,0.00,,---,0.00,VWS V14.01,2013-02-06 11:40:00,
2013-02-06 06:41:00,45.6,41.0,30.19,NE,46,0.0,0.0,84,0.00,,---,0.00,VWS V14.01,2013-02-06 11:41:00,
2013-02-06 06:42:00,45.5,41.3,30.19,NE,46,0.0,0.0,85,0.00,,---,0.00,VWS V14.01,2013-02-06 11:42:00,
2013-02-06 06:43:00,45.5,41.3,30.19,NE,46,0.0,0.0,85,0.00,,---,0.00,VWS V14.01,2013-02-06 11:43:00,
2013-02-06 06:44:00,45.4,41.2,30.19,NE,46,0.0,0.0,85,0.00,,---,0.00,VWS V14.01,2013-02-06 11:44:00,
2013-02-06 06:45:00,45.4,41.2,30.19,NE,46,0.0,0.0,85,0.00,,---,0.00,VWS V14.01,2013-02-06 11:45:00,
2013-02-06 06:46:00,45.4,41.2,30.19,NE,46,0.0,0.0,85,0.00,,---,0.00,VWS V14.01,2013-02-06 11:46:00,
2013-02-06 06:47:00,45.3,41.1,30.19,NE,46,0.0,0.0,85,0.00,,---,0.00,VWS V14.01,2013-02-06 11:47:00,
2013-02-06 06:48:00,45.3,41.1,30.19,NE,46,0.0,0.0,85,0.00,,---,0.00,VWS V14.01,2013-02-06 11:48:00,
2013-02-06 06:49:00,45.3,41.1,30.19,NE,46,0.0,0.0,85,0.00,,---,0.00,VWS V14.01,2013-02-06 11:49:00,
2013-02-06 06:50:00,45.3,41.1,30.19,NE,46,0.0,0.0,85,0.00,,---,0.00,VWS V14.01,2013-02-06 11:50:00,
2013-02-06 06:51:00,45.2,41.3,30.19,NE,46,0.0,0.0,86,0.00,,---,0.00,VWS V14.01,2013-02-06 11:51:00,
2013-02-06 06:52:00,45.2,41.3,30.19,NE,46,0.0,0.0,86,0.00,,---,0.00,VWS V14.01,2013-02-06 11:52:00,
2013-02-06 06:53:00,45.2,41.3,30.19,NE,46,0.0,0.0,86,0.00,,---,0.00,VWS V14.01,2013-02-06 11:53:00,
2013-02-06 06:54:00,45.2,41.3,30.19,NE,46,0.0,0.0,86,0.00,,---,0.00,VWS V14.01,2013-02-06 11:54:00,
2013-02-06 06:55:00,45.2,41.3,30.19,NE,46,0.0,0.0,86,0.00,,---,0.00,VWS V14.01,2013-02-06 11:55:00,
2013-02-06 06:56:00,45.2,41.3,30.19,NE,46,0.0,0.0,86,0.00,,---,0.00,VWS V14.01,2013-02-06 11:56:00,
2013-02-06 06:57:00,45.2,41.3,30.19,NE,46,0.0,0.0,86,0.00,,---,0.00,VWS V14.01,2013-02-06 11:57:00,
2013-02-06 06:58:00,45.2,41.3,30.19,NE,46,0.0,0.0,86,0.00,,---,0.00,VWS V14.01,2013-02-06 11:58:00,
2013-02-06 06:59:00,45.3,41.4,30.19,NE,46,0.0,0.0,86,0.00,,---,0.00,VWS V14.01,2013-02-06 11:59:00,
2013-02-06 07:00:00,45.3,41.4,30.19,NE,46,0.0,0.0,86,0.00,,---,0.00,VWS V14.01,2013-02-06 12:00:00,
2013-02-06 07:01:00,45.3,41.4,30.19,NE,46,0.0,0.0,86,0.00,,---,0.00,VWS V14.01,2013-02-06 12:01:00,
2013-02-06 07:02:00,45.4,41.8,30.19,NE,46,0.0,0.0,87,0.00,,---,0.00,VWS V14.01,2013-02-06 12:02:00,
2013-02-06 07:03:00,45.4,41.8,30.19,NE,46,0.0,0.0,87,0.00,,---,0.00,VWS V14.01,2013-02-06 12:03:00,
2013-02-06 07:04:00,45.4,41.8,30.19,NE,46,0.0,0.0,87,0.00,,---,0.00,VWS V14.01,2013-02-06 12:04:00,
2013-02-06 07:05:00,45.4,41.8,30.19,NE,46,0.0,0.0,87,0.00,,---,0.00,VWS V14.01,2013-02-06 12:05:00,
2013-02-06 07:06:00,45.4,41.8,30.19,NE,46,0.0,0.0,87,0.00,,---,0.00,VWS V14.01,2013-02-06 12:06:00,
2013-02-06 07:07:00,45.4,41.5,30.19,NE,46,0.0,0.0,86,0.00,,---,0.00,VWS V14.01,2013-02-06 12:07:00,
2013-02-06 07:08:00,45.4,41.5,30.19,NE,46,0.0,0.0,86,0.00,,---,0.00,VWS V14.01,2013-02-06 12:08:00,
2013-02-06 07:09:00,45.4,41.5,30.19,NE,46,0.0,0.0,86,0.00,,---,0.00,VWS V14.01,2013-02-06 12:09:00,
2013-02-06 07:10:00,45.4,41.5,30.19,NE,46,0.0,0.0,86,0.00,,---,0.00,VWS V14.01,2013-02-06 12:10:00,
2013-02-06 07:11:00,45.4,41.5,30.19,NE,46,0.0,0.0,86,0.00,,---,0.00,VWS V14.01,2013-02-06 12:11:00,
2013-02-06 07:12:00,45.3,41.4,30.19,NE,46,0.0,0.0,86,0.00,,---,0.00,VWS V14.01,2013-02-06 12:12:00,
2013-02-06 07:13:00,45.3,41.4,30.19,NE,46,0.0,0.0,86,0.00,,---,0.00,VWS V14.01,2013-02-06 12:13:00,
2013-02-06 07:14:00,45.3,41.4,30.19,NE,46,0.0,0.0,86,0.00,,---,0.00,VWS V14.01,2013-02-06 12:14:00,
2013-02-06 07:15:00,45.3,41.4,30.19,NE,46,0.0,0.0,86,0.00,,---,0.00,VWS V14.01,2013-02-06 12:15:00,
2013-02-06 07:16:00,45.3,41.4,30.19,NE,46,0.0,0.0,86,0.00,,---,0.00,VWS V14.01,2013-02-06 12:16:00,
2013-02-06 07:17:00,45.3,41.4,30.19,NE,46,0.0,0.0,86,0.00,,---,0.00,VWS V14.01,2013-02-06 12:17:00,
2013-02-06 07:18:00,45.3,41.4,30.19,NE,46,0.0,0.0,86,0.00,,---,0.00,VWS V14.01,2013-02-06 12:18:00,
2013-02-06 07:19:00,45.4,41.5,30.19,NE,46,0.0,0.0,86,0.00,,---,0.00,VWS V14.01,2013-02-06 12:19:00,
2013-02-06 07:20:00,45.3,41.4,30.19,NE,46,0.0,0.0,86,0.00,,---,0.00,VWS V14.01,2013-02-06 12:20:00,
2013-02-06 07:21:00,45.4,41.8,30.19,NE,46,0.0,0.0,87,0.00,,---,0.00,VWS V14.01,2013-02-06 12:21:00,
2013-02-06 07:22:00,45.4,41.8,30.19,NE,46,0.0,0.0,87,0.00,,---,0.00,VWS V14.01,2013-02-06 12:22:00,
2013-02-06 07:23:00,45.4,41.8,30.19,NE,46,0.0,0.0,87,0.00,,---,0.00,VWS V14.01,2013-02-06 12:23:00,
2013-02-06 07:24:00,45.3,41.4,30.19,NE,46,0.0,0.0,86,0.00,,---,0.00,VWS V14.01,2013-02-06 12:24:00,
2013-02-06 07:25:00,45.3,41.4,30.19,NE,46,0.0,0.0,86,0.00,,---,0.00,VWS V14.01,2013-02-06 12:25:00,
2013-02-06 07:26:00,45.3,41.4,30.19,NE,46,0.0,0.0,86,0.00,,---,0.00,VWS V14.01,2013-02-06 12:26:00,
2013-02-06 07:27:00,45.2,41.3,30.19,NE,46,0.0,0.0,86,0.00,,---,0.00,VWS V14.01,2013-02-06 12:27:00,
2013-02-06 07:28:00,45.2,41.3,30.19,NE,46,0.0,0.0,86,0.00,,---,0.00,VWS V14.01,2013-02-06 12:28:00,
2013-02-06 07:29:00,45.1,41.2,30.18,NE,46,0.0,0.0,86,0.00,,---,0.00,VWS V14.01,2013-02-06 12:29:00,
2013-02-06 07:30:00,45.1,41.2,30.18,NE,46,0.0,0.0,86,0.00,,---,0.00,VWS V14.01,2013-02-06 12:30:00,
2013-02-06 07:31:00,45.1,41.2,30.18,NE,46,0.0,0.0,86,0.00,,---,0.00,VWS V14.01,2013-02-06 12:31:00,
2013-02-06 07:32:00,45.1,41.2,30.18,NE,46,0.0,0.0,86,0.00,,---,0.00,VWS V14.01,2013-02-06 12:32:00,
2013-02-06 07:33:00,45.0,41.1,30.18,NE,46,0.0,0.0,86,0.00,,---,0.00,VWS V14.01,2013-02-06 12:33:00,
2013-02-06 07:34:00,45.0,41.1,30.18,NE,46,0.0,0.0,86,0.00,,---,0.00,VWS V14.01,2013-02-06 12:34:00,
2013-02-06 07:35:00,45.0,41.4,30.18,NE,46,0.0,0.0,87,0.00,,---,0.00,VWS V14.01,2013-02-06 12:35:00,
2013-02-06 07:36:00,45.0,41.4,30.18,NE,46,0.0,0.0,87,0.00,,---,0.00,VWS V14.01,2013-02-06 12:36:00,
2013-02-06 07:37:00,45.0,41.4,30.18,NE,46,0.0,0.0,87,0.00,,---,0.00,VWS V14.01,2013-02-06 12:37:00,
2013-02-06 07:38:00,44.9,41.3,30.18,NE,46,0.0,0.0,87,0.00,,---,0.00,VWS V14.01,2013-02-06 12:38:00,
2013-02-06 07:39:00,44.9,41.3,30.18,NE,46,0.0,0.0,87,0.00,,---,0.00,VWS V14.01,2013-02-06 12:39:00,
2013-02-06 07:40:00,44.9,41.3,30.18,NE,46,0.0,0.0,87,0.00,,---,0.00,VWS V14.01,2013-02-06 12:40:00,
2013-02-06 07:41:00,44.9,41.3,30.18,NE,46,0.0,0.0,87,0.00,,---,0.00,VWS V14.01,2013-02-06 12:41:00,
2013-02-06 07:42:00,44.9,41.3,30.18,NE,46,0.0,0.0,87,0.00,,---,0.00,VWS V14.01,2013-02-06 12:42:00,
2013-02-06 07:43:00,44.9,41.3,30.18,NE,46,0.0,0.0,87,0.00,,---,0.00,VWS V14.01,2013-02-06 12:43:00,
2013-02-06 07:44:00,44.9,41.3,30.18,NE,46,0.0,0.0,87,0.00,,---,0.00,VWS V14.01,2013-02-06 12:44:00,
2013-02-06 07:45:00,44.8,41.2,30.18,NE,46,0.0,0.0,87,0.00,,---,0.00,VWS V14.01,2013-02-06 12:45:00,
2013-02-06 07:46:00,44.8,41.2,30.18,NE,46,0.0,0.0,87,0.00,,---,0.00,VWS V14.01,2013-02-06 12:46:00,
2013-02-06 07:47:00,44.8,41.2,30.18,NE,46,0.0,0.0,87,0.00,,---,0.00,VWS V14.01,2013-02-06 12:47:00,
2013-02-06 07:48:00,44.8,41.2,30.18,NE,46,0.0,0.0,87,0.00,,---,0.00,VWS V14.01,2013-02-06 12:48:00,
2013-02-06 07:49:00,44.8,41.2,30.18,NE,46,0.0,0.0,87,0.00,,---,0.00,VWS V14.01,2013-02-06 12:49:00,
2013-02-06 07:50:00,44.8,41.2,30.18,NE,46,0.0,0.0,87,0.00,,---,0.00,VWS V14.01,2013-02-06 12:50:00,
2013-02-06 07:51:00,44.8,41.2,30.18,NE,46,0.0,0.0,87,0.00,,---,0.00,VWS V14.01,2013-02-06 12:51:00,
2013-02-06 07:52:00,44.8,41.2,30.18,NE,46,0.0,0.0,87,0.00,,---,0.00,VWS V14.01,2013-02-06 12:52:00,
2013-02-06 07:53:00,44.8,41.2,30.18,NE,46,0.0,0.0,87,0.00,,---,0.00,VWS V14.01,2013-02-06 12:53:00,
2013-02-06 07:54:00,44.8,41.5,30.18,NE,46,0.0,0.0,88,0.00,,---,0.00,VWS V14.01,2013-02-06 12:54:00,
2013-02-06 07:55:00,44.8,41.5,30.18,NE,46,0.0,0.0,88,0.00,,---,0.00,VWS V14.01,2013-02-06 12:55:00,
2013-02-06 07:56:00,44.8,41.5,30.18,NE,46,0.0,0.0,88,0.00,,---,0.00,VWS V14.01,2013-02-06 12:56:00,
2013-02-06 07:57:00,44.7,41.4,30.18,NE,46,0.0,0.0,88,0.00,,---,0.00,VWS V14.01,2013-02-06 12:57:00,
2013-02-06 07:58:00,44.7,41.1,30.19,NE,46,0.0,0.0,87,0.00,,---,0.00,VWS V14.01,2013-02-06 12:58:00,
2013-02-06 07:59:00,44.7,41.1,30.18,NE,46,0.0,0.0,87,0.00,,---,0.00,VWS V14.01,2013-02-06 12:59:00,
2013-02-06 08:00:00,44.7,41.1,30.18,NE,46,0.0,0.0,87,0.00,,---,0.00,VWS V14.01,2013-02-06 13:00:00,
2013-02-06 08:01:00,44.7,41.1,30.18,NE,46,0.0,0.0,87,0.00,,---,0.00,VWS V14.01,2013-02-06 13:01:00,
2013-02-06 08:02:00,44.6,41.0,30.18,NE,46,0.0,0.0,87,0.00,,---,0.00,VWS V14.01,2013-02-06 13:02:00,
2013-02-06 08:03:00,44.6,41.0,30.18,NE,46,0.0,0.0,87,0.00,,---,0.00,VWS V14.01,2013-02-06 13:03:00,
2013-02-06 08:04:00,44.6,41.0,30.18,NE,46,0.0,0.0,87,0.00,,---,0.00,VWS V14.01,2013-02-06 13:04:00,
2013-02-06 08:05:00,44.6,41.3,30.18,NE,46,0.0,0.0,88,0.00,,---,0.00,VWS V14.01,2013-02-06 13:05:00,
2013-02-06 08:06:00,44.6,41.3,30.18,NE,46,0.0,1.0,88,0.00,,---,0.00,VWS V14.01,2013-02-06 13:06:00,
2013-02-06 08:07:00,44.7,41.4,30.18,NE,48,0.0,2.0,88,0.00,,---,0.00,VWS V14.01,2013-02-06 13:07:00,
2013-02-06 08:08:00,44.9,41.9,30.18,NE,48,0.0,2.0,89,0.00,,---,0.00,VWS V14.01,2013-02-06 13:08:00,
2013-02-06 08:09:00,45.0,42.2,30.18,NE,48,0.0,2.0,90,0.00,,---,0.00,VWS V14.01,2013-02-06 13:09:00,
2013-02-06 08:10:00,45.1,42.3,30.18,NE,48,0.0,2.0,90,0.00,,---,0.00,VWS V14.01,2013-02-06 13:10:00,
2013-02-06 08:11:00,45.1,42.3,30.18,NE,48,0.0,2.0,90,0.00,,---,0.00,VWS V14.01,2013-02-06 13:11:00,
2013-02-06 08:12:00,45.2,42.2,30.18,NE,53,0.0,2.0,89,0.00,,---,0.00,VWS V14.01,2013-02-06 13:12:00,
2013-02-06 08:13:00,45.2,42.5,30.18,NE,53,0.0,2.0,90,0.00,,---,0.00,VWS V14.01,2013-02-06 13:13:00,
2013-02-06 08:14:00,45.2,42.5,30.18,NE,53,0.0,2.0,90,0.00,,---,0.00,VWS V14.01,2013-02-06 13:14:00,
2013-02-06 08:15:00,45.4,42.6,30.18,NE,53,0.0,2.0,90,0.00,,---,0.00,VWS V14.01,2013-02-06 13:15:00,
2013-02-06 08:16:00,45.4,42.6,30.18,NE,53,0.0,2.0,90,0.00,,---,0.00,VWS V14.01,2013-02-06 13:16:00,
2013-02-06 08:17:00,45.4,42.6,30.18,NE,53,0.0,2.0,90,0.00,,---,0.00,VWS V14.01,2013-02-06 13:17:00,
2013-02-06 08:18:00,45.4,42.6,30.18,NE,53,0.0,2.0,90,0.00,,---,0.00,VWS V14.01,2013-02-06 13:18:00,
2013-02-06 08:19:00,45.4,42.6,30.18,NE,53,0.0,2.0,90,0.00,,---,0.00,VWS V14.01,2013-02-06 13:19:00,
2013-02-06 08:20:00,45.5,42.7,30.18,NE,53,0.0,2.0,90,0.00,,---,0.00,VWS V14.01,2013-02-06 13:20:00,
2013-02-06 08:21:00,45.5,42.7,30.18,ESE,103,0.0,2.0,90,0.00,,---,0.00,VWS V14.01,2013-02-06 13:21:00,
2013-02-06 08:22:00,45.6,42.8,30.18,ESE,103,0.0,2.0,90,0.00,,---,0.00,VWS V14.01,2013-02-06 13:22:00,
2013-02-06 08:23:00,45.6,42.8,30.18,ESE,103,0.0,2.0,90,0.00,,---,0.00,VWS V14.01,2013-02-06 13:23:00,
2013-02-06 08:24:00,45.6,42.8,30.18,ESE,103,0.0,2.0,90,0.00,,---,0.00,VWS V14.01,2013-02-06 13:24:00,
2013-02-06 08:25:00,45.6,42.8,30.18,ESE,103,0.0,2.0,90,0.00,,---,0.00,VWS V14.01,2013-02-06 13:25:00,
2013-02-06 08:26:00,45.5,42.7,30.18,ESE,103,0.0,2.0,90,0.00,,---,0.00,VWS V14.01,2013-02-06 13:26:00,
2013-02-06 08:27:00,45.5,42.7,30.18,ESE,103,0.0,2.0,90,0.00,,---,0.00,VWS V14.01,2013-02-06 13:27:00,
2013-02-06 08:28:00,45.4,42.6,30.18,ESE,103,0.0,2.0,90,0.00,,---,0.00,VWS V14.01,2013-02-06 13:28:00,
2013-02-06 08:29:00,45.4,42.6,30.18,ESE,103,0.0,2.0,90,0.00,,---,0.00,VWS V14.01,2013-02-06 13:29:00,
2013-02-06 08:30:00,45.5,42.7,30.18,ESE,114,0.0,2.0,90,0.00,,---,0.00,VWS V14.01,2013-02-06 13:30:00,
2013-02-06 08:31:00,45.5,42.7,30.18,ESE,114,0.0,0.0,90,0.00,,---,0.00,VWS V14.01,2013-02-06 13:31:00,
2013-02-06 08:32:00,45.5,42.7,30.18,ESE,114,0.0,0.0,90,0.00,,---,0.00,VWS V14.01,2013-02-06 13:32:00,
2013-02-06 08:33:00,45.6,42.8,30.18,ESE,114,0.0,1.0,90,0.00,,---,0.00,VWS V14.01,2013-02-06 13:33:00,
2013-02-06 08:34:00,45.7,43.2,30.18,ESE,114,0.0,1.0,91,0.00,,---,0.00,VWS V14.01,2013-02-06 13:34:00,
2013-02-06 08:35:00,45.8,43.3,30.18,ESE,114,0.0,1.0,91,0.00,,---,0.00,VWS V14.01,2013-02-06 13:35:00,
2013-02-06 08:36:00,45.8,43.3,30.18,ESE,114,0.0,1.0,91,0.00,,---,0.00,VWS V14.01,2013-02-06 13:36:00,
2013-02-06 08:37:00,45.9,43.4,30.18,ESE,114,0.0,1.0,91,0.00,,---,0.00,VWS V14.01,2013-02-06 13:37:00,
2013-02-06 08:38:00,45.9,43.4,30.19,ESE,114,0.0,1.0,91,0.00,,---,0.00,VWS V14.01,2013-02-06 13:38:00,
2013-02-06 08:39:00,45.9,43.4,30.18,ESE,114,0.0,1.0,91,0.00,,---,0.00,VWS V14.01,2013-02-06 13:39:00,
2013-02-06 08:40:00,45.8,43.0,30.18,ESE,114,0.0,1.0,90,0.00,,---,0.00,VWS V14.01,2013-02-06 13:40:00,
2013-02-06 08:41:00,45.8,43.0,30.19,ESE,114,0.0,1.0,90,0.00,,---,0.00,VWS V14.01,2013-02-06 13:41:00,
2013-02-06 08:42:00,45.8,43.0,30.19,ESE,114,0.0,1.0,90,0.00,,---,0.00,VWS V14.01,2013-02-06 13:42:00,
2013-02-06 08:43:00,45.9,43.4,30.19,ESE,114,0.0,1.0,91,0.00,,---,0.00,VWS V14.01,2013-02-06 13:43:00,
2013-02-06 08:44:00,45.9,43.4,30.18,ESE,114,0.0,1.0,91,0.00,,---,0.00,VWS V14.01,2013-02-06 13:44:00,
2013-02-06 08:45:00,45.9,43.4,30.18,ESE,114,0.0,1.0,91,0.00,,---,0.00,VWS V14.01,2013-02-06 13:45:00,
2013-02-06 08:46:00,46.0,43.5,30.18,ESE,114,0.0,1.0,91,0.00,,---,0.00,VWS V14.01,2013-02-06 13:46:00,
2013-02-06 08:47:00,46.1,43.6,30.19,ESE,114,0.0,2.0,91,0.00,,---,0.00,VWS V14.01,2013-02-06 13:47:00,
2013-02-06 08:48:00,46.1,43.6,30.18,ESE,114,0.0,2.0,91,0.00,,---,0.00,VWS V14.01,2013-02-06 13:48:00,
2013-02-06 08:49:00,46.1,43.6,30.19,South,174,0.0,2.0,91,0.00,,---,0.00,VWS V14.01,2013-02-06 13:49:00,
2013-02-06 08:50:00,46.2,43.7,30.18,South,175,0.0,2.0,91,0.00,,---,0.00,VWS V14.01,2013-02-06 13:50:00,
2013-02-06 08:51:00,46.3,43.8,30.18,South,175,0.0,2.0,91,0.00,,---,0.00,VWS V14.01,2013-02-06 13:51:00,
2013-02-06 08:52:00,46.3,43.8,30.19,South,175,0.0,2.0,91,0.00,,---,0.00,VWS V14.01,2013-02-06 13:52:00,
2013-02-06 08:53:00,46.3,43.8,30.19,South,175,0.0,2.0,91,0.00,,---,0.00,VWS V14.01,2013-02-06 13:53:00,
2013-02-06 08:54:00,46.3,43.8,30.19,South,175,0.0,2.0,91,0.00,,---,0.00,VWS V14.01,2013-02-06 13:54:00,
2013-02-06 08:55:00,46.3,43.8,30.19,South,175,0.0,2.0,91,0.00,,---,0.00,VWS V14.01,2013-02-06 13:55:00,
2013-02-06 08:56:00,46.3,43.8,30.19,South,175,0.0,2.0,91,0.00,,---,0.00,VWS V14.01,2013-02-06 13:56:00,
2013-02-06 08:57:00,46.4,43.9,30.19,South,176,1.0,2.0,91,0.00,,---,0.00,VWS V14.01,2013-02-06 13:57:00,
2013-02-06 08:58:00,46.3,43.8,30.19,South,176,1.0,2.0,91,0.00,,---,0.00,VWS V14.01,2013-02-06 13:58:00,
2013-02-06 08:59:00,46.4,43.9,30.19,South,181,0.0,4.0,91,0.00,,---,0.00,VWS V14.01,2013-02-06 13:59:00,
2013-02-06 09:00:00,46.4,43.9,30.19,South,181,0.0,4.0,91,0.00,,---,0.00,VWS V14.01,2013-02-06 14:00:00,
2013-02-06 09:01:00,46.4,43.9,30.19,South,184,0.0,3.0,91,0.00,,---,0.00,VWS V14.01,2013-02-06 14:01:00,
2013-02-06 09:02:00,46.4,43.9,30.19,South,184,0.0,3.0,91,0.00,,---,0.00,VWS V14.01,2013-02-06 14:02:00,
2013-02-06 09:03:00,46.4,43.9,30.19,South,184,0.0,3.0,91,0.00,,---,0.00,VWS V14.01,2013-02-06 14:03:00,
2013-02-06 09:04:00,46.4,43.9,30.19,South,184,0.0,3.0,91,0.00,,---,0.00,VWS V14.01,2013-02-06 14:04:00,
2013-02-06 09:05:00,46.4,43.9,30.19,South,184,0.0,3.0,91,0.00,,---,0.00,VWS V14.01,2013-02-06 14:05:00,
2013-02-06 09:06:00,46.5,44.0,30.19,South,184,1.0,3.0,91,0.00,,---,0.00,VWS V14.01,2013-02-06 14:06:00,
2013-02-06 09:07:00,46.4,43.9,30.19,South,184,0.0,3.0,91,0.00,,---,0.00,VWS V14.01,2013-02-06 14:07:00,
2013-02-06 09:08:00,46.5,44.0,30.19,South,184,0.0,3.0,91,0.00,,---,0.00,VWS V14.01,2013-02-06 14:08:00,
2013-02-06 09:09:00,46.5,44.0,30.19,South,184,1.0,3.0,91,0.00,,---,0.00,VWS V14.01,2013-02-06 14:09:00,
2013-02-06 09:10:00,46.5,44.0,30.19,South,184,0.0,3.0,91,0.00,,---,0.00,VWS V14.01,2013-02-06 14:10:00,
2013-02-06 09:11:00,46.5,44.0,30.19,South,184,0.0,3.0,91,0.00,,---,0.00,VWS V14.01,2013-02-06 14:11:00,
2013-02-06 09:12:00,46.5,44.0,30.19,South,184,0.0,3.0,91,0.00,,---,0.00,VWS V14.01,2013-02-06 14:12:00,
2013-02-06 09:13:00,46.5,44.0,30.19,South,174,0.0,3.0,91,0.00,,---,0.00,VWS V14.01,2013-02-06 14:13:00,
2013-02-06 09:14:00,46.4,43.9,30.19,SSW,193,1.0,3.0,91,0.00,,---,0.00,VWS V14.01,2013-02-06 14:14:00,
2013-02-06 09:15:00,46.4,43.9,30.19,SSW,193,1.0,3.0,91,0.00,,---,0.00,VWS V14.01,2013-02-06 14:15:00,
2013-02-06 09:16:00,46.4,43.9,30.19,SSW,193,0.0,3.0,91,0.00,,---,0.00,VWS V14.01,2013-02-06 14:16:00,
2013-02-06 09:17:00,46.4,43.9,30.19,SSW,193,0.0,3.0,91,0.00,,---,0.00,VWS V14.01,2013-02-06 14:17:00,
2013-02-06 09:18:00,46.4,43.9,30.19,SSW,193,1.0,3.0,91,0.00,,---,0.00,VWS V14.01,2013-02-06 14:18:00,
2013-02-06 09:19:00,46.4,43.9,30.19,SSW,193,0.0,3.0,91,0.00,,---,0.00,VWS V14.01,2013-02-06 14:19:00,
2013-02-06 09:20:00,46.4,43.9,30.19,SSW,193,0.0,3.0,91,0.00,,---,0.00,VWS V14.01,2013-02-06 14:20:00,
2013-02-06 09:21:00,46.4,43.9,30.19,SSW,193,0.0,3.0,91,0.00,,---,0.00,VWS V14.01,2013-02-06 14:21:00,
2013-02-06 09:22:00,46.4,43.9,30.19,SSW,193,0.0,3.0,91,0.00,,---,0.00,VWS V14.01,2013-02-06 14:22:00,
2013-02-06 09:23:00,46.4,43.9,30.19,SSW,193,0.0,3.0,91,0.00,,---,0.00,VWS V14.01,2013-02-06 14:23:00,
2013-02-06 09:24:00,46.4,43.9,30.19,SSW,193,0.0,3.0,91,0.00,,---,0.00,VWS V14.01,2013-02-06 14:24:00,
2013-02-06 09:25:00,46.4,43.9,30.19,SSW,193,0.0,3.0,91,0.00,,---,0.00,VWS V14.01,2013-02-06 14:25:00,
2013-02-06 09:26:00,46.3,43.8,30.19,SSW,193,0.0,3.0,91,0.00,,---,0.00,VWS V14.01,2013-02-06 14:26:00,
2013-02-06 09:27:00,46.3,43.8,30.19,SSW,193,0.0,3.0,91,0.00,,---,0.00,VWS V14.01,2013-02-06 14:27:00,
2013-02-06 09:28:00,46.3,43.8,30.19,SSW,193,0.0,3.0,91,0.00,,---,0.00,VWS V14.01,2013-02-06 14:28:00,
2013-02-06 09:29:00,46.3,43.8,30.19,SSW,193,0.0,3.0,91,0.00,,---,0.00,VWS V14.01,2013-02-06 14:29:00,
2013-02-06 09:30:00,46.3,43.8,30.19,SSW,193,0.0,3.0,91,0.00,,---,0.00,VWS V14.01,2013-02-06 14:30:00,
2013-02-06 09:31:00,46.3,43.8,30.19,SSW,193,0.0,1.0,91,0.00,,---,0.00,VWS V14.01,2013-02-06 14:31:00,
2013-02-06 09:32:00,46.2,43.7,30.19,SSW,193,0.0,1.0,91,0.00,,---,0.00,VWS V14.01,2013-02-06 14:32:00,
2013-02-06 09:33:00,46.2,43.7,30.19,SSW,193,0.0,1.0,91,0.00,,---,0.00,VWS V14.01,2013-02-06 14:33:00,
2013-02-06 09:34:00,46.2,43.7,30.19,SSW,193,0.0,1.0,91,0.00,,---,0.00,VWS V14.01,2013-02-06 14:34:00,
2013-02-06 09:35:00,46.2,43.7,30.19,SSW,193,0.0,1.0,91,0.00,,---,0.00,VWS V14.01,2013-02-06 14:35:00,
2013-02-06 09:36:00,46.2,43.7,30.19,SSW,193,0.0,1.0,91,0.00,,---,0.00,VWS V14.01,2013-02-06 14:36:00,
2013-02-06 09:37:00,46.2,43.7,30.19,SSW,193,0.0,1.0,91,0.00,,---,0.00,VWS V14.01,2013-02-06 14:37:00,
2013-02-06 09:38:00,46.2,43.7,30.19,SSW,193,0.0,1.0,91,0.00,,---,0.00,VWS V14.01,2013-02-06 14:38:00,
2013-02-06 09:39:00,46.2,43.7,30.19,SSW,193,0.0,1.0,91,0.00,,---,0.00,VWS V14.01,2013-02-06 14:39:00,
2013-02-06 09:40:00,46.1,43.6,30.19,SSW,193,0.0,1.0,91,0.00,,---,0.00,VWS V14.01,2013-02-06 14:40:00,
2013-02-06 09:41:00,46.1,43.3,30.19,SSW,193,0.0,1.0,90,0.00,,---,0.00,VWS V14.01,2013-02-06 14:41:00,
2013-02-06 09:42:00,46.0,43.2,30.19,SSW,193,0.0,1.0,90,0.00,,---,0.00,VWS V14.01,2013-02-06 14:42:00,
2013-02-06 09:43:00,45.9,43.1,30.19,SSW,193,0.0,1.0,90,0.00,,---,0.00,VWS V14.01,2013-02-06 14:43:00,
2013-02-06 09:44:00,45.9,43.1,30.19,SSW,193,0.0,1.0,90,0.00,,---,0.00,VWS V14.01,2013-02-06 14:44:00,
2013-02-06 09:45:00,45.9,43.1,30.19,SSW,193,0.0,1.0,90,0.00,,---,0.00,VWS V14.01,2013-02-06 14:45:00,
2013-02-06 09:46:00,45.9,43.4,30.19,SSW,193,0.0,1.0,91,0.00,,---,0.00,VWS V14.01,2013-02-06 14:46:00,
2013-02-06 09:47:00,45.9,43.4,30.19,SSW,193,0.0,1.0,91,0.00,,---,0.00,VWS V14.01,2013-02-06 14:47:00,
2013-02-06 09:48:00,45.9,43.4,30.19,SSW,193,0.0,1.0,91,0.00,,---,0.00,VWS V14.01,2013-02-06 14:48:00,
2013-02-06 09:49:00,45.9,43.4,30.19,SSW,193,0.0,1.0,91,0.00,,---,0.00,VWS V14.01,2013-02-06 14:49:00,
2013-02-06 09:50:00,45.9,43.4,30.19,SSW,193,0.0,1.0,91,0.00,,---,0.00,VWS V14.01,2013-02-06 14:50:00,
2013-02-06 09:51:00,45.8,43.3,30.19,SSW,193,0.0,1.0,91,0.00,,---,0.00,VWS V14.01,2013-02-06 14:51:00,
2013-02-06 09:52:00,45.8,43.3,30.19,SSW,193,0.0,1.0,91,0.00,,---,0.00,VWS V14.01,2013-02-06 14:52:00,
2013-02-06 09:53:00,45.8,43.3,30.19,SSW,193,0.0,1.0,91,0.00,,---,0.00,VWS V14.01,2013-02-06 14:53:00,
2013-02-06 09:54:00,45.8,43.3,30.19,SSW,193,0.0,1.0,91,0.00,,---,0.00,VWS V14.01,2013-02-06 14:54:00,
2013-02-06 09:55:00,45.8,43.3,30.19,SSW,193,0.0,1.0,91,0.00,,---,0.00,VWS V14.01,2013-02-06 14:55:00,
2013-02-06 09:56:00,45.9,43.4,30.19,SSW,193,0.0,1.0,91,0.00,,---,0.00,VWS V14.01,2013-02-06 14:56:00,
2013-02-06 09:57:00,45.9,43.4,30.19,SSW,193,0.0,1.0,91,0.00,,---,0.00,VWS V14.01,2013-02-06 14:57:00,
2013-02-06 09:58:00,45.9,43.4,30.19,SSW,193,1.0,1.0,91,0.00,,---,0.00,VWS V14.01,2013-02-06 14:58:00,
2013-02-06 09:59:00,45.9,43.4,30.19,SSW,193,0.0,1.0,91,0.00,,---,0.00,VWS V14.01,2013-02-06 14:59:00,
2013-02-06 10:00:00,45.9,43.4,30.19,SSW,193,1.0,3.0,91,0.00,,---,0.00,VWS V14.01,2013-02-06 15:00:00,
2013-02-06 10:01:00,45.9,43.4,30.19,SSW,193,0.0,1.0,91,0.00,,---,0.00,VWS V14.01,2013-02-06 15:01:00,
2013-02-06 10:02:00,45.9,43.4,30.19,SSW,193,1.0,1.0,91,0.00,,---,0.00,VWS V14.01,2013-02-06 15:02:00,
2013-02-06 10:03:00,45.9,43.4,30.19,SSW,193,0.0,1.0,91,0.00,,---,0.00,VWS V14.01,2013-02-06 15:03:00,
2013-02-06 10:04:00,45.9,43.4,30.19,SSW,193,0.0,1.0,91,0.00,,---,0.00,VWS V14.01,2013-02-06 15:04:00,
2013-02-06 10:05:00,45.9,43.4,30.19,SSW,193,2.0,3.0,91,0.00,,---,0.00,VWS V14.01,2013-02-06 15:05:00,
2013-02-06 10:06:00,45.9,43.4,30.19,SSW,193,0.0,3.0,91,0.00,,---,0.00,VWS V14.01,2013-02-06 15:06:00,
2013-02-06 10:07:00,45.9,43.4,30.19,SSW,193,0.0,3.0,91,0.00,,---,0.00,VWS V14.01,2013-02-06 15:07:00,
2013-02-06 10:08:00,45.9,43.4,30.19,SSW,193,0.0,3.0,91,0.00,,---,0.00,VWS V14.01,2013-02-06 15:08:00,
2013-02-06 10:09:00,45.9,43.4,30.19,SSW,193,0.0,3.0,91,0.00,,---,0.00,VWS V14.01,2013-02-06 15:09:00,
2013-02-06 10:10:00,45.9,43.4,30.19,SSW,193,0.0,3.0,91,0.00,,---,0.00,VWS V14.01,2013-02-06 15:10:00,
2013-02-06 10:11:00,45.9,43.4,30.19,SSW,193,0.0,3.0,91,0.00,,---,0.00,VWS V14.01,2013-02-06 15:11:00,
2013-02-06 10:12:00,45.9,43.4,30.19,SSW,193,0.0,3.0,91,0.00,,---,0.00,VWS V14.01,2013-02-06 15:12:00,
2013-02-06 10:13:00,45.9,43.4,30.19,SSW,193,0.0,3.0,91,0.00,,---,0.00,VWS V14.01,2013-02-06 15:13:00,
2013-02-06 10:14:00,45.9,43.4,30.19,SSW,193,0.0,3.0,91,0.00,,---,0.00,VWS V14.01,2013-02-06 15:14:00,
2013-02-06 10:15:00,45.9,43.4,30.19,SSW,193,0.0,3.0,91,0.00,,---,0.00,VWS V14.01,2013-02-06 15:15:00,
2013-02-06 10:16:00,45.9,43.4,30.19,SSW,193,0.0,3.0,91,0.00,,---,0.00,VWS V14.01,2013-02-06 15:16:00,
2013-02-06 10:17:00,45.8,43.3,30.19,SSW,193,0.0,3.0,91,0.00,,---,0.00,VWS V14.01,2013-02-06 15:17:00,
2013-02-06 10:18:00,45.8,43.0,30.19,SSW,193,0.0,3.0,90,0.00,,---,0.00,VWS V14.01,2013-02-06 15:18:00,
2013-02-06 10:19:00,45.8,43.0,30.19,SSW,193,0.0,3.0,90,0.00,,---,0.00,VWS V14.01,2013-02-06 15:19:00,
2013-02-06 10:20:00,45.8,43.0,30.19,SSW,193,1.0,3.0,90,0.00,,---,0.00,VWS V14.01,2013-02-06 15:20:00,
2013-02-06 10:21:00,45.8,43.0,30.19,SSW,193,0.0,3.0,90,0.00,,---,0.00,VWS V14.01,2013-02-06 15:21:00,
2013-02-06 10:22:00,45.8,43.0,30.19,SSW,193,0.0,3.0,90,0.00,,---,0.00,VWS V14.01,2013-02-06 15:22:00,
2013-02-06 10:23:00,45.8,43.0,30.19,SSW,193,0.0,3.0,90,0.00,,---,0.00,VWS V14.01,2013-02-06 15:23:00,
2013-02-06 10:24:00,45.8,43.0,30.19,SSW,193,2.0,3.0,90,0.00,,---,0.00,VWS V14.01,2013-02-06 15:24:00,
2013-02-06 10:25:00,45.8,43.0,30.19,SSW,193,0.0,3.0,90,0.00,,---,0.00,VWS V14.01,2013-02-06 15:25:00,
2013-02-06 10:26:00,45.8,43.0,30.19,SSW,193,0.0,3.0,90,0.00,,---,0.00,VWS V14.01,2013-02-06 15:26:00,
2013-02-06 10:27:00,45.8,43.0,30.19,SSW,193,0.0,3.0,90,0.00,,---,0.00,VWS V14.01,2013-02-06 15:27:00,
2013-02-06 10:28:00,45.8,43.0,30.19,SSW,193,0.0,3.0,90,0.00,,---,0.00,VWS V14.01,2013-02-06 15:28:00,
2013-02-06 10:29:00,45.8,43.0,30.19,SSW,193,0.0,3.0,90,0.00,,---,0.00,VWS V14.01,2013-02-06 15:29:00,
2013-02-06 10:30:00,45.8,43.0,30.19,SSW,193,0.0,3.0,90,0.00,,---,0.00,VWS V14.01,2013-02-06 15:30:00,
2013-02-06 10:31:00,45.8,43.0,30.19,SSW,193,3.0,4.0,90,0.00,,---,0.00,VWS V14.01,2013-02-06 15:31:00,
2013-02-06 10:32:00,45.8,43.0,30.19,SSW,193,0.0,4.0,90,0.00,,---,0.00,VWS V14.01,2013-02-06 15:32:00,
2013-02-06 10:33:00,45.8,43.0,30.19,SSW,193,0.0,4.0,90,0.00,,---,0.00,VWS V14.01,2013-02-06 15:33:00,
2013-02-06 10:34:00,45.7,42.9,30.19,SSW,193,3.0,4.0,90,0.00,,---,0.00,VWS V14.01,2013-02-06 15:34:00,
2013-02-06 10:35:00,45.8,43.0,30.18,SSW,193,1.0,4.0,90,0.00,,---,0.00,VWS V14.01,2013-02-06 15:35:00,
2013-02-06 10:36:00,45.7,42.9,30.18,SSW,193,0.0,4.0,90,0.00,,---,0.00,VWS V14.01,2013-02-06 15:36:00,
2013-02-06 10:37:00,45.7,42.9,30.19,SSW,193,2.0,5.0,90,0.00,,---,0.00,VWS V14.01,2013-02-06 15:37:00,
2013-02-06 10:38:00,45.7,42.9,30.19,SSW,193,0.0,5.0,90,0.00,,---,0.00,VWS V14.01,2013-02-06 15:38:00,
2013-02-06 10:39:00,45.7,42.9,30.19,SSW,193,0.0,5.0,90,0.00,,---,0.00,VWS V14.01,2013-02-06 15:39:00,
2013-02-06 10:40:00,45.7,42.9,30.19,SSW,193,1.0,5.0,90,0.00,,---,0.00,VWS V14.01,2013-02-06 15:40:00,
2013-02-06 10:41:00,45.7,42.9,30.19,SSW,193,0.0,5.0,90,0.00,,---,0.00,VWS V14.01,2013-02-06 15:41:00,
2013-02-06 10:42:00,45.7,42.9,30.19,SSW,193,0.0,5.0,90,0.00,,---,0.00,VWS V14.01,2013-02-06 15:42:00,
2013-02-06 10:43:00,45.7,42.9,30.19,SSW,193,0.0,5.0,90,0.00,,---,0.00,VWS V14.01,2013-02-06 15:43:00,
2013-02-06 10:44:00,45.6,42.8,30.19,SSW,193,2.0,5.0,90,0.00,,---,0.00,VWS V14.01,2013-02-06 15:44:00,
2013-02-06 10:45:00,45.7,42.9,30.19,SSW,193,0.0,5.0,90,0.00,,---,0.00,VWS V14.01,2013-02-06 15:45:00,
2013-02-06 10:46:00,45.6,42.8,30.19,SSW,193,0.0,5.0,90,0.00,,---,0.00,VWS V14.01,2013-02-06 15:46:00,
2013-02-06 10:47:00,45.6,42.8,30.19,SSW,193,0.0,5.0,90,0.00,,---,0.00,VWS V14.01,2013-02-06 15:47:00,
2013-02-06 10:48:00,45.6,42.8,30.19,SSW,193,0.0,5.0,90,0.00,,---,0.00,VWS V14.01,2013-02-06 15:48:00,
2013-02-06 10:49:00,45.6,42.8,30.19,SSW,193,0.0,5.0,90,0.00,,---,0.00,VWS V14.01,2013-02-06 15:49:00,
2013-02-06 10:50:00,45.6,42.8,30.19,SSW,193,0.0,5.0,90,0.00,,---,0.00,VWS V14.01,2013-02-06 15:50:00,
2013-02-06 10:51:00,45.6,42.8,30.19,SSW,193,0.0,5.0,90,0.00,,---,0.00,VWS V14.01,2013-02-06 15:51:00,
2013-02-06 10:52:00,45.6,42.8,30.19,SSW,193,0.0,5.0,90,0.00,,---,0.00,VWS V14.01,2013-02-06 15:52:00,
2013-02-06 10:53:00,45.5,42.7,30.19,SSW,193,0.0,5.0,90,0.00,,---,0.00,VWS V14.01,2013-02-06 15:53:00,
2013-02-06 10:54:00,45.5,42.7,30.19,SSW,193,1.0,5.0,90,0.00,,---,0.00,VWS V14.01,2013-02-06 15:54:00,
2013-02-06 10:55:00,45.5,42.7,30.19,SSW,193,0.0,5.0,90,0.00,,---,0.00,VWS V14.01,2013-02-06 15:55:00,
2013-02-06 10:56:00,45.5,42.7,30.19,SSW,193,0.0,5.0,90,0.00,,---,0.00,VWS V14.01,2013-02-06 15:56:00,
2013-02-06 10:57:00,45.5,42.7,30.19,SSW,193,2.0,5.0,90,0.00,,---,0.00,VWS V14.01,2013-02-06 15:57:00,
2013-02-06 10:58:00,45.4,42.6,30.19,SSW,193,0.0,5.0,90,0.00,,---,0.00,VWS V14.01,2013-02-06 15:58:00,
2013-02-06 10:59:00,45.4,42.6,30.19,SSW,193,1.0,5.0,90,0.00,,---,0.00,VWS V14.01,2013-02-06 15:59:00,
2013-02-06 11:00:00,45.4,42.6,30.19,SSW,193,1.0,1.0,90,0.00,,---,0.00,VWS V14.01,2013-02-06 16:00:00,
2013-02-06 11:01:00,45.4,42.6,30.19,SSW,193,0.0,1.0,90,0.00,,---,0.00,VWS V14.01,2013-02-06 16:01:00,
2013-02-06 11:02:00,45.4,42.6,30.19,SSW,193,0.0,1.0,90,0.00,,---,0.00,VWS V14.01,2013-02-06 16:02:00,
2013-02-06 11:03:00,45.4,42.6,30.19,SSW,193,0.0,1.0,90,0.00,,---,0.00,VWS V14.01,2013-02-06 16:03:00,
2013-02-06 11:04:00,45.4,42.6,30.19,SSW,193,0.0,1.0,90,0.00,,---,0.00,VWS V14.01,2013-02-06 16:04:00,
2013-02-06 11:05:00,45.4,42.6,30.19,SSW,193,0.0,1.0,90,0.00,,---,0.00,VWS V14.01,2013-02-06 16:05:00,
2013-02-06 11:06:00,45.4,42.6,30.19,SSW,193,0.0,3.0,90,0.00,,---,0.00,VWS V14.01,2013-02-06 16:06:00,
2013-02-06 11:07:00,45.4,42.6,30.19,SSW,193,0.0,3.0,90,0.00,,---,0.00,VWS V14.01,2013-02-06 16:07:00,
2013-02-06 11:08:00,45.4,42.6,30.19,SSW,193,0.0,3.0,90,0.00,,---,0.00,VWS V14.01,2013-02-06 16:08:00,
2013-02-06 11:09:00,45.4,42.6,30.19,SSW,193,0.0,3.0,90,0.00,,---,0.00,VWS V14.01,2013-02-06 16:09:00,
2013-02-06 11:10:00,45.3,42.5,30.19,SSW,193,4.0,4.0,90,0.00,,---,0.00,VWS V14.01,2013-02-06 16:10:00,
2013-02-06 11:11:00,45.3,42.5,30.19,SSW,193,0.0,4.0,90,0.00,,---,0.00,VWS V14.01,2013-02-06 16:11:00,
2013-02-06 11:12:00,45.3,42.5,30.19,SSW,193,0.0,4.0,90,0.00,,---,0.00,VWS V14.01,2013-02-06 16:12:00,
2013-02-06 11:13:00,45.3,42.5,30.19,SSW,193,0.0,4.0,90,0.00,,---,0.00,VWS V14.01,2013-02-06 16:13:00,
2013-02-06 11:14:00,45.3,42.5,30.19,SSW,193,0.0,4.0,90,0.00,,---,0.00,VWS V14.01,2013-02-06 16:14:00,
2013-02-06 11:15:00,45.3,42.5,30.19,SSW,193,0.0,4.0,90,0.00,,---,0.00,VWS V14.01,2013-02-06 16:15:00,
2013-02-06 11:16:00,45.3,42.5,30.19,SSW,193,0.0,4.0,90,0.00,,---,0.00,VWS V14.01,2013-02-06 16:16:00,
2013-02-06 11:17:00,45.3,42.5,30.19,SSW,193,0.0,4.0,90,0.00,,---,0.00,VWS V14.01,2013-02-06 16:17:00,
2013-02-06 11:18:00,45.2,42.5,30.19,SSW,193,2.0,4.0,90,0.00,,---,0.00,VWS V14.01,2013-02-06 16:18:00,
2013-02-06 11:19:00,45.2,42.5,30.19,SSW,193,0.0,4.0,90,0.00,,---,0.00,VWS V14.01,2013-02-06 16:19:00,
2013-02-06 11:20:00,45.2,42.5,30.19,SSW,193,0.0,4.0,90,0.00,,---,0.00,VWS V14.01,2013-02-06 16:20:00,
2013-02-06 11:21:00,45.2,42.5,30.19,SSW,193,1.0,4.0,90,0.00,,---,0.00,VWS V14.01,2013-02-06 16:21:00,
2013-02-06 11:22:00,45.2,42.5,30.19,SSW,193,0.0,4.0,90,0.00,,---,0.00,VWS V14.01,2013-02-06 16:22:00,
2013-02-06 11:23:00,45.2,42.5,30.19,SSW,193,0.0,4.0,90,0.00,,---,0.00,VWS V14.01,2013-02-06 16:23:00,
2013-02-06 11:24:00,45.1,42.6,30.19,SSW,193,0.0,4.0,91,0.00,,---,0.00,VWS V14.01,2013-02-06 16:24:00,
2013-02-06 11:25:00,45.1,42.6,30.19,SSW,193,0.0,4.0,91,0.00,,---,0.00,VWS V14.01,2013-02-06 16:25:00,
2013-02-06 11:26:00,45.1,42.6,30.19,SSW,193,0.0,4.0,91,0.00,,---,0.00,VWS V14.01,2013-02-06 16:26:00,
2013-02-06 11:27:00,45.1,42.6,30.19,SSW,193,2.0,4.0,91,0.00,,---,0.00,VWS V14.01,2013-02-06 16:27:00,
2013-02-06 11:28:00,45.1,42.6,30.19,SSW,193,2.0,4.0,91,0.00,,---,0.00,VWS V14.01,2013-02-06 16:28:00,
2013-02-06 11:29:00,45.1,42.6,30.19,SSW,193,1.0,4.0,91,0.00,,---,0.00,VWS V14.01,2013-02-06 16:29:00,
2013-02-06 11:30:00,45.1,42.3,30.19,SSW,193,1.0,4.0,90,0.00,,---,0.00,VWS V14.01,2013-02-06 16:30:00,
2013-02-06 11:31:00,45.1,42.3,30.19,SSW,193,0.0,2.0,90,0.00,,---,0.00,VWS V14.01,2013-02-06 16:31:00,
2013-02-06 11:32:00,45.1,42.3,30.19,SSW,193,0.0,2.0,90,0.00,,---,0.00,VWS V14.01,2013-02-06 16:32:00,
2013-02-06 11:33:00,45.0,42.2,30.19,SSW,193,0.0,2.0,90,0.00,,---,0.00,VWS V14.01,2013-02-06 16:33:00,
2013-02-06 11:34:00,45.0,42.5,30.19,SSW,193,2.0,2.0,91,0.00,,---,0.00,VWS V14.01,2013-02-06 16:34:00,
2013-02-06 11:35:00,45.0,42.2,30.20,SSW,193,0.0,2.0,90,0.00,,---,0.00,VWS V14.01,2013-02-06 16:35:00,
2013-02-06 11:36:00,45.0,42.2,30.20,SSW,193,0.0,2.0,90,0.00,,---,0.00,VWS V14.01,2013-02-06 16:36:00,
2013-02-06 11:37:00,45.0,42.2,30.20,SSW,193,0.0,2.0,90,0.00,,---,0.00,VWS V14.01,2013-02-06 16:37:00,
2013-02-06 11:38:00,44.9,42.2,30.20,SSW,193,0.0,2.0,90,0.00,,---,0.00,VWS V14.01,2013-02-06 16:38:00,
2013-02-06 11:39:00,44.9,42.2,30.20,SSW,193,0.0,2.0,90,0.00,,---,0.00,VWS V14.01,2013-02-06 16:39:00,
2013-02-06 11:40:00,44.9,42.4,30.20,SSW,193,0.0,2.0,91,0.00,,---,0.00,VWS V14.01,2013-02-06 16:40:00,
2013-02-06 11:41:00,44.9,42.4,30.20,SSW,193,0.0,2.0,91,0.00,,---,0.00,VWS V14.01,2013-02-06 16:41:00,
2013-02-06 11:42:00,44.9,42.4,30.20,SSW,193,0.0,2.0,91,0.00,,---,0.00,VWS V14.01,2013-02-06 16:42:00,
2013-02-06 11:43:00,44.9,42.4,30.19,SSW,193,0.0,2.0,91,0.00,,---,0.00,VWS V14.01,2013-02-06 16:43:00,
2013-02-06 11:44:00,44.9,42.4,30.20,SSW,193,0.0,2.0,91,0.00,,---,0.00,VWS V14.01,2013-02-06 16:44:00,
2013-02-06 11:45:00,44.8,42.3,30.20,SSW,193,0.0,2.0,91,0.00,,---,0.00,VWS V14.01,2013-02-06 16:45:00,
2013-02-06 11:46:00,44.8,42.3,30.19,SSW,193,0.0,2.0,91,0.00,,---,0.00,VWS V14.01,2013-02-06 16:46:00,
2013-02-06 11:47:00,44.8,42.3,30.19,SSW,193,0.0,2.0,91,0.00,,---,0.00,VWS V14.01,2013-02-06 16:47:00,
2013-02-06 11:48:00,44.7,42.2,30.19,SSW,193,0.0,2.0,91,0.00,,---,0.00,VWS V14.01,2013-02-06 16:48:00,
2013-02-06 11:49:00,44.7,42.2,30.19,SSW,193,0.0,2.0,91,0.00,,---,0.00,VWS V14.01,2013-02-06 16:49:00,
2013-02-06 11:50:00,44.7,42.2,30.19,SSW,193,0.0,2.0,91,0.00,,---,0.00,VWS V14.01,2013-02-06 16:50:00,
2013-02-06 11:51:00,44.7,42.2,30.19,SSW,193,0.0,2.0,91,0.00,,---,0.00,VWS V14.01,2013-02-06 16:51:00,
2013-02-06 11:52:00,44.6,42.1,30.19,SSW,193,0.0,2.0,91,0.00,,---,0.00,VWS V14.01,2013-02-06 16:52:00,
2013-02-06 11:53:00,44.6,42.1,30.19,SSW,193,0.0,2.0,91,0.00,,---,0.00,VWS V14.01,2013-02-06 16:53:00,
2013-02-06 11:54:00,44.5,42.0,30.19,SSW,193,0.0,2.0,91,0.00,,---,0.00,VWS V14.01,2013-02-06 16:54:00,
2013-02-06 11:55:00,44.5,42.0,30.20,SSW,193,0.0,2.0,91,0.00,,---,0.00,VWS V14.01,2013-02-06 16:55:00,
2013-02-06 11:56:00,44.5,42.0,30.20,SSW,193,0.0,2.0,91,0.00,,---,0.00,VWS V14.01,2013-02-06 16:56:00,
2013-02-06 11:57:00,44.5,42.0,30.20,SSW,193,0.0,2.0,91,0.00,,---,0.00,VWS V14.01,2013-02-06 16:57:00,
2013-02-06 11:58:00,44.5,42.0,30.20,SSW,193,0.0,2.0,91,0.00,,---,0.00,VWS V14.01,2013-02-06 16:58:00,
2013-02-06 11:59:00,44.5,42.0,30.20,SSW,193,2.0,2.0,91,0.00,,---,0.00,VWS V14.01,2013-02-06 16:59:00,
2013-02-06 12:00:00,44.5,42.0,30.20,SSW,193,0.0,2.0,91,0.00,,---,0.00,VWS V14.01,2013-02-06 17:00:00,
2013-02-06 12:01:00,44.5,42.0,30.20,SSW,193,0.0,0.0,91,0.00,,---,0.00,VWS V14.01,2013-02-06 17:01:00,
2013-02-06 12:02:00,44.5,42.0,30.20,SSW,193,0.0,1.0,91,0.00,,---,0.00,VWS V14.01,2013-02-06 17:02:00,
2013-02-06 12:03:00,44.4,41.9,30.20,SSW,193,0.0,1.0,91,0.00,,---,0.00,VWS V14.01,2013-02-06 17:03:00,
2013-02-06 12:04:00,44.4,41.9,30.20,SSW,193,0.0,1.0,91,0.00,,---,0.00,VWS V14.01,2013-02-06 17:04:00,
2013-02-06 12:05:00,44.4,41.9,30.20,SSW,193,0.0,1.0,91,0.00,,---,0.00,VWS V14.01,2013-02-06 17:05:00,
2013-02-06 12:06:00,44.3,41.8,30.20,SSW,193,0.0,1.0,91,0.00,,---,0.00,VWS V14.01,2013-02-06 17:06:00,
2013-02-06 12:07:00,44.3,41.8,30.20,SSW,193,0.0,1.0,91,0.00,,---,0.00,VWS V14.01,2013-02-06 17:07:00,
2013-02-06 12:08:00,44.3,41.8,30.20,SSW,193,0.0,1.0,91,0.00,,---,0.00,VWS V14.01,2013-02-06 17:08:00,
2013-02-06 12:09:00,44.3,41.8,30.20,SSW,193,0.0,1.0,91,0.00,,---,0.00,VWS V14.01,2013-02-06 17:09:00,
2013-02-06 12:10:00,44.2,41.7,30.20,SSW,193,0.0,1.0,91,0.00,,---,0.00,VWS V14.01,2013-02-06 17:10:00,
2013-02-06 12:11:00,44.2,41.7,30.20,SSW,193,0.0,1.0,91,0.00,,---,0.00,VWS V14.01,2013-02-06 17:11:00,
2013-02-06 12:12:00,44.2,41.7,30.20,SSW,193,0.0,1.0,91,0.00,,---,0.00,VWS V14.01,2013-02-06 17:12:00,
2013-02-06 12:13:00,44.2,41.7,30.20,SSW,193,0.0,1.0,91,0.00,,---,0.00,VWS V14.01,2013-02-06 17:13:00,
2013-02-06 12:14:00,44.2,41.7,30.20,SSW,193,0.0,1.0,91,0.00,,---,0.00,VWS V14.01,2013-02-06 17:14:00,
2013-02-06 12:15:00,44.1,41.7,30.20,SSW,193,0.0,1.0,91,0.00,,---,0.00,VWS V14.01,2013-02-06 17:15:00,
2013-02-06 12:16:00,44.1,41.7,30.20,SSW,193,0.0,1.0,91,0.00,,---,0.00,VWS V14.01,2013-02-06 17:16:00,
2013-02-06 12:17:00,44.1,41.7,30.20,SSW,193,0.0,2.0,91,0.00,,---,0.00,VWS V14.01,2013-02-06 17:17:00,
2013-02-06 12:18:00,44.1,41.7,30.20,SSW,193,0.0,2.0,91,0.00,,---,0.00,VWS V14.01,2013-02-06 17:18:00,
2013-02-06 12:19:00,44.1,41.7,30.20,SSW,193,0.0,2.0,91,0.00,,---,0.00,VWS V14.01,2013-02-06 17:19:00,
2013-02-06 12:20:00,44.0,41.5,30.20,SSE,156,2.0,3.0,91,0.00,,---,0.00,VWS V14.01,2013-02-06 17:20:00,
2013-02-06 12:21:00,44.0,41.5,30.20,SSE,156,0.0,3.0,91,0.00,,---,0.00,VWS V14.01,2013-02-06 17:21:00,
2013-02-06 12:22:00,44.0,41.5,30.20,SSE,156,1.0,3.0,91,0.00,,---,0.00,VWS V14.01,2013-02-06 17:22:00,
2013-02-06 12:23:00,44.0,41.5,30.20,SSE,156,0.0,3.0,91,0.00,,---,0.00,VWS V14.01,2013-02-06 17:23:00,
2013-02-06 12:24:00,44.0,41.5,30.20,SSE,157,1.0,3.0,91,0.00,,---,0.00,VWS V14.01,2013-02-06 17:24:00,
2013-02-06 12:25:00,43.9,41.5,30.20,SSE,157,0.0,3.0,91,0.00,,---,0.00,VWS V14.01,2013-02-06 17:25:00,
2013-02-06 12:26:00,43.9,41.5,30.20,SSE,157,0.0,3.0,91,0.00,,---,0.00,VWS V14.01,2013-02-06 17:26:00,
2013-02-06 12:27:00,43.9,41.5,30.20,SSE,157,0.0,3.0,91,0.00,,---,0.00,VWS V14.01,2013-02-06 17:27:00,
2013-02-06 12:28:00,43.9,41.5,30.20,SSE,157,0.0,3.0,91,0.00,,---,0.00,VWS V14.01,2013-02-06 17:28:00,
2013-02-06 12:29:00,43.9,41.7,30.20,SSE,157,2.0,3.0,92,0.00,,---,0.00,VWS V14.01,2013-02-06 17:29:00,
2013-02-06 12:30:00,43.9,41.7,30.20,SSE,157,0.0,3.0,92,0.00,,---,0.00,VWS V14.01,2013-02-06 17:30:00,
2013-02-06 12:31:00,43.9,41.7,30.20,SSE,157,0.0,1.0,92,0.00,,---,0.00,VWS V14.01,2013-02-06 17:31:00,
2013-02-06 12:32:00,43.9,41.7,30.20,SSE,157,0.0,1.0,92,0.00,,---,0.00,VWS V14.01,2013-02-06 17:32:00,
2013-02-06 12:33:00,43.9,41.7,30.21,SSE,157,2.0,3.0,92,0.00,,---,0.00,VWS V14.01,2013-02-06 17:33:00,
2013-02-06 12:34:00,43.9,41.7,30.20,SSE,157,0.0,3.0,92,0.00,,---,0.00,VWS V14.01,2013-02-06 17:34:00,
2013-02-06 12:35:00,43.9,41.7,30.20,SSE,157,0.0,3.0,92,0.00,,---,0.00,VWS V14.01,2013-02-06 17:35:00,
2013-02-06 12:36:00,43.9,41.7,30.20,SSE,157,0.0,3.0,92,0.00,,---,0.00,VWS V14.01,2013-02-06 17:36:00,
2013-02-06 12:37:00,43.9,41.7,30.20,SSE,157,1.0,3.0,92,0.00,,---,0.00,VWS V14.01,2013-02-06 17:37:00,
2013-02-06 12:38:00,43.9,41.7,30.20,SSE,157,2.0,3.0,92,0.00,,---,0.00,VWS V14.01,2013-02-06 17:38:00,
2013-02-06 12:39:00,43.9,41.7,30.20,SSE,157,0.0,3.0,92,0.00,,---,0.00,VWS V14.01,2013-02-06 17:39:00,
2013-02-06 12:40:00,43.9,41.7,30.20,SSE,157,0.0,3.0,92,0.00,,---,0.00,VWS V14.01,2013-02-06 17:40:00,
2013-02-06 12:41:00,43.9,41.7,30.21,SSE,157,0.0,3.0,92,0.00,,---,0.00,VWS V14.01,2013-02-06 17:41:00,
2013-02-06 12:42:00,43.9,41.7,30.21,SSE,157,0.0,3.0,92,0.00,,---,0.00,VWS V14.01,2013-02-06 17:42:00,
2013-02-06 12:43:00,43.9,41.7,30.21,SSE,157,0.0,3.0,92,0.00,,---,0.00,VWS V14.01,2013-02-06 17:43:00,
2013-02-06 12:44:00,43.8,41.6,30.21,SSE,157,0.0,3.0,92,0.00,,---,0.00,VWS V14.01,2013-02-06 17:44:00,
2013-02-06 12:45:00,43.8,41.6,30.21,SSE,157,0.0,3.0,92,0.00,,---,0.00,VWS V14.01,2013-02-06 17:45:00,
2013-02-06 12:46:00,43.8,41.6,30.21,SSE,157,0.0,3.0,92,0.00,,---,0.00,VWS V14.01,2013-02-06 17:46:00,
2013-02-06 12:47:00,43.8,41.6,30.21,SSE,157,0.0,3.0,92,0.00,,---,0.00,VWS V14.01,2013-02-06 17:47:00,
2013-02-06 12:48:00,43.8,41.6,30.20,SSE,157,0.0,3.0,92,0.00,,---,0.00,VWS V14.01,2013-02-06 17:48:00,
2013-02-06 12:49:00,43.7,41.5,30.20,SSE,157,0.0,3.0,92,0.00,,---,0.00,VWS V14.01,2013-02-06 17:49:00,
2013-02-06 12:50:00,43.7,41.5,30.20,SSE,157,0.0,3.0,92,0.00,,---,0.00,VWS V14.01,2013-02-06 17:50:00,
2013-02-06 12:51:00,43.7,41.5,30.20,SSE,157,0.0,3.0,92,0.00,,---,0.00,VWS V14.01,2013-02-06 17:51:00,
2013-02-06 12:52:00,43.7,41.5,30.20,SSE,157,0.0,3.0,92,0.00,,---,0.00,VWS V14.01,2013-02-06 17:52:00,
2013-02-06 12:53:00,43.7,41.5,30.21,SSE,157,0.0,3.0,92,0.00,,---,0.00,VWS V14.01,2013-02-06 17:53:00,
2013-02-06 12:54:00,43.6,41.4,30.21,SSE,157,0.0,3.0,92,0.00,,---,0.00,VWS V14.01,2013-02-06 17:54:00,
2013-02-06 12:55:00,43.6,41.4,30.21,SSE,157,0.0,3.0,92,0.00,,---,0.00,VWS V14.01,2013-02-06 17:55:00,
2013-02-06 12:56:00,43.6,41.4,30.21,SSE,157,0.0,3.0,92,0.00,,---,0.00,VWS V14.01,2013-02-06 17:56:00,
2013-02-06 12:57:00,43.6,41.4,30.21,SSE,157,0.0,3.0,92,0.00,,---,0.00,VWS V14.01,2013-02-06 17:57:00,
2013-02-06 12:58:00,43.6,41.4,30.21,SSE,157,0.0,3.0,92,0.00,,---,0.00,VWS V14.01,2013-02-06 17:58:00,
2013-02-06 12:59:00,43.6,41.4,30.21,SSE,157,0.0,3.0,92,0.00,,---,0.00,VWS V14.01,2013-02-06 17:59:00,
2013-02-06 13:00:00,43.6,41.4,30.21,SSE,157,0.0,0.0,92,0.00,,---,0.00,VWS V14.01,2013-02-06 18:00:00,
2013-02-06 13:01:00,43.6,41.4,30.21,SSE,157,0.0,1.0,92,0.00,,---,0.00,VWS V14.01,2013-02-06 18:01:00,
2013-02-06 13:02:00,43.6,41.4,30.21,SSE,157,0.0,1.0,92,0.00,,---,0.00,VWS V14.01,2013-02-06 18:02:00,
2013-02-06 13:03:00,43.6,41.4,30.21,SSE,157,0.0,1.0,92,0.00,,---,0.00,VWS V14.01,2013-02-06 18:03:00,
2013-02-06 13:04:00,43.6,41.4,30.21,SSE,157,0.0,1.0,92,0.00,,---,0.00,VWS V14.01,2013-02-06 18:04:00,
2013-02-06 13:05:00,43.6,41.4,30.21,SSE,157,0.0,1.0,92,0.00,,---,0.00,VWS V14.01,2013-02-06 18:05:00,
2013-02-06 13:06:00,43.6,41.4,30.21,SSE,157,0.0,1.0,92,0.00,,---,0.00,VWS V14.01,2013-02-06 18:06:00,
2013-02-06 13:07:00,43.6,41.4,30.21,SSE,157,2.0,2.0,92,0.00,,---,0.00,VWS V14.01,2013-02-06 18:07:00,
2013-02-06 13:08:00,43.5,41.3,30.21,SSE,157,1.0,2.0,92,0.00,,---,0.00,VWS V14.01,2013-02-06 18:08:00,
2013-02-06 13:09:00,43.5,41.3,30.21,SSE,157,1.0,2.0,92,0.00,,---,0.00,VWS V14.01,2013-02-06 18:09:00,
2013-02-06 13:10:00,43.5,41.3,30.21,SSE,157,0.0,2.0,92,0.00,,---,0.00,VWS V14.01,2013-02-06 18:10:00,
2013-02-06 13:11:00,43.6,41.4,30.21,SSE,157,0.0,3.0,92,0.00,,---,0.00,VWS V14.01,2013-02-06 18:11:00,
2013-02-06 13:12:00,43.5,41.3,30.21,SSE,157,0.0,3.0,92,0.00,,---,0.00,VWS V14.01,2013-02-06 18:12:00,
2013-02-06 13:13:00,43.5,41.3,30.21,SSE,157,0.0,3.0,92,0.00,,---,0.00,VWS V14.01,2013-02-06 18:13:00,
2013-02-06 13:14:00,43.5,41.3,30.21,SSE,157,0.0,3.0,92,0.00,,---,0.00,VWS V14.01,2013-02-06 18:14:00,
2013-02-06 13:15:00,43.5,41.3,30.21,SSE,157,0.0,3.0,92,0.00,,---,0.00,VWS V14.01,2013-02-06 18:15:00,
2013-02-06 13:16:00,43.5,41.3,30.21,SSE,157,1.0,3.0,92,0.00,,---,0.00,VWS V14.01,2013-02-06 18:16:00,
2013-02-06 13:17:00,43.6,41.4,30.21,SSE,157,0.0,3.0,92,0.00,,---,0.00,VWS V14.01,2013-02-06 18:17:00,
2013-02-06 13:18:00,43.5,41.3,30.21,SSE,157,0.0,3.0,92,0.00,,---,0.00,VWS V14.01,2013-02-06 18:18:00,
2013-02-06 13:19:00,43.6,41.4,30.21,SSE,163,1.0,3.0,92,0.00,,---,0.00,VWS V14.01,2013-02-06 18:19:00,
2013-02-06 13:20:00,43.6,41.4,30.21,SSE,165,2.0,3.0,92,0.00,,---,0.00,VWS V14.01,2013-02-06 18:20:00,
2013-02-06 13:21:00,43.6,41.4,30.20,SSE,167,1.0,3.0,92,0.00,,---,0.00,VWS V14.01,2013-02-06 18:21:00,
2013-02-06 13:22:00,43.5,41.3,30.20,SSW,206,4.0,4.0,92,0.00,,---,0.00,VWS V14.01,2013-02-06 18:22:00,
2013-02-06 13:23:00,43.5,41.3,30.20,SSW,205,0.0,4.0,92,0.00,,---,0.00,VWS V14.01,2013-02-06 18:23:00,
2013-02-06 13:24:00,43.5,41.3,30.20,South,187,0.0,4.0,92,0.00,,---,0.00,VWS V14.01,2013-02-06 18:24:00,
2013-02-06 13:25:00,43.5,41.3,30.20,South,182,1.0,5.0,92,0.00,,---,0.00,VWS V14.01,2013-02-06 18:25:00,
2013-02-06 13:26:00,43.5,41.3,30.20,South,180,2.0,5.0,92,0.00,,---,0.00,VWS V14.01,2013-02-06 18:26:00,
2013-02-06 13:27:00,43.5,41.3,30.20,SSE,159,1.0,5.0,92,0.00,,---,0.00,VWS V14.01,2013-02-06 18:27:00,
2013-02-06 13:28:00,43.5,41.3,30.20,SSE,159,0.0,5.0,92,0.00,,---,0.00,VWS V14.01,2013-02-06 18:28:00,
2013-02-06 13:29:00,43.5,41.3,30.20,SSE,159,2.0,5.0,92,0.00,,---,0.00,VWS V14.01,2013-02-06 18:29:00,
2013-02-06 13:30:00,43.4,41.2,30.20,South,190,3.0,3.0,92,0.00,,---,0.00,VWS V14.01,2013-02-06 18:30:00,
2013-02-06 13:31:00,43.4,41.2,30.20,SSE,158,0.0,4.0,92,0.00,,---,0.00,VWS V14.01,2013-02-06 18:31:00,
2013-02-06 13:32:00,43.4,41.2,30.20,SE,138,0.0,6.0,92,0.00,,---,0.00,VWS V14.01,2013-02-06 18:32:00,
2013-02-06 13:33:00,43.4,41.2,30.20,SE,138,0.0,6.0,92,0.00,,---,0.00,VWS V14.01,2013-02-06 18:33:00,
2013-02-06 13:34:00,43.4,41.2,30.20,SSE,165,3.0,6.0,92,0.00,,---,0.00,VWS V14.01,2013-02-06 18:34:00,
2013-02-06 13:35:00,43.4,41.2,30.20,South,170,0.0,6.0,92,0.00,,---,0.00,VWS V14.01,2013-02-06 18:35:00,
2013-02-06 13:36:00,43.4,41.2,30.20,South,171,1.0,6.0,92,0.00,,---,0.00,VWS V14.01,2013-02-06 18:36:00,
2013-02-06 13:37:00,43.4,41.2,30.20,SSW,208,5.0,6.0,92,0.00,,---,0.00,VWS V14.01,2013-02-06 18:37:00,
2013-02-06 13:38:00,43.4,41.2,30.20,SE,143,3.0,6.0,92,0.00,,---,0.00,VWS V14.01,2013-02-06 18:38:00,
2013-02-06 13:39:00,43.4,41.2,30.20,SSE,165,1.0,6.0,92,0.00,,---,0.00,VWS V14.01,2013-02-06 18:39:00,
2013-02-06 13:40:00,43.4,41.2,30.20,South,184,0.0,6.0,92,0.00,,---,0.00,VWS V14.01,2013-02-06 18:40:00,
2013-02-06 13:41:00,43.4,41.2,30.20,South,184,0.0,6.0,92,0.00,,---,0.00,VWS V14.01,2013-02-06 18:41:00,
2013-02-06 13:42:00,43.4,41.2,30.20,SSE,163,0.0,6.0,92,0.00,,---,0.00,VWS V14.01,2013-02-06 18:42:00,
2013-02-06 13:43:00,43.4,41.2,30.20,SSE,164,0.0,6.0,92,0.00,,---,0.00,VWS V14.01,2013-02-06 18:43:00,
2013-02-06 13:44:00,43.4,41.2,30.20,SSE,155,0.0,6.0,92,0.00,,---,0.00,VWS V14.01,2013-02-06 18:44:00,
2013-02-06 13:45:00,43.4,41.2,30.20,South,186,0.0,6.0,92,0.00,,---,0.00,VWS V14.01,2013-02-06 18:45:00,
2013-02-06 13:46:00,43.4,41.2,30.20,South,186,0.0,6.0,92,0.00,,---,0.00,VWS V14.01,2013-02-06 18:46:00,
2013-02-06 13:47:00,43.4,41.2,30.20,SE,144,0.0,6.0,92,0.00,,---,0.00,VWS V14.01,2013-02-06 18:47:00,
2013-02-06 13:48:00,43.4,41.2,30.20,South,184,0.0,6.0,92,0.00,,---,0.00,VWS V14.01,2013-02-06 18:48:00,
2013-02-06 13:49:00,43.4,41.2,30.20,South,184,0.0,6.0,92,0.00,,---,0.00,VWS V14.01,2013-02-06 18:49:00,
2013-02-06 13:50:00,43.4,41.2,30.20,South,184,0.0,6.0,92,0.00,,---,0.00,VWS V14.01,2013-02-06 18:50:00,
2013-02-06 13:51:00,43.4,41.2,30.20,South,185,2.0,6.0,92,0.00,,---,0.00,VWS V14.01,2013-02-06 18:51:00,
2013-02-06 13:52:00,43.4,41.2,30.20,South,185,4.0,6.0,92,0.00,,---,0.00,VWS V14.01,2013-02-06 18:52:00,
2013-02-06 13:53:00,43.4,41.2,30.20,South,185,0.0,6.0,92,0.00,,---,0.00,VWS V14.01,2013-02-06 18:53:00,
2013-02-06 13:54:00,43.4,41.2,30.20,South,185,0.0,6.0,92,0.00,,---,0.00,VWS V14.01,2013-02-06 18:54:00,
2013-02-06 13:55:00,43.4,41.2,30.20,South,185,0.0,6.0,92,0.00,,---,0.00,VWS V14.01,2013-02-06 18:55:00,
2013-02-06 13:56:00,43.4,41.2,30.20,South,185,0.0,6.0,92,0.00,,---,0.00,VWS V14.01,2013-02-06 18:56:00,
2013-02-06 13:57:00,43.4,41.2,30.20,South,185,1.0,6.0,92,0.00,,---,0.00,VWS V14.01,2013-02-06 18:57:00,
2013-02-06 13:58:00,43.4,41.2,30.20,South,185,0.0,6.0,92,0.00,,---,0.00,VWS V14.01,2013-02-06 18:58:00,
2013-02-06 13:59:00,43.3,41.1,30.20,South,185,2.0,6.0,92,0.00,,---,0.00,VWS V14.01,2013-02-06 18:59:00,
2013-02-06 14:00:00,43.4,41.2,30.20,South,185,0.0,6.0,92,0.00,,---,0.00,VWS V14.01,2013-02-06 19:00:00,
2013-02-06 14:01:00,43.4,41.2,30.20,South,185,0.0,1.0,92,0.00,,---,0.00,VWS V14.01,2013-02-06 19:01:00,
2013-02-06 14:02:00,43.3,41.1,30.20,SSW,198,3.0,4.0,92,0.00,,---,0.00,VWS V14.01,2013-02-06 19:02:00,
2013-02-06 14:03:00,43.3,41.1,30.20,SSW,198,0.0,4.0,92,0.00,,---,0.00,VWS V14.01,2013-02-06 19:03:00,
2013-02-06 14:04:00,43.4,41.2,30.20,SSW,198,1.0,4.0,92,0.00,,---,0.00,VWS V14.01,2013-02-06 19:04:00,
2013-02-06 14:05:00,43.4,41.2,30.20,SSW,198,0.0,4.0,92,0.00,,---,0.00,VWS V14.01,2013-02-06 19:05:00,
2013-02-06 14:06:00,43.3,41.1,30.20,SSW,198,0.0,4.0,92,0.00,,---,0.00,VWS V14.01,2013-02-06 19:06:00,
2013-02-06 14:07:00,43.3,41.1,30.20,SSW,198,1.0,4.0,92,0.00,,---,0.00,VWS V14.01,2013-02-06 19:07:00,
2013-02-06 14:08:00,43.3,41.1,30.20,SSE,163,1.0,4.0,92,0.00,,---,0.00,VWS V14.01,2013-02-06 19:08:00,
2013-02-06 14:09:00,43.4,41.2,30.20,South,179,2.0,6.0,92,0.00,,---,0.00,VWS V14.01,2013-02-06 19:09:00,
2013-02-06 14:10:00,43.4,41.2,30.20,South,178,0.0,6.0,92,0.00,,---,0.00,VWS V14.01,2013-02-06 19:10:00,
2013-02-06 14:11:00,43.4,41.2,30.20,South,178,0.0,6.0,92,0.00,,---,0.00,VWS V14.01,2013-02-06 19:11:00,
2013-02-06 14:12:00,43.4,41.2,30.20,South,182,4.0,6.0,92,0.00,,---,0.00,VWS V14.01,2013-02-06 19:12:00,
2013-02-06 14:13:00,43.4,41.2,30.20,SSE,157,0.0,6.0,92,0.00,,---,0.00,VWS V14.01,2013-02-06 19:13:00,
2013-02-06 14:14:00,43.4,41.2,30.20,SSW,192,4.0,6.0,92,0.00,,---,0.00,VWS V14.01,2013-02-06 19:14:00,
2013-02-06 14:15:00,43.4,41.2,30.20,SSW,192,0.0,6.0,92,0.00,,---,0.00,VWS V14.01,2013-02-06 19:15:00,
2013-02-06 14:16:00,43.4,41.2,30.20,South,187,0.0,6.0,92,0.00,,---,0.00,VWS V14.01,2013-02-06 19:16:00,
2013-02-06 14:17:00,43.5,41.3,30.20,SSE,155,0.0,6.0,92,0.00,,---,0.00,VWS V14.01,2013-02-06 19:17:00,
2013-02-06 14:18:00,43.5,41.3,30.20,SSE,155,0.0,6.0,92,0.00,,---,0.00,VWS V14.01,2013-02-06 19:18:00,
2013-02-06 14:19:00,43.5,41.3,30.20,SSE,155,0.0,6.0,92,0.00,,---,0.00,VWS V14.01,2013-02-06 19:19:00,
2013-02-06 14:20:00,43.6,41.4,30.20,SSE,155,0.0,6.0,92,0.00,,---,0.00,VWS V14.01,2013-02-06 19:20:00,
2013-02-06 14:21:00,43.6,41.4,30.20,SSE,167,0.0,6.0,92,0.00,,---,0.00,VWS V14.01,2013-02-06 19:21:00,
2013-02-06 14:22:00,43.6,41.4,30.20,SSE,167,2.0,6.0,92,0.00,,---,0.00,VWS V14.01,2013-02-06 19:22:00,
2013-02-06 14:23:00,43.6,41.4,30.20,South,174,0.0,6.0,92,0.00,,---,0.00,VWS V14.01,2013-02-06 19:23:00,
2013-02-06 14:24:00,43.6,41.4,30.20,South,174,0.0,6.0,92,0.00,,---,0.00,VWS V14.01,2013-02-06 19:24:00,
2013-02-06 14:25:00,43.6,41.4,30.20,SSE,165,0.0,6.0,92,0.00,,---,0.00,VWS V14.01,2013-02-06 19:25:00,
2013-02-06 14:26:00,43.6,41.4,30.20,SSE,165,0.0,6.0,92,0.00,,---,0.00,VWS V14.01,2013-02-06 19:26:00,
2013-02-06 14:27:00,43.6,41.4,30.20,South,173,2.0,6.0,92,0.00,,---,0.00,VWS V14.01,2013-02-06 19:27:00,
2013-02-06 14:28:00,43.6,41.4,30.20,South,181,4.0,6.0,92,0.00,,---,0.00,VWS V14.01,2013-02-06 19:28:00,
2013-02-06 14:29:00,43.7,41.5,30.20,SSE,158,1.0,6.0,92,0.00,,---,0.00,VWS V14.01,2013-02-06 19:29:00,
2013-02-06 14:30:00,43.7,41.5,30.20,South,173,0.0,6.0,92,0.00,,---,0.00,VWS V14.01,2013-02-06 19:30:00,
2013-02-06 14:31:00,43.7,41.5,30.20,SE,134,4.0,4.0,92,0.00,,---,0.00,VWS V14.01,2013-02-06 19:31:00,
2013-02-06 14:32:00,43.7,41.5,30.20,SE,142,0.0,4.0,92,0.00,,---,0.00,VWS V14.01,2013-02-06 19:32:00,
2013-02-06 14:33:00,43.7,41.5,30.20,SSW,197,0.0,4.0,92,0.00,,---,0.00,VWS V14.01,2013-02-06 19:33:00,
2013-02-06 14:34:00,43.8,41.6,30.20,South,189,2.0,4.0,92,0.00,,---,0.00,VWS V14.01,2013-02-06 19:34:00,
2013-02-06 14:35:00,43.8,41.6,30.20,South,182,0.0,4.0,92,0.00,,---,0.00,VWS V14.01,2013-02-06 19:35:00,
2013-02-06 14:36:00,43.8,41.6,30.20,South,178,1.0,4.0,92,0.00,,---,0.00,VWS V14.01,2013-02-06 19:36:00,
2013-02-06 14:37:00,43.8,41.6,30.20,South,183,0.0,4.0,92,0.00,,---,0.00,VWS V14.01,2013-02-06 19:37:00,
2013-02-06 14:38:00,43.8,41.6,30.20,South,183,0.0,4.0,92,0.00,,---,0.00,VWS V14.01,2013-02-06 19:38:00,
2013-02-06 14:39:00,43.8,41.6,30.20,South,188,0.0,4.0,92,0.00,,---,0.00,VWS V14.01,2013-02-06 19:39:00,
2013-02-06 14:40:00,43.9,41.7,30.20,South,188,0.0,4.0,92,0.00,,---,0.00,VWS V14.01,2013-02-06 19:40:00,
2013-02-06 14:41:00,43.9,41.7,30.20,SSW,198,3.0,4.0,92,0.00,,---,0.00,VWS V14.01,2013-02-06 19:41:00,
2013-02-06 14:42:00,43.9,41.7,30.20,SSW,196,1.0,5.0,92,0.00,,---,0.00,VWS V14.01,2013-02-06 19:42:00,
2013-02-06 14:43:00,43.9,41.7,30.20,South,169,1.0,6.0,92,0.00,,---,0.00,VWS V14.01,2013-02-06 19:43:00,
2013-02-06 14:44:00,44.0,41.8,30.20,South,169,0.0,6.0,92,0.00,,---,0.00,VWS V14.01,2013-02-06 19:44:00,
2013-02-06 14:45:00,44.0,41.8,30.20,SSE,148,2.0,6.0,92,0.00,,---,0.00,VWS V14.01,2013-02-06 19:45:00,
2013-02-06 14:46:00,44.0,41.5,30.20,SSW,194,0.0,6.0,91,0.00,,---,0.00,VWS V14.01,2013-02-06 19:46:00,
2013-02-06 14:47:00,44.0,41.5,30.20,ESE,117,0.0,6.0,91,0.00,,---,0.00,VWS V14.01,2013-02-06 19:47:00,
2013-02-06 14:48:00,44.0,41.5,30.20,South,181,3.0,6.0,91,0.00,,---,0.00,VWS V14.01,2013-02-06 19:48:00,
2013-02-06 14:49:00,44.0,41.5,30.20,South,171,0.0,6.0,91,0.00,,---,0.00,VWS V14.01,2013-02-06 19:49:00,
2013-02-06 14:50:00,44.1,41.7,30.20,South,171,1.0,6.0,91,0.00,,---,0.00,VWS V14.01,2013-02-06 19:50:00,
2013-02-06 14:51:00,44.1,41.7,30.20,South,178,0.0,6.0,91,0.00,,---,0.00,VWS V14.01,2013-02-06 19:51:00,
2013-02-06 14:52:00,44.1,41.7,30.20,SSW,202,5.0,6.0,91,0.00,,---,0.00,VWS V14.01,2013-02-06 19:52:00,
2013-02-06 14:53:00,44.2,41.7,30.20,South,174,0.0,6.0,91,0.00,,---,0.00,VWS V14.01,2013-02-06 19:53:00,
2013-02-06 14:54:00,44.2,41.7,30.21,South,170,0.0,6.0,91,0.00,,---,0.00,VWS V14.01,2013-02-06 19:54:00,
2013-02-06 14:55:00,44.2,41.7,30.21,South,177,3.0,6.0,91,0.00,,---,0.00,VWS V14.01,2013-02-06 19:55:00,
2013-02-06 14:56:00,44.2,41.7,30.21,South,178,1.0,6.0,91,0.00,,---,0.00,VWS V14.01,2013-02-06 19:56:00,
2013-02-06 14:57:00,44.3,42.1,30.21,South,189,0.0,6.0,92,0.00,,---,0.00,VWS V14.01,2013-02-06 19:57:00,
2013-02-06 14:58:00,44.3,41.8,30.21,South,189,0.0,6.0,91,0.00,,---,0.00,VWS V14.01,2013-02-06 19:58:00,
2013-02-06 14:59:00,44.4,42.2,30.22,South,189,0.0,6.0,92,0.00,,---,0.00,VWS V14.01,2013-02-06 19:59:00,
2013-02-06 15:00:00,44.4,41.9,30.22,SSE,161,1.0,6.0,91,0.00,,---,0.00,VWS V14.01,2013-02-06 20:00:00,
2013-02-06 15:01:00,44.5,42.0,30.22,South,170,0.0,1.0,91,0.00,,---,0.00,VWS V14.01,2013-02-06 20:01:00,
2013-02-06 15:02:00,44.5,42.0,30.22,SSE,163,3.0,4.0,91,0.00,,---,0.00,VWS V14.01,2013-02-06 20:02:00,
2013-02-06 15:03:00,44.5,42.0,30.22,SSE,155,0.0,4.0,91,0.00,,---,0.00,VWS V14.01,2013-02-06 20:03:00,
2013-02-06 15:04:00,44.6,42.1,30.22,South,179,1.0,4.0,91,0.00,,---,0.00,VWS V14.01,2013-02-06 20:04:00,
2013-02-06 15:05:00,44.6,42.1,30.22,SSE,156,0.0,4.0,91,0.00,,---,0.00,VWS V14.01,2013-02-06 20:05:00,
2013-02-06 15:06:00,44.7,42.2,30.22,SSE,156,0.0,4.0,91,0.00,,---,0.00,VWS V14.01,2013-02-06 20:06:00,
2013-02-06 15:07:00,44.7,42.2,30.22,SSE,150,2.0,4.0,91,0.00,,---,0.00,VWS V14.01,2013-02-06 20:07:00,
2013-02-06 15:08:00,44.7,42.2,30.22,SSE,155,0.0,4.0,91,0.00,,---,0.00,VWS V14.01,2013-02-06 20:08:00,
2013-02-06 15:09:00,44.8,42.3,30.22,SSW,192,5.0,5.0,91,0.00,,---,0.00,VWS V14.01,2013-02-06 20:09:00,
2013-02-06 15:10:00,44.8,42.3,30.22,SSE,163,4.0,5.0,91,0.00,,---,0.00,VWS V14.01,2013-02-06 20:10:00,
2013-02-06 15:11:00,44.9,42.4,30.22,South,178,3.0,5.0,91,0.00,,---,0.00,VWS V14.01,2013-02-06 20:11:00,
2013-02-06 15:12:00,44.9,42.4,30.22,SSW,196,0.0,6.0,91,0.00,,---,0.00,VWS V14.01,2013-02-06 20:12:00,
2013-02-06 15:13:00,44.9,42.4,30.22,SSE,167,1.0,6.0,91,0.00,,---,0.00,VWS V14.01,2013-02-06 20:13:00,
2013-02-06 15:14:00,45.0,42.5,30.22,SSE,150,4.0,6.0,91,0.00,,---,0.00,VWS V14.01,2013-02-06 20:14:00,
2013-02-06 15:15:00,45.0,42.5,30.22,SSE,165,0.0,6.0,91,0.00,,---,0.00,VWS V14.01,2013-02-06 20:15:00,
2013-02-06 15:16:00,45.0,42.5,30.22,SSE,168,0.0,6.0,91,0.00,,---,0.00,VWS V14.01,2013-02-06 20:16:00,
2013-02-06 15:17:00,45.1,42.6,30.22,South,178,3.0,6.0,91,0.00,,---,0.00,VWS V14.01,2013-02-06 20:17:00,
2013-02-06 15:18:00,45.1,42.6,30.21,South,184,0.0,6.0,91,0.00,,---,0.00,VWS V14.01,2013-02-06 20:18:00,
2013-02-06 15:19:00,45.1,42.6,30.21,South,178,5.0,6.0,91,0.00,,---,0.00,VWS V14.01,2013-02-06 20:19:00,
2013-02-06 15:20:00,45.2,42.7,30.21,South,177,4.0,6.0,91,0.00,,---,0.00,VWS V14.01,2013-02-06 20:20:00,
2013-02-06 15:21:00,45.2,42.7,30.21,South,185,4.0,6.0,91,0.00,,---,0.00,VWS V14.01,2013-02-06 20:21:00,
2013-02-06 15:22:00,45.2,42.7,30.21,SSW,192,0.0,6.0,91,0.00,,---,0.00,VWS V14.01,2013-02-06 20:22:00,
2013-02-06 15:23:00,45.2,42.7,30.21,SSW,192,0.0,6.0,91,0.00,,---,0.00,VWS V14.01,2013-02-06 20:23:00,
2013-02-06 15:24:00,45.3,42.8,30.21,SSE,153,2.0,6.0,91,0.00,,---,0.00,VWS V14.01,2013-02-06 20:24:00,
2013-02-06 15:25:00,45.3,42.8,30.21,SSE,168,2.0,6.0,91,0.00,,---,0.00,VWS V14.01,2013-02-06 20:25:00,
2013-02-06 15:26:00,45.4,42.9,30.21,South,169,2.0,6.0,91,0.00,,---,0.00,VWS V14.01,2013-02-06 20:26:00,
2013-02-06 15:27:00,45.4,42.6,30.21,South,170,0.0,6.0,90,0.00,,---,0.00,VWS V14.01,2013-02-06 20:27:00,
2013-02-06 15:28:00,45.4,42.6,30.21,SSE,159,4.0,6.0,90,0.00,,---,0.00,VWS V14.01,2013-02-06 20:28:00,
2013-02-06 15:29:00,45.4,42.6,30.21,SSW,192,3.0,6.0,90,0.00,,---,0.00,VWS V14.01,2013-02-06 20:29:00,
2013-02-06 15:30:00,45.5,42.7,30.21,South,191,0.0,6.0,90,0.00,,---,0.00,VWS V14.01,2013-02-06 20:30:00,
2013-02-06 15:31:00,45.5,42.7,30.21,South,191,3.0,7.0,90,0.00,,---,0.00,VWS V14.01,2013-02-06 20:31:00,
2013-02-06 15:32:00,45.5,42.7,30.21,South,171,2.0,7.0,90,0.00,,---,0.00,VWS V14.01,2013-02-06 20:32:00,
2013-02-06 15:33:00,45.6,42.8,30.21,South,175,0.0,7.0,90,0.00,,---,0.00,VWS V14.01,2013-02-06 20:33:00,
2013-02-06 15:34:00,45.6,42.8,30.21,South,183,3.0,7.0,90,0.00,,---,0.00,VWS V14.01,2013-02-06 20:34:00,
2013-02-06 15:35:00,45.6,42.8,30.21,SSW,195,2.0,7.0,90,0.00,,---,0.00,VWS V14.01,2013-02-06 20:35:00,
2013-02-06 15:36:00,45.7,42.9,30.21,SSW,205,5.0,7.0,90,0.00,,---,0.00,VWS V14.01,2013-02-06 20:36:00,
2013-02-06 15:37:00,45.8,43.0,30.20,SSW,198,5.0,7.0,90,0.00,,---,0.00,VWS V14.01,2013-02-06 20:37:00,
2013-02-06 15:38:00,45.8,43.0,30.20,South,190,1.0,7.0,90,0.00,,---,0.00,VWS V14.01,2013-02-06 20:38:00,
2013-02-06 15:39:00,45.9,43.1,30.20,South,177,3.0,7.0,90,0.00,,---,0.00,VWS V14.01,2013-02-06 20:39:00,
2013-02-06 15:40:00,45.9,43.1,30.20,South,186,0.0,7.0,90,0.00,,---,0.00,VWS V14.01,2013-02-06 20:40:00,
2013-02-06 15:41:00,45.9,43.1,30.20,SSE,157,0.0,7.0,90,0.00,,---,0.00,VWS V14.01,2013-02-06 20:41:00,
2013-02-06 15:42:00,46.0,43.2,30.20,SSW,200,3.0,7.0,90,0.00,,---,0.00,VWS V14.01,2013-02-06 20:42:00,
2013-02-06 15:43:00,46.0,43.2,30.20,SE,129,3.0,7.0,90,0.00,,---,0.00,VWS V14.01,2013-02-06 20:43:00,
2013-02-06 15:44:00,46.0,43.2,30.20,SSW,194,1.0,7.0,90,0.00,,---,0.00,VWS V14.01,2013-02-06 20:44:00,
2013-02-06 15:45:00,46.1,43.3,30.20,SSE,164,1.0,7.0,90,0.00,,---,0.00,VWS V14.01,2013-02-06 20:45:00,
2013-02-06 15:46:00,46.1,43.3,30.20,South,177,4.0,7.0,90,0.00,,---,0.00,VWS V14.01,2013-02-06 20:46:00,
2013-02-06 15:47:00,46.2,43.4,30.20,South,182,0.0,9.0,90,0.00,,---,0.00,VWS V14.01,2013-02-06 20:47:00,
2013-02-06 15:48:00,46.2,43.4,30.20,South,169,3.0,9.0,90,0.00,,---,0.00,VWS V14.01,2013-02-06 20:48:00,
2013-02-06 15:49:00,46.2,43.4,30.20,SW,217,4.0,9.0,90,0.00,,---,0.00,VWS V14.01,2013-02-06 20:49:00,
2013-02-06 15:50:00,46.2,43.4,30.20,SSW,205,7.0,9.0,90,0.00,,---,0.00,VWS V14.01,2013-02-06 20:50:00,
2013-02-06 15:51:00,46.3,43.5,30.20,SSE,156,1.0,9.0,90,0.00,,---,0.00,VWS V14.01,2013-02-06 20:51:00,
2013-02-06 15:52:00,46.3,43.5,30.20,SSW,198,2.0,9.0,90,0.00,,---,0.00,VWS V14.01,2013-02-06 20:52:00,
2013-02-06 15:53:00,46.4,43.3,30.20,South,190,6.0,9.0,89,0.00,,---,0.00,VWS V14.01,2013-02-06 20:53:00,
2013-02-06 15:54:00,46.4,43.3,30.20,South,182,0.0,9.0,89,0.00,,---,0.00,VWS V14.01,2013-02-06 20:54:00,
2013-02-06 15:55:00,46.4,43.3,30.19,SSE,167,0.0,9.0,89,0.00,,---,0.00,VWS V14.01,2013-02-06 20:55:00,
2013-02-06 15:56:00,46.5,43.4,30.19,SSE,163,3.0,9.0,89,0.00,,---,0.00,VWS V14.01,2013-02-06 20:56:00,
2013-02-06 15:57:00,46.5,43.4,30.20,South,174,1.0,9.0,89,0.00,,---,0.00,VWS V14.01,2013-02-06 20:57:00,
2013-02-06 15:58:00,46.6,43.5,30.19,South,170,0.0,9.0,89,0.00,,---,0.00,VWS V14.01,2013-02-06 20:58:00,
2013-02-06 15:59:00,46.6,43.5,30.19,South,170,0.0,9.0,89,0.00,,---,0.00,VWS V14.01,2013-02-06 20:59:00,
2013-02-06 16:00:00,46.7,43.9,30.19,South,189,3.0,9.0,90,0.00,,---,0.00,VWS V14.01,2013-02-06 21:00:00,
2013-02-06 16:01:00,46.7,43.6,30.19,SSW,192,6.0,6.0,89,0.00,,---,0.00,VWS V14.01,2013-02-06 21:01:00,
2013-02-06 16:02:00,46.8,43.7,30.19,SSW,192,3.0,6.0,89,0.00,,---,0.00,VWS V14.01,2013-02-06 21:02:00,
2013-02-06 16:03:00,46.8,43.7,30.19,SSE,159,2.0,6.0,89,0.00,,---,0.00,VWS V14.01,2013-02-06 21:03:00,
2013-02-06 16:04:00,46.9,43.8,30.19,SSE,159,4.0,7.0,89,0.00,,---,0.00,VWS V14.01,2013-02-06 21:04:00,
2013-02-06 16:05:00,47.0,43.9,30.18,SSW,200,5.0,7.0,89,0.00,,---,0.00,VWS V14.01,2013-02-06 21:05:00,
2013-02-06 16:06:00,47.0,43.9,30.18,South,179,1.0,7.0,89,0.00,,---,0.00,VWS V14.01,2013-02-06 21:06:00,
2013-02-06 16:07:00,47.1,44.0,30.18,SSW,193,3.0,7.0,89,0.00,,---,0.00,VWS V14.01,2013-02-06 21:07:00,
2013-02-06 16:08:00,47.2,44.1,30.19,SSW,192,3.0,7.0,89,0.00,,---,0.00,VWS V14.01,2013-02-06 21:08:00,
2013-02-06 16:09:00,47.2,44.1,30.18,SSW,192,1.0,7.0,89,0.00,,---,0.00,VWS V14.01,2013-02-06 21:09:00,
2013-02-06 16:10:00,47.3,44.2,30.18,SSW,202,5.0,7.0,89,0.00,,---,0.00,VWS V14.01,2013-02-06 21:10:00,
2013-02-06 16:11:00,47.4,44.3,30.18,SSW,205,3.0,7.0,89,0.00,,---,0.00,VWS V14.01,2013-02-06 21:11:00,
2013-02-06 16:12:00,47.4,44.3,30.18,South,170,1.0,7.0,89,0.00,,---,0.00,VWS V14.01,2013-02-06 21:12:00,
2013-02-06 16:13:00,47.5,44.4,30.18,SSE,148,0.0,7.0,89,0.00,,---,0.00,VWS V14.01,2013-02-06 21:13:00,
2013-02-06 16:14:00,47.6,44.5,30.18,SSW,192,6.0,9.0,89,0.00,,---,0.00,VWS V14.01,2013-02-06 21:14:00,
2013-02-06 16:15:00,47.6,44.5,30.18,SSW,194,7.0,9.0,89,0.00,,---,0.00,VWS V14.01,2013-02-06 21:15:00,
2013-02-06 16:16:00,47.7,44.3,30.18,South,182,3.0,9.0,88,0.00,,---,0.00,VWS V14.01,2013-02-06 21:16:00,
2013-02-06 16:17:00,47.7,44.3,30.18,South,180,0.0,9.0,88,0.00,,---,0.00,VWS V14.01,2013-02-06 21:17:00,
2013-02-06 16:18:00,47.7,44.3,30.18,SSW,192,6.0,9.0,88,0.00,,---,0.00,VWS V14.01,2013-02-06 21:18:00,
2013-02-06 16:19:00,47.8,44.4,30.18,SSW,193,2.0,9.0,88,0.00,,---,0.00,VWS V14.01,2013-02-06 21:19:00,
2013-02-06 16:20:00,47.8,44.4,30.18,South,171,0.0,9.0,88,0.00,,---,0.00,VWS V14.01,2013-02-06 21:20:00,
2013-02-06 16:21:00,47.9,44.5,30.18,SSE,159,0.0,9.0,88,0.00,,---,0.00,VWS V14.01,2013-02-06 21:21:00,
2013-02-06 16:22:00,47.9,44.5,30.18,SSW,194,1.0,9.0,88,0.00,,---,0.00,VWS V14.01,2013-02-06 21:22:00,
2013-02-06 16:23:00,48.0,44.6,30.18,South,173,2.0,9.0,88,0.00,,---,0.00,VWS V14.01,2013-02-06 21:23:00,
2013-02-06 16:24:00,48.0,44.6,30.18,SSE,148,0.0,9.0,88,0.00,,---,0.00,VWS V14.01,2013-02-06 21:24:00,
2013-02-06 16:25:00,48.1,44.7,30.18,SSE,159,0.0,9.0,88,0.00,,---,0.00,VWS V14.01,2013-02-06 21:25:00,
2013-02-06 16:26:00,48.2,44.8,30.18,SSE,158,0.0,9.0,88,0.00,,---,0.00,VWS V14.01,2013-02-06 21:26:00,
2013-02-06 16:27:00,48.2,44.8,30.18,South,175,2.0,9.0,88,0.00,,---,0.00,VWS V14.01,2013-02-06 21:27:00,
2013-02-06 16:28:00,48.4,45.0,30.18,SSW,194,1.0,9.0,88,0.00,,---,0.00,VWS V14.01,2013-02-06 21:28:00,
2013-02-06 16:29:00,48.5,45.1,30.18,SSE,157,0.0,9.0,88,0.00,,---,0.00,VWS V14.01,2013-02-06 21:29:00,
2013-02-06 16:30:00,48.6,45.2,30.18,South,175,0.0,9.0,88,0.00,,---,0.00,VWS V14.01,2013-02-06 21:30:00,
2013-02-06 16:31:00,48.6,45.2,30.18,South,175,0.0,0.0,88,0.00,,---,0.00,VWS V14.01,2013-02-06 21:31:00,
2013-02-06 16:32:00,48.7,45.3,30.18,SE,138,0.0,1.0,88,0.00,,---,0.00,VWS V14.01,2013-02-06 21:32:00,
2013-02-06 16:33:00,48.8,45.4,30.18,South,184,3.0,6.0,88,0.00,,---,0.00,VWS V14.01,2013-02-06 21:33:00,
2013-02-06 16:34:00,48.9,45.2,30.18,SSW,193,5.0,7.0,87,0.00,,---,0.00,VWS V14.01,2013-02-06 21:34:00,
2013-02-06 16:35:00,49.0,45.3,30.18,SSE,159,0.0,7.0,87,0.00,,---,0.00,VWS V14.01,2013-02-06 21:35:00,
2013-02-06 16:36:00,49.0,45.3,30.18,SE,136,0.0,7.0,87,0.00,,---,0.00,VWS V14.01,2013-02-06 21:36:00,
2013-02-06 16:37:00,49.1,45.4,30.19,South,186,1.0,7.0,87,0.00,,---,0.00,VWS V14.01,2013-02-06 21:37:00,
2013-02-06 16:38:00,49.2,45.5,30.19,WSW,240,0.0,7.0,87,0.00,,---,0.00,VWS V14.01,2013-02-06 21:38:00,
2013-02-06 16:39:00,49.3,45.6,30.19,SSW,207,0.0,7.0,87,0.00,,---,0.00,VWS V14.01,2013-02-06 21:39:00,
2013-02-06 16:40:00,49.4,45.4,30.18,SSE,153,5.0,7.0,86,0.00,,---,0.00,VWS V14.01,2013-02-06 21:40:00,
2013-02-06 16:41:00,49.4,45.4,30.18,South,169,3.0,7.0,86,0.00,,---,0.00,VWS V14.01,2013-02-06 21:41:00,
2013-02-06 16:42:00,49.5,45.5,30.18,SSE,167,0.0,7.0,86,0.00,,---,0.00,VWS V14.01,2013-02-06 21:42:00,
2013-02-06 16:43:00,49.5,45.5,30.18,SW,215,4.0,7.0,86,0.00,,---,0.00,VWS V14.01,2013-02-06 21:43:00,
2013-02-06 16:44:00,49.6,45.6,30.18,SSW,209,0.0,7.0,86,0.00,,---,0.00,VWS V14.01,2013-02-06 21:44:00,
2013-02-06 16:45:00,49.7,45.7,30.18,South,170,0.0,7.0,86,0.00,,---,0.00,VWS V14.01,2013-02-06 21:45:00,
2013-02-06 16:46:00,49.7,45.7,30.18,SSE,157,2.0,7.0,86,0.00,,---,0.00,VWS V14.01,2013-02-06 21:46:00,
2013-02-06 16:47:00,49.8,45.8,30.18,South,179,2.0,7.0,86,0.00,,---,0.00,VWS V14.01,2013-02-06 21:47:00,
2013-02-06 16:48:00,49.9,45.9,30.18,South,184,4.0,7.0,86,0.00,,---,0.00,VWS V14.01,2013-02-06 21:48:00,
2013-02-06 16:49:00,50.0,46.0,30.18,SW,236,3.0,7.0,86,0.00,,---,0.00,VWS V14.01,2013-02-06 21:49:00,
2013-02-06 16:50:00,50.1,47.0,30.18,SSE,160,6.0,7.0,89,0.00,,---,0.00,VWS V14.01,2013-02-06 21:50:00,
2013-02-06 16:51:00,50.1,45.8,30.18,SSE,166,1.0,7.0,85,0.00,,---,0.00,VWS V14.01,2013-02-06 21:51:00,
2013-02-06 16:52:00,50.2,45.9,30.18,SSW,200,3.0,7.0,85,0.00,,---,0.00,VWS V14.01,2013-02-06 21:52:00,
2013-02-06 16:53:00,50.3,46.0,30.18,South,169,3.0,7.0,85,0.00,,---,0.00,VWS V14.01,2013-02-06 21:53:00,
2013-02-06 16:54:00,50.3,46.0,30.18,SSW,199,5.0,7.0,85,0.00,,---,0.00,VWS V14.01,2013-02-06 21:54:00,
2013-02-06 16:55:00,50.4,46.1,30.18,SSE,163,1.0,7.0,85,0.00,,---,0.00,VWS V14.01,2013-02-06 21:55:00,
2013-02-06 16:56:00,50.5,46.2,30.18,SSW,202,5.0,7.0,85,0.00,,---,0.00,VWS V14.01,2013-02-06 21:56:00,
2013-02-06 16:57:00,50.6,46.3,30.18,SSE,167,0.0,7.0,85,0.00,,---,0.00,VWS V14.01,2013-02-06 21:57:00,
2013-02-06 16:58:00,50.6,46.3,30.18,SSE,152,6.0,7.0,85,0.00,,---,0.00,VWS V14.01,2013-02-06 21:58:00,
2013-02-06 16:59:00,50.7,46.0,30.18,South,181,0.0,8.0,84,0.00,,---,0.00,VWS V14.01,2013-02-06 21:59:00,
2013-02-06 17:00:00,50.8,46.2,30.18,SE,146,4.0,8.0,84,0.00,,---,0.00,VWS V14.01,2013-02-06 22:00:00,
2013-02-06 17:01:00,50.8,46.2,30.17,South,174,3.0,7.0,84,0.00,,---,0.00,VWS V14.01,2013-02-06 22:01:00,
2013-02-06 17:02:00,50.9,46.2,30.17,SSE,159,4.0,7.0,84,0.00,,---,0.00,VWS V14.01,2013-02-06 22:02:00,
2013-02-06 17:03:00,50.9,46.2,30.17,South,172,0.0,7.0,84,0.00,,---,0.00,VWS V14.01,2013-02-06 22:03:00,
2013-02-06 17:04:00,51.0,46.3,30.17,South,171,0.0,7.0,84,0.00,,---,0.00,VWS V14.01,2013-02-06 22:04:00,
2013-02-06 17:05:00,51.0,46.3,30.17,SSW,195,7.0,7.0,84,0.00,,---,0.00,VWS V14.01,2013-02-06 22:05:00,
2013-02-06 17:06:00,51.1,46.4,30.17,WSW,253,1.0,10.0,84,0.00,,---,0.00,VWS V14.01,2013-02-06 22:06:00,
2013-02-06 17:07:00,51.2,46.5,30.17,SSE,165,3.0,10.0,84,0.00,,---,0.00,VWS V14.01,2013-02-06 22:07:00,
2013-02-06 17:08:00,51.2,46.5,30.17,SSW,197,6.0,10.0,84,0.00,,---,0.00,VWS V14.01,2013-02-06 22:08:00,
2013-02-06 17:09:00,51.3,46.3,30.17,South,187,1.0,10.0,83,0.00,,---,0.00,VWS V14.01,2013-02-06 22:09:00,
2013-02-06 17:10:00,51.4,46.4,30.17,SSW,210,3.0,10.0,83,0.00,,---,0.00,VWS V14.01,2013-02-06 22:10:00,
2013-02-06 17:11:00,51.4,46.4,30.17,South,191,2.0,10.0,83,0.00,,---,0.00,VWS V14.01,2013-02-06 22:11:00,
2013-02-06 17:12:00,51.5,46.5,30.17,SSE,165,0.0,10.0,83,0.00,,---,0.00,VWS V14.01,2013-02-06 22:12:00,
2013-02-06 17:13:00,51.6,46.6,30.17,SSW,207,3.0,10.0,83,0.00,,---,0.00,VWS V14.01,2013-02-06 22:13:00,
2013-02-06 17:14:00,51.6,46.6,30.17,SW,232,6.0,10.0,83,0.00,,---,0.00,VWS V14.01,2013-02-06 22:14:00,
2013-02-06 17:15:00,51.7,46.7,30.17,SSW,192,5.0,10.0,83,0.00,,---,0.00,VWS V14.01,2013-02-06 22:15:00,
2013-02-06 17:16:00,51.8,46.5,30.17,SSW,205,5.0,10.0,82,0.00,,---,0.00,VWS V14.01,2013-02-06 22:16:00,
2013-02-06 17:17:00,51.9,46.6,30.17,SSE,155,0.0,10.0,82,0.00,,---,0.00,VWS V14.01,2013-02-06 22:17:00,
2013-02-06 17:18:00,51.9,46.6,30.17,SSW,193,0.0,10.0,82,0.00,,---,0.00,VWS V14.01,2013-02-06 22:18:00,
2013-02-06 17:19:00,52.0,46.7,30.17,SSW,198,4.0,10.0,82,0.00,,---,0.00,VWS V14.01,2013-02-06 22:19:00,
2013-02-06 17:20:00,52.1,46.8,30.17,SSW,200,3.0,10.0,82,0.00,,---,0.00,VWS V14.01,2013-02-06 22:20:00,
2013-02-06 17:21:00,52.1,46.8,30.17,SSE,157,8.0,10.0,82,0.00,,---,0.00,VWS V14.01,2013-02-06 22:21:00,
2013-02-06 17:22:00,52.1,46.8,30.17,South,178,0.0,10.0,82,0.00,,---,0.00,VWS V14.01,2013-02-06 22:22:00,
2013-02-06 17:23:00,52.2,46.9,30.17,SSW,207,2.0,10.0,82,0.00,,---,0.00,VWS V14.01,2013-02-06 22:23:00,
2013-02-06 17:24:00,52.3,47.0,30.17,SW,225,4.0,10.0,82,0.00,,---,0.00,VWS V14.01,2013-02-06 22:24:00,
2013-02-06 17:25:00,52.3,47.0,30.17,SSW,196,5.0,10.0,82,0.00,,---,0.00,VWS V14.01,2013-02-06 22:25:00,
2013-02-06 17:26:00,52.3,46.7,30.17,WSW,246,4.0,10.0,81,0.00,,---,0.00,VWS V14.01,2013-02-06 22:26:00,
2013-02-06 17:27:00,52.4,46.8,30.17,South,188,3.0,10.0,81,0.00,,---,0.00,VWS V14.01,2013-02-06 22:27:00,
2013-02-06 17:28:00,52.4,46.8,30.17,WSW,239,0.0,10.0,81,0.00,,---,0.00,VWS V14.01,2013-02-06 22:28:00,
2013-02-06 17:29:00,52.5,46.8,30.17,SW,231,0.0,10.0,81,0.00,,---,0.00,VWS V14.01,2013-02-06 22:29:00,
2013-02-06 17:30:00,52.6,46.9,30.17,South,169,0.0,10.0,81,0.00,,---,0.00,VWS V14.01,2013-02-06 22:30:00,
2013-02-06 17:31:00,52.7,47.4,30.17,SE,139,0.0,4.0,82,0.00,,---,0.00,VWS V14.01,2013-02-06 22:31:00,
2013-02-06 17:32:00,52.8,47.1,30.17,South,177,0.0,4.0,81,0.00,,---,0.00,VWS V14.01,2013-02-06 22:32:00,
2013-02-06 17:33:00,52.8,47.1,30.17,SSW,200,0.0,4.0,81,0.00,,---,0.00,VWS V14.01,2013-02-06 22:33:00,
2013-02-06 17:34:00,52.9,47.2,30.17,SSW,200,0.0,4.0,81,0.00,,---,0.00,VWS V14.01,2013-02-06 22:34:00,
2013-02-06 17:35:00,52.9,47.2,30.17,SSW,192,3.0,7.0,81,0.00,,---,0.00,VWS V14.01,2013-02-06 22:35:00,
2013-02-06 17:36:00,53.0,47.3,30.17,SSE,148,0.0,7.0,81,0.00,,---,0.00,VWS V14.01,2013-02-06 22:36:00,
2013-02-06 17:37:00,53.0,47.3,30.17,SSE,165,2.0,7.0,81,0.00,,---,0.00,VWS V14.01,2013-02-06 22:37:00,
2013-02-06 17:38:00,53.1,47.4,30.17,South,179,2.0,7.0,81,0.00,,---,0.00,VWS V14.01,2013-02-06 22:38:00,
2013-02-06 17:39:00,53.2,47.5,30.17,SW,215,4.0,7.0,81,0.00,,---,0.00,VWS V14.01,2013-02-06 22:39:00,
2013-02-06 17:40:00,53.2,47.2,30.16,South,180,3.0,7.0,80,0.00,,---,0.00,VWS V14.01,2013-02-06 22:40:00,
2013-02-06 17:41:00,53.3,47.3,30.16,SSW,212,3.0,7.0,80,0.00,,---,0.00,VWS V14.01,2013-02-06 22:41:00,
2013-02-06 17:42:00,53.4,47.4,30.17,South,178,0.0,7.0,80,0.00,,---,0.00,VWS V14.01,2013-02-06 22:42:00,
2013-02-06 17:43:00,53.5,47.5,30.17,South,186,0.0,7.0,80,0.00,,---,0.00,VWS V14.01,2013-02-06 22:43:00,
2013-02-06 17:44:00,53.6,47.6,30.16,SSW,192,8.0,8.0,80,0.00,,---,0.00,VWS V14.01,2013-02-06 22:44:00,
2013-02-06 17:45:00,53.7,47.7,30.16,SE,146,4.0,10.0,80,0.00,,---,0.00,VWS V14.01,2013-02-06 22:45:00,
2013-02-06 17:46:00,53.7,47.7,30.16,SSE,150,0.0,10.0,80,0.00,,---,0.00,VWS V14.01,2013-02-06 22:46:00,
2013-02-06 17:47:00,53.8,47.8,30.16,South,183,0.0,10.0,80,0.00,,---,0.00,VWS V14.01,2013-02-06 22:47:00,
2013-02-06 17:48:00,53.9,47.9,30.16,South,172,3.0,10.0,80,0.00,,---,0.00,VWS V14.01,2013-02-06 22:48:00,
2013-02-06 17:49:00,54.0,48.0,30.16,SSW,192,5.0,10.0,80,0.00,,---,0.00,VWS V14.01,2013-02-06 22:49:00,
2013-02-06 17:50:00,54.1,47.7,30.16,South,191,3.0,10.0,79,0.00,,---,0.00,VWS V14.01,2013-02-06 22:50:00,
2013-02-06 17:51:00,54.1,47.7,30.17,SSW,198,7.0,10.0,79,0.00,,---,0.00,VWS V14.01,2013-02-06 22:51:00,
2013-02-06 17:52:00,54.2,47.8,30.17,SSW,206,1.0,10.0,79,0.00,,---,0.00,VWS V14.01,2013-02-06 22:52:00,
2013-02-06 17:53:00,54.2,47.8,30.17,SSE,157,1.0,10.0,79,0.00,,---,0.00,VWS V14.01,2013-02-06 22:53:00,
2013-02-06 17:54:00,54.3,47.9,30.17,SSW,212,3.0,10.0,79,0.00,,---,0.00,VWS V14.01,2013-02-06 22:54:00,
2013-02-06 17:55:00,54.3,47.6,30.17,South,169,1.0,10.0,78,0.00,,---,0.00,VWS V14.01,2013-02-06 22:55:00,
2013-02-06 17:56:00,54.4,47.7,30.17,South,173,3.0,10.0,78,0.00,,---,0.00,VWS V14.01,2013-02-06 22:56:00,
2013-02-06 17:57:00,54.4,47.7,30.17,SSW,197,5.0,10.0,78,0.00,,---,0.00,VWS V14.01,2013-02-06 22:57:00,
2013-02-06 17:58:00,54.4,47.7,30.17,SSE,165,5.0,10.0,78,0.00,,---,0.00,VWS V14.01,2013-02-06 22:58:00,
2013-02-06 17:59:00,54.5,47.8,30.17,SSE,151,1.0,10.0,78,0.00,,---,0.00,VWS V14.01,2013-02-06 22:59:00,
2013-02-06 18:00:00,54.4,47.7,30.17,South,182,2.0,10.0,78,0.00,,---,0.00,VWS V14.01,2013-02-06 23:00:00,
2013-02-06 18:01:00,54.5,47.8,30.17,South,184,1.0,4.0,78,0.00,,---,0.00,VWS V14.01,2013-02-06 23:01:00,
2013-02-06 18:02:00,54.5,47.8,30.17,South,182,4.0,4.0,78,0.00,,---,0.00,VWS V14.01,2013-02-06 23:02:00,
2013-02-06 18:03:00,54.6,48.2,30.16,East,89,0.0,4.0,79,0.00,,---,0.00,VWS V14.01,2013-02-06 23:03:00,
2013-02-06 18:04:00,54.6,47.9,30.16,South,190,4.0,6.0,78,0.00,,---,0.00,VWS V14.01,2013-02-06 23:04:00,
2013-02-06 18:05:00,54.7,48.0,30.16,SSW,200,5.0,6.0,78,0.00,,---,0.00,VWS V14.01,2013-02-06 23:05:00,
2013-02-06 18:06:00,54.7,48.0,30.16,South,185,4.0,6.0,78,0.00,,---,0.00,VWS V14.01,2013-02-06 23:06:00,
2013-02-06 18:07:00,54.7,48.0,30.16,South,173,0.0,6.0,78,0.00,,---,0.00,VWS V14.01,2013-02-06 23:07:00,
2013-02-06 18:08:00,54.8,48.1,30.16,SSE,148,0.0,6.0,78,0.00,,---,0.00,VWS V14.01,2013-02-06 23:08:00,
2013-02-06 18:09:00,54.8,48.1,30.16,SW,216,1.0,6.0,78,0.00,,---,0.00,VWS V14.01,2013-02-06 23:09:00,
2013-02-06 18:10:00,54.9,48.2,30.16,SSW,213,5.0,7.0,78,0.00,,---,0.00,VWS V14.01,2013-02-06 23:10:00,
2013-02-06 18:11:00,54.9,48.2,30.16,SSW,201,3.0,7.0,78,0.00,,---,0.00,VWS V14.01,2013-02-06 23:11:00,
2013-02-06 18:12:00,55.0,48.3,30.16,South,174,0.0,7.0,78,0.00,,---,0.00,VWS V14.01,2013-02-06 23:12:00,
2013-02-06 18:13:00,55.0,48.3,30.16,South,183,1.0,7.0,78,0.00,,---,0.00,VWS V14.01,2013-02-06 23:13:00,
2013-02-06 18:14:00,55.0,48.3,30.16,South,173,0.0,7.0,78,0.00,,---,0.00,VWS V14.01,2013-02-06 23:14:00,
2013-02-06 18:15:00,55.0,48.3,30.16,SSW,202,6.0,7.0,78,0.00,,---,0.00,VWS V14.01,2013-02-06 23:15:00,
2013-02-06 18:16:00,55.1,48.0,30.16,South,178,0.0,8.0,77,0.00,,---,0.00,VWS V14.01,2013-02-06 23:16:00,
2013-02-06 18:17:00,55.1,48.0,30.16,South,178,5.0,8.0,77,0.00,,---,0.00,VWS V14.01,2013-02-06 23:17:00,
2013-02-06 18:18:00,55.1,48.0,30.16,South,191,2.0,8.0,77,0.00,,---,0.00,VWS V14.01,2013-02-06 23:18:00,
2013-02-06 18:19:00,55.2,48.1,30.16,South,191,0.0,8.0,77,0.00,,---,0.00,VWS V14.01,2013-02-06 23:19:00,
2013-02-06 18:20:00,55.2,48.1,30.16,South,184,1.0,8.0,77,0.00,,---,0.00,VWS V14.01,2013-02-06 23:20:00,
2013-02-06 18:21:00,55.2,48.1,30.16,South,173,0.0,8.0,77,0.00,,---,0.00,VWS V14.01,2013-02-06 23:21:00,
2013-02-06 18:22:00,55.3,48.2,30.16,South,184,1.0,8.0,77,0.00,,---,0.00,VWS V14.01,2013-02-06 23:22:00,
2013-02-06 18:23:00,55.3,48.2,30.16,SSW,192,3.0,8.0,77,0.00,,---,0.00,VWS V14.01,2013-02-06 23:23:00,
2013-02-06 18:24:00,55.3,48.2,30.16,SSW,198,0.0,8.0,77,0.00,,---,0.00,VWS V14.01,2013-02-06 23:24:00,
2013-02-06 18:25:00,55.4,48.3,30.16,South,181,0.0,8.0,77,0.00,,---,0.00,VWS V14.01,2013-02-06 23:25:00,
2013-02-06 18:26:00,55.4,48.3,30.16,South,181,0.0,8.0,77,0.00,,---,0.00,VWS V14.01,2013-02-06 23:26:00,
2013-02-06 18:27:00,55.5,48.4,30.16,SSW,192,0.0,8.0,77,0.00,,---,0.00,VWS V14.01,2013-02-06 23:27:00,
2013-02-06 18:28:00,55.5,48.4,30.16,South,169,0.0,8.0,77,0.00,,---,0.00,VWS V14.01,2013-02-06 23:28:00,
2013-02-06 18:29:00,55.5,48.4,30.16,SSE,150,4.0,8.0,77,0.00,,---,0.00,VWS V14.01,2013-02-06 23:29:00,
2013-02-06 18:30:00,55.6,48.5,30.16,South,176,0.0,8.0,77,0.00,,---,0.00,VWS V14.01,2013-02-06 23:30:00,
2013-02-06 18:31:00,55.6,48.5,30.16,South,176,0.0,0.0,77,0.00,,---,0.00,VWS V14.01,2013-02-06 23:31:00,
2013-02-06 18:32:00,55.7,48.6,30.16,SSW,203,6.0,6.0,77,0.00,,---,0.00,VWS V14.01,2013-02-06 23:32:00,
2013-02-06 18:33:00,55.7,48.6,30.16,South,175,1.0,6.0,77,0.00,,---,0.00,VWS V14.01,2013-02-06 23:33:00,
2013-02-06 18:34:00,55.7,48.6,30.16,SSW,192,3.0,7.0,77,0.00,,---,0.00,VWS V14.01,2013-02-06 23:34:00,
2013-02-06 18:35:00,55.8,48.4,30.16,SSE,168,1.0,7.0,76,0.00,,---,0.00,VWS V14.01,2013-02-06 23:35:00,
2013-02-06 18:36:00,55.8,48.4,30.16,SE,146,0.0,7.0,76,0.00,,---,0.00,VWS V14.01,2013-02-06 23:36:00,
2013-02-06 18:37:00,55.8,48.4,30.16,SSE,167,0.0,7.0,76,0.00,,---,0.00,VWS V14.01,2013-02-06 23:37:00,
2013-02-06 18:38:00,55.9,48.5,30.16,SSE,157,0.0,7.0,76,0.00,,---,0.00,VWS V14.01,2013-02-06 23:38:00,
2013-02-06 18:39:00,55.9,48.5,30.16,SSW,197,6.0,7.0,76,0.00,,---,0.00,VWS V14.01,2013-02-06 23:39:00,
2013-02-06 18:40:00,55.9,48.5,30.16,SSE,164,0.0,7.0,76,0.00,,---,0.00,VWS V14.01,2013-02-06 23:40:00,
2013-02-06 18:41:00,55.9,48.5,30.16,SSE,163,1.0,7.0,76,0.00,,---,0.00,VWS V14.01,2013-02-06 23:41:00,
2013-02-06 18:42:00,55.9,48.5,30.15,SE,142,2.0,7.0,76,0.00,,---,0.00,VWS V14.01,2013-02-06 23:42:00,
2013-02-06 18:43:00,55.9,48.5,30.15,South,175,1.0,7.0,76,0.00,,---,0.00,VWS V14.01,2013-02-06 23:43:00,
2013-02-06 18:44:00,55.9,48.5,30.15,SSW,194,0.0,7.0,76,0.00,,---,0.00,VWS V14.01,2013-02-06 23:44:00,
2013-02-06 18:45:00,56.0,48.5,30.15,SE,136,1.0,7.0,76,0.00,,---,0.00,VWS V14.01,2013-02-06 23:45:00,
2013-02-06 18:46:00,56.0,48.5,30.15,SE,144,3.0,7.0,76,0.00,,---,0.00,VWS V14.01,2013-02-06 23:46:00,
2013-02-06 18:47:00,56.0,48.5,30.15,SSE,159,1.0,7.0,76,0.00,,---,0.00,VWS V14.01,2013-02-06 23:47:00,
2013-02-06 18:48:00,56.0,48.5,30.15,SSE,168,2.0,7.0,76,0.00,,---,0.00,VWS V14.01,2013-02-06 23:48:00,
2013-02-06 18:49:00,56.0,48.5,30.15,SE,127,0.0,7.0,76,0.00,,---,0.00,VWS V14.01,2013-02-06 23:49:00,
2013-02-06 18:50:00,56.0,48.5,30.15,SSW,202,4.0,7.0,76,0.00,,---,0.00,VWS V14.01,2013-02-06 23:50:00,
2013-02-06 18:51:00,56.0,48.5,30.15,SSW,192,4.0,7.0,76,0.00,,---,0.00,VWS V14.01,2013-02-06 23:51:00,
2013-02-06 18:52:00,56.0,48.5,30.15,South,172,4.0,7.0,76,0.00,,---,0.00,VWS V14.01,2013-02-06 23:52:00,
2013-02-06 18:53:00,56.0,48.2,30.15,SE,140,3.0,7.0,75,0.00,,---,0.00,VWS V14.01,2013-02-06 23:53:00,
2013-02-06 18:54:00,55.9,48.5,30.15,South,175,1.0,7.0,76,0.00,,---,0.00,VWS V14.01,2013-02-06 23:54:00,
2013-02-06 18:55:00,55.9,48.5,30.15,SE,142,3.0,7.0,76,0.00,,---,0.00,VWS V14.01,2013-02-06 23:55:00,
2013-02-06 18:56:00,55.9,48.5,30.15,SE,144,3.0,7.0,76,0.00,,---,0.00,VWS V14.01,2013-02-06 23:56:00,
2013-02-06 18:57:00,55.9,48.5,30.15,SE,146,1.0,7.0,76,0.00,,---,0.00,VWS V14.01,2013-02-06 23:57:00,
2013-02-06 18:58:00,55.9,48.5,30.15,SSE,167,3.0,7.0,76,0.00,,---,0.00,VWS V14.01,2013-02-06 23:58:00,
2013-02-06 18:59:00,55.9,48.5,30.15,SSE,163,0.0,7.0,76,0.00,,---,0.00,VWS V14.01,2013-02-06 23:59:00,
2013-02-06 19:00:00,55.8,48.4,30.15,SSE,163,0.0,7.0,76,0.00,,---,0.00,VWS V14.01,2013-02-07 00:00:00,
2013-02-06 19:01:00,55.9,48.5,30.14,SSE,161,0.0,3.0,76,0.00,,---,0.00,VWS V14.01,2013-02-07 00:01:00,
2013-02-06 19:04:00,55.9,48.5,30.14,SSW,201,6.0,8.0,76,0.00,,---,0.00,VWS V14.01,2013-02-07 00:04:00,
2013-02-06 19:05:00,55.9,48.5,30.14,SSE,161,2.0,8.0,76,0.00,,---,0.00,VWS V14.01,2013-02-07 00:05:00,
2013-02-06 19:06:00,55.9,48.5,30.14,SSE,148,1.0,8.0,76,0.00,,---,0.00,VWS V14.01,2013-02-07 00:06:00,
2013-02-06 19:07:00,55.9,48.5,30.14,SSE,155,1.0,8.0,76,0.00,,---,0.00,VWS V14.01,2013-02-07 00:07:00,
2013-02-06 19:08:00,55.9,48.5,30.14,South,188,4.0,8.0,76,0.00,,---,0.00,VWS V14.01,2013-02-07 00:08:00,
2013-02-06 19:09:00,55.8,48.4,30.14,South,182,9.0,9.0,76,0.00,,---,0.00,VWS V14.01,2013-02-07 00:09:00,
2013-02-06 19:10:00,55.8,48.4,30.14,SSW,192,3.0,9.0,76,0.00,,---,0.00,VWS V14.01,2013-02-07 00:10:00,
2013-02-06 19:11:00,55.8,48.4,30.14,SSW,213,3.0,9.0,76,0.00,,---,0.00,VWS V14.01,2013-02-07 00:11:00,
2013-02-06 19:12:00,55.7,48.3,30.14,South,171,3.0,9.0,76,0.00,,---,0.00,VWS V14.01,2013-02-07 00:12:00,
2013-02-06 19:13:00,55.7,48.3,30.14,South,178,5.0,9.0,76,0.00,,---,0.00,VWS V14.01,2013-02-07 00:13:00,
2013-02-06 19:14:00,55.7,48.3,30.14,South,190,6.0,9.0,76,0.00,,---,0.00,VWS V14.01,2013-02-07 00:14:00,
2013-02-06 19:15:00,55.7,48.3,30.14,SSW,197,3.0,9.0,76,0.00,,---,0.00,VWS V14.01,2013-02-07 00:15:00,
2013-02-06 19:16:00,55.7,48.3,30.14,SSE,164,0.0,9.0,76,0.00,,---,0.00,VWS V14.01,2013-02-07 00:16:00,
2013-02-06 19:17:00,55.7,48.3,30.13,SSE,150,7.0,10.0,76,0.00,,---,0.00,VWS V14.01,2013-02-07 00:17:00,
2013-02-06 19:18:00,55.7,48.3,30.14,SSE,153,0.0,10.0,76,0.00,,---,0.00,VWS V14.01,2013-02-07 00:18:00,
2013-02-06 19:19:00,55.7,48.3,30.14,SSE,150,0.0,10.0,76,0.00,,---,0.00,VWS V14.01,2013-02-07 00:19:00,
2013-02-06 19:20:00,55.7,48.3,30.14,South,181,1.0,10.0,76,0.00,,---,0.00,VWS V14.01,2013-02-07 00:20:00,
2013-02-06 19:21:00,55.7,48.3,30.14,ESE,119,0.0,10.0,76,0.00,,---,0.00,VWS V14.01,2013-02-07 00:21:00,
2013-02-06 19:22:00,55.7,48.3,30.14,SSE,167,3.0,10.0,76,0.00,,---,0.00,VWS V14.01,2013-02-07 00:22:00,
2013-02-06 19:23:00,55.7,48.3,30.13,SSW,202,3.0,10.0,76,0.00,,---,0.00,VWS V14.01,2013-02-07 00:23:00,
2013-02-06 19:24:00,55.7,48.3,30.13,South,184,5.0,10.0,76,0.00,,---,0.00,VWS V14.01,2013-02-07 00:24:00,
2013-02-06 19:25:00,55.7,48.3,30.13,South,172,3.0,10.0,76,0.00,,---,0.00,VWS V14.01,2013-02-07 00:25:00,
2013-02-06 19:26:00,55.7,48.3,30.13,South,180,4.0,10.0,76,0.00,,---,0.00,VWS V14.01,2013-02-07 00:26:00,
2013-02-06 19:27:00,55.7,48.3,30.13,SSE,151,3.0,10.0,76,0.00,,---,0.00,VWS V14.01,2013-02-07 00:27:00,
2013-02-06 19:28:00,55.7,48.3,30.13,SSE,153,4.0,10.0,76,0.00,,---,0.00,VWS V14.01,2013-02-07 00:28:00,
2013-02-06 19:29:00,55.7,48.3,30.13,SSW,194,5.0,10.0,76,0.00,,---,0.00,VWS V14.01,2013-02-07 00:29:00,
2013-02-06 19:30:00,55.7,48.3,30.13,South,186,1.0,1.0,76,0.00,,---,0.00,VWS V14.01,2013-02-07 00:30:00,
2013-02-06 19:31:00,55.7,48.3,30.13,SSE,166,1.0,2.0,76,0.00,,---,0.00,VWS V14.01,2013-02-07 00:31:00,
2013-02-06 19:32:00,55.7,48.3,30.13,SSE,166,0.0,2.0,76,0.00,,---,0.00,VWS V14.01,2013-02-07 00:32:00,
2013-02-06 19:33:00,55.7,48.6,30.14,SE,138,4.0,6.0,77,0.00,,---,0.00,VWS V14.01,2013-02-07 00:33:00,
2013-02-06 19:34:00,55.7,48.3,30.14,SSE,153,3.0,6.0,76,0.00,,---,0.00,VWS V14.01,2013-02-07 00:34:00,
2013-02-06 19:35:00,55.7,48.3,30.13,SE,126,0.0,6.0,76,0.00,,---,0.00,VWS V14.01,2013-02-07 00:35:00,
2013-02-06 19:36:00,55.7,48.6,30.13,SSE,165,1.0,6.0,77,0.00,,---,0.00,VWS V14.01,2013-02-07 00:36:00,
2013-02-06 19:37:00,55.7,48.3,30.13,SSE,164,0.0,7.0,76,0.00,,---,0.00,VWS V14.01,2013-02-07 00:37:00,
2013-02-06 19:38:00,55.7,48.3,30.13,SE,139,4.0,7.0,76,0.00,,---,0.00,VWS V14.01,2013-02-07 00:38:00,
2013-02-06 19:39:00,55.6,48.2,30.13,SE,138,0.0,7.0,76,0.00,,---,0.00,VWS V14.01,2013-02-07 00:39:00,
2013-02-06 19:40:00,55.6,48.5,30.13,SE,142,2.0,7.0,77,0.00,,---,0.00,VWS V14.01,2013-02-07 00:40:00,
2013-02-06 19:41:00,55.6,48.5,30.13,SSE,153,0.0,7.0,77,0.00,,---,0.00,VWS V14.01,2013-02-07 00:41:00,
2013-02-06 19:42:00,55.6,48.5,30.13,SSE,153,0.0,7.0,77,0.00,,---,0.00,VWS V14.01,2013-02-07 00:42:00,
2013-02-06 19:43:00,55.6,48.5,30.12,SSE,153,0.0,7.0,77,0.00,,---,0.00,VWS V14.01,2013-02-07 00:43:00,
2013-02-06 19:44:00,55.6,48.9,30.12,SE,136,5.0,7.0,78,0.00,,---,0.00,VWS V14.01,2013-02-07 00:44:00,
2013-02-06 19:45:00,55.5,48.4,30.12,SSW,204,5.0,7.0,77,0.00,,---,0.00,VWS V14.01,2013-02-07 00:45:00,
2013-02-06 19:46:00,55.5,48.4,30.12,SSE,155,2.0,7.0,77,0.00,,---,0.00,VWS V14.01,2013-02-07 00:46:00,
2013-02-06 19:47:00,55.5,48.4,30.12,SSE,157,0.0,7.0,77,0.00,,---,0.00,VWS V14.01,2013-02-07 00:47:00,
2013-02-06 19:48:00,55.5,48.8,30.12,SSE,167,0.0,8.0,78,0.00,,---,0.00,VWS V14.01,2013-02-07 00:48:00,
2013-02-06 19:49:00,55.5,48.8,30.12,SSE,155,3.0,8.0,78,0.00,,---,0.00,VWS V14.01,2013-02-07 00:49:00,
2013-02-06 19:50:00,55.4,48.7,30.12,SSE,150,4.0,8.0,78,0.00,,---,0.00,VWS V14.01,2013-02-07 00:50:00,
2013-02-06 19:51:00,55.4,48.7,30.12,South,188,3.0,8.0,78,0.00,,---,0.00,VWS V14.01,2013-02-07 00:51:00,
2013-02-06 19:52:00,55.3,48.6,30.12,SSE,166,4.0,9.0,78,0.00,,---,0.00,VWS V14.01,2013-02-07 00:52:00,
2013-02-06 19:53:00,55.3,48.2,30.12,SE,146,3.0,10.0,77,0.00,,---,0.00,VWS V14.01,2013-02-07 00:53:00,
2013-02-06 19:54:00,55.2,48.5,30.13,SSW,194,0.0,10.0,78,0.00,,---,0.00,VWS V14.01,2013-02-07 00:54:00,
2013-02-06 19:55:00,55.2,48.5,30.13,SSW,203,0.0,10.0,78,0.00,,---,0.00,VWS V14.01,2013-02-07 00:55:00,
2013-02-06 19:56:00,55.2,48.5,30.13,South,187,3.0,10.0,78,0.00,,---,0.00,VWS V14.01,2013-02-07 00:56:00,
2013-02-06 19:57:00,55.1,48.4,30.13,SSW,196,5.0,10.0,78,0.00,,---,0.00,VWS V14.01,2013-02-07 00:57:00,
2013-02-06 19:58:00,55.1,48.4,30.13,SSE,166,0.0,10.0,78,0.00,,---,0.00,VWS V14.01,2013-02-07 00:58:00,
2013-02-06 19:59:00,55.1,48.4,30.12,SE,128,6.0,10.0,78,0.00,,---,0.00,VWS V14.01,2013-02-07 00:59:00,
2013-02-06 20:00:00,55.1,48.4,30.12,SE,140,5.0,10.0,78,0.00,,---,0.00,VWS V14.01,2013-02-07 01:00:00,
2013-02-06 20:01:00,55.0,48.3,30.12,SE,146,4.0,7.0,78,0.00,,---,0.00,VWS V14.01,2013-02-07 01:01:00,
2013-02-06 20:02:00,55.0,48.6,30.12,SSE,153,1.0,7.0,79,0.00,,---,0.00,VWS V14.01,2013-02-07 01:02:00,
2013-02-06 20:03:00,54.9,48.5,30.12,SSE,149,7.0,8.0,79,0.00,,---,0.00,VWS V14.01,2013-02-07 01:03:00,
2013-02-06 20:04:00,54.9,48.5,30.11,SSE,156,3.0,9.0,79,0.00,,---,0.00,VWS V14.01,2013-02-07 01:04:00,
2013-02-06 20:05:00,54.8,48.8,30.11,SSE,156,2.0,9.0,80,0.00,,---,0.00,VWS V14.01,2013-02-07 01:05:00,
2013-02-06 20:06:00,54.8,48.8,30.11,SE,143,4.0,9.0,80,0.00,,---,0.00,VWS V14.01,2013-02-07 01:06:00,
2013-02-06 20:07:00,54.8,48.8,30.11,South,173,7.0,10.0,80,0.00,,---,0.00,VWS V14.01,2013-02-07 01:07:00,
2013-02-06 20:08:00,54.7,48.7,30.11,SSE,152,5.0,10.0,80,0.00,,---,0.00,VWS V14.01,2013-02-07 01:08:00,
2013-02-06 20:09:00,54.7,48.7,30.11,SSE,157,1.0,10.0,80,0.00,,---,0.00,VWS V14.01,2013-02-07 01:09:00,
2013-02-06 20:10:00,54.7,48.7,30.11,SE,139,0.0,10.0,80,0.00,,---,0.00,VWS V14.01,2013-02-07 01:10:00,
2013-02-06 20:11:00,54.7,48.7,30.11,South,175,1.0,10.0,80,0.00,,---,0.00,VWS V14.01,2013-02-07 01:11:00,
2013-02-06 20:12:00,54.7,48.7,30.11,SE,139,1.0,10.0,80,0.00,,---,0.00,VWS V14.01,2013-02-07 01:12:00,
2013-02-06 20:13:00,54.7,49.0,30.10,SE,140,2.0,10.0,81,0.00,,---,0.00,VWS V14.01,2013-02-07 01:13:00,
2013-02-06 20:14:00,54.7,48.7,30.10,South,178,0.0,10.0,80,0.00,,---,0.00,VWS V14.01,2013-02-07 01:14:00,
2013-02-06 20:15:00,54.7,49.0,30.11,SE,126,4.0,10.0,81,0.00,,---,0.00,VWS V14.01,2013-02-07 01:15:00,
2013-02-06 20:16:00,54.6,48.9,30.10,SE,132,4.0,10.0,81,0.00,,---,0.00,VWS V14.01,2013-02-07 01:16:00,
2013-02-06 20:17:00,54.6,48.9,30.10,SSE,150,0.0,10.0,81,0.00,,---,0.00,VWS V14.01,2013-02-07 01:17:00,
2013-02-06 20:18:00,54.6,48.9,30.10,South,186,2.0,10.0,81,0.00,,---,0.00,VWS V14.01,2013-02-07 01:18:00,
2013-02-06 20:19:00,54.6,49.2,30.10,South,171,2.0,10.0,82,0.00,,---,0.00,VWS V14.01,2013-02-07 01:19:00,
2013-02-06 20:20:00,54.5,48.8,30.10,South,179,1.0,10.0,81,0.00,,---,0.00,VWS V14.01,2013-02-07 01:20:00,
2013-02-06 20:21:00,54.5,48.8,30.10,SSW,194,3.0,10.0,81,0.00,,---,0.00,VWS V14.01,2013-02-07 01:21:00,
2013-02-06 20:22:00,54.4,49.0,30.10,SE,146,0.0,10.0,82,0.00,,---,0.00,VWS V14.01,2013-02-07 01:22:00,
2013-02-06 20:23:00,54.4,49.0,30.10,SSE,148,2.0,10.0,82,0.00,,---,0.00,VWS V14.01,2013-02-07 01:23:00,
2013-02-06 20:24:00,54.3,48.9,30.10,SSE,155,1.0,10.0,82,0.00,,---,0.00,VWS V14.01,2013-02-07 01:24:00,
2013-02-06 20:25:00,54.2,48.8,30.10,South,173,1.0,10.0,82,0.00,,---,0.00,VWS V14.01,2013-02-07 01:25:00,
2013-02-06 20:26:00,54.2,48.8,30.10,SSE,150,3.0,10.0,82,0.00,,---,0.00,VWS V14.01,2013-02-07 01:26:00,
2013-02-06 20:27:00,54.1,48.7,30.10,SSE,151,0.0,10.0,82,0.00,,---,0.00,VWS V14.01,2013-02-07 01:27:00,
2013-02-06 20:28:00,54.1,49.1,30.10,SSE,166,2.0,10.0,83,0.00,,---,0.00,VWS V14.01,2013-02-07 01:28:00,
2013-02-06 20:29:00,54.0,49.0,30.09,South,188,0.0,10.0,83,0.00,,---,0.00,VWS V14.01,2013-02-07 01:29:00,
2013-02-06 20:30:00,54.0,49.0,30.09,South,186,8.0,8.0,83,0.01,,---,0.01,VWS V14.01,2013-02-07 01:30:00,
2013-02-06 20:31:00,53.9,48.9,30.09,South,178,3.0,8.0,83,0.01,,---,0.01,VWS V14.01,2013-02-07 01:31:00,
2013-02-06 20:32:00,53.9,48.9,30.09,SSW,198,3.0,8.0,83,0.01,,---,0.01,VWS V14.01,2013-02-07 01:32:00,
2013-02-06 20:33:00,53.9,49.2,30.09,SSE,149,1.0,8.0,84,0.01,,---,0.01,VWS V14.01,2013-02-07 01:33:00,
2013-02-06 20:34:00,53.8,49.1,30.09,South,178,4.0,8.0,84,0.01,,---,0.01,VWS V14.01,2013-02-07 01:34:00,
2013-02-06 20:35:00,53.7,49.0,30.09,SE,146,0.0,8.0,84,0.01,,---,0.01,VWS V14.01,2013-02-07 01:35:00,
2013-02-06 20:36:00,53.7,49.0,30.09,South,178,1.0,8.0,84,0.01,,---,0.01,VWS V14.01,2013-02-07 01:36:00,
2013-02-06 20:37:00,53.7,49.0,30.09,SE,146,4.0,8.0,84,0.01,,---,0.01,VWS V14.01,2013-02-07 01:37:00,
2013-02-06 20:38:00,53.7,49.3,30.09,SSW,200,0.0,8.0,85,0.01,,---,0.01,VWS V14.01,2013-02-07 01:38:00,
2013-02-06 20:39:00,53.6,49.2,30.09,SSE,159,0.0,8.0,85,0.01,,---,0.01,VWS V14.01,2013-02-07 01:39:00,
2013-02-06 20:40:00,53.6,49.2,30.09,SSE,147,6.0,8.0,85,0.01,,---,0.01,VWS V14.01,2013-02-07 01:40:00,
2013-02-06 20:41:00,53.6,49.2,30.08,SSE,161,0.0,9.0,85,0.01,,---,0.01,VWS V14.01,2013-02-07 01:41:00,
2013-02-06 20:42:00,53.5,49.1,30.08,SSE,167,2.0,9.0,85,0.01,,---,0.01,VWS V14.01,2013-02-07 01:42:00,
2013-02-06 20:43:00,53.5,49.1,30.08,South,181,3.0,9.0,85,0.01,,---,0.01,VWS V14.01,2013-02-07 01:43:00,
2013-02-06 20:44:00,53.5,49.1,30.08,South,170,1.0,9.0,85,0.02,,---,0.02,VWS V14.01,2013-02-07 01:44:00,
2013-02-06 20:45:00,53.5,49.4,30.08,SE,146,1.0,9.0,86,0.02,,---,0.02,VWS V14.01,2013-02-07 01:45:00,
2013-02-06 20:46:00,53.5,49.4,30.08,SSE,156,4.0,9.0,86,0.02,,---,0.02,VWS V14.01,2013-02-07 01:46:00,
2013-02-06 20:47:00,53.5,49.1,30.08,SSE,162,3.0,9.0,85,0.02,,---,0.02,VWS V14.01,2013-02-07 01:47:00,
2013-02-06 20:48:00,53.5,49.1,30.08,South,172,0.0,9.0,85,0.02,,---,0.02,VWS V14.01,2013-02-07 01:48:00,
2013-02-06 20:49:00,53.4,49.0,30.08,SE,136,3.0,9.0,85,0.02,,---,0.02,VWS V14.01,2013-02-07 01:49:00,
2013-02-06 20:50:00,53.4,49.3,30.08,SSE,158,5.0,9.0,86,0.02,,---,0.02,VWS V14.01,2013-02-07 01:50:00,
2013-02-06 20:51:00,53.4,49.0,30.08,SSE,158,2.0,9.0,85,0.02,,---,0.02,VWS V14.01,2013-02-07 01:51:00,
2013-02-06 20:52:00,53.4,49.3,30.08,SSE,165,3.0,9.0,86,0.02,,---,0.02,VWS V14.01,2013-02-07 01:52:00,
2013-02-06 20:53:00,53.3,49.2,30.08,SSE,154,0.0,9.0,86,0.02,,---,0.02,VWS V14.01,2013-02-07 01:53:00,
2013-02-06 20:54:00,53.3,49.2,30.08,South,178,3.0,9.0,86,0.02,,---,0.02,VWS V14.01,2013-02-07 01:54:00,
2013-02-06 20:55:00,53.3,49.2,30.08,South,169,0.0,9.0,86,0.02,,---,0.02,VWS V14.01,2013-02-07 01:55:00,
2013-02-06 20:56:00,53.3,49.2,30.07,SSE,152,1.0,9.0,86,0.02,,---,0.02,VWS V14.01,2013-02-07 01:56:00,
2013-02-06 20:57:00,53.3,49.5,30.08,South,182,0.0,9.0,87,0.02,,---,0.02,VWS V14.01,2013-02-07 01:57:00,
2013-02-06 20:58:00,53.3,49.5,30.08,SSE,165,2.0,9.0,87,0.02,,---,0.02,VWS V14.01,2013-02-07 01:58:00,
2013-02-06 20:59:00,53.3,49.5,30.07,SSE,159,2.0,9.0,87,0.02,,---,0.02,VWS V14.01,2013-02-07 01:59:00,
2013-02-06 21:00:00,53.3,49.5,30.07,SE,144,3.0,9.0,87,0.02,,---,0.02,VWS V14.01,2013-02-07 02:00:00,
2013-02-06 21:01:00,53.3,49.5,30.07,SSE,161,0.0,3.0,87,0.02,,---,0.02,VWS V14.01,2013-02-07 02:01:00,
2013-02-06 21:02:00,53.3,49.5,30.07,SSE,148,1.0,3.0,87,0.02,,---,0.02,VWS V14.01,2013-02-07 02:02:00,
2013-02-06 21:03:00,53.3,49.5,30.07,SSE,163,0.0,4.0,87,0.02,,---,0.02,VWS V14.01,2013-02-07 02:03:00,
2013-02-06 21:04:00,53.3,49.5,30.07,SSE,153,5.0,7.0,87,0.02,,---,0.02,VWS V14.01,2013-02-07 02:04:00,
2013-02-06 21:05:00,53.3,49.5,30.07,ESE,120,2.0,7.0,87,0.02,,---,0.02,VWS V14.01,2013-02-07 02:05:00,
2013-02-06 21:06:00,53.3,49.5,30.07,SSE,162,1.0,7.0,87,0.02,,---,0.02,VWS V14.01,2013-02-07 02:06:00,
2013-02-06 21:07:00,53.2,49.4,30.07,SSE,156,4.0,7.0,87,0.02,,---,0.02,VWS V14.01,2013-02-07 02:07:00,
2013-02-06 21:08:00,53.2,49.4,30.07,SSE,167,1.0,7.0,87,0.02,,---,0.02,VWS V14.01,2013-02-07 02:08:00,
2013-02-06 21:09:00,53.2,49.4,30.07,SE,134,6.0,7.0,87,0.02,,---,0.02,VWS V14.01,2013-02-07 02:09:00,
2013-02-06 21:10:00,53.2,49.4,30.07,South,176,3.0,8.0,87,0.02,,---,0.02,VWS V14.01,2013-02-07 02:10:00,
2013-02-06 21:11:00,53.2,49.4,30.07,SSE,157,4.0,8.0,87,0.02,,---,0.02,VWS V14.01,2013-02-07 02:11:00,
2013-02-06 21:12:00,53.2,49.4,30.07,SSE,147,7.0,10.0,87,0.02,,---,0.02,VWS V14.01,2013-02-07 02:12:00,
2013-02-06 21:13:00,53.1,49.3,30.07,SSE,150,4.0,10.0,87,0.02,,---,0.02,VWS V14.01,2013-02-07 02:13:00,
2013-02-06 21:14:00,53.2,49.4,30.07,SSE,151,0.0,10.0,87,0.02,,---,0.02,VWS V14.01,2013-02-07 02:14:00,
2013-02-06 21:15:00,53.1,49.3,30.07,SSE,166,3.0,10.0,87,0.02,,---,0.02,VWS V14.01,2013-02-07 02:15:00,
2013-02-06 21:16:00,53.1,49.3,30.07,SSE,157,0.0,10.0,87,0.02,,---,0.02,VWS V14.01,2013-02-07 02:16:00,
2013-02-06 21:17:00,53.1,49.3,30.07,South,181,4.0,10.0,87,0.02,,---,0.02,VWS V14.01,2013-02-07 02:17:00,
2013-02-06 21:18:00,53.1,49.3,30.07,South,169,4.0,10.0,87,0.02,,---,0.02,VWS V14.01,2013-02-07 02:18:00,
2013-02-06 21:19:00,53.1,49.3,30.07,SSE,152,0.0,10.0,87,0.02,,---,0.02,VWS V14.01,2013-02-07 02:19:00,
2013-02-06 21:20:00,53.1,49.3,30.07,SSE,153,0.0,10.0,87,0.02,,---,0.02,VWS V14.01,2013-02-07 02:20:00,
2013-02-06 21:21:00,53.1,49.7,30.07,SSE,155,0.0,10.0,88,0.02,,---,0.02,VWS V14.01,2013-02-07 02:21:00,
2013-02-06 21:22:00,53.1,49.7,30.06,SW,215,7.0,10.0,88,0.02,,---,0.02,VWS V14.01,2013-02-07 02:22:00,
2013-02-06 21:23:00,53.1,49.7,30.07,SE,144,3.0,10.0,88,0.02,,---,0.02,VWS V14.01,2013-02-07 02:23:00,
2013-02-06 21:24:00,53.1,49.7,30.07,South,178,4.0,10.0,88,0.02,,---,0.02,VWS V14.01,2013-02-07 02:24:00,
2013-02-06 21:25:00,53.1,49.7,30.07,South,184,0.0,10.0,88,0.02,,---,0.02,VWS V14.01,2013-02-07 02:25:00,
2013-02-06 21:26:00,53.1,49.7,30.06,SE,132,6.0,10.0,88,0.02,,---,0.02,VWS V14.01,2013-02-07 02:26:00,
2013-02-06 21:27:00,53.1,49.7,30.07,SSE,163,2.0,10.0,88,0.02,,---,0.02,VWS V14.01,2013-02-07 02:27:00,
2013-02-06 21:28:00,53.1,49.7,30.07,SSE,154,0.0,10.0,88,0.02,,---,0.02,VWS V14.01,2013-02-07 02:28:00,
2013-02-06 21:29:00,53.1,49.7,30.07,SSE,159,0.0,10.0,88,0.02,,---,0.02,VWS V14.01,2013-02-07 02:29:00,
2013-02-06 21:30:00,53.1,49.7,30.07,SSE,154,2.0,10.0,88,0.02,,---,0.02,VWS V14.01,2013-02-07 02:30:00,
2013-02-06 21:31:00,53.1,49.7,30.06,South,186,2.0,3.0,88,0.01,,---,0.02,VWS V14.01,2013-02-07 02:31:00,
2013-02-06 21:32:00,53.1,49.7,30.06,SE,132,0.0,3.0,88,0.01,,---,0.02,VWS V14.01,2013-02-07 02:32:00,
2013-02-06 21:33:00,53.1,49.7,30.06,SSE,157,3.0,4.0,88,0.01,,---,0.02,VWS V14.01,2013-02-07 02:33:00,
2013-02-06 21:34:00,53.1,49.7,30.06,South,186,0.0,5.0,88,0.01,,---,0.02,VWS V14.01,2013-02-07 02:34:00,
2013-02-06 21:35:00,53.1,50.0,30.06,SSE,153,5.0,10.0,89,0.01,,---,0.02,VWS V14.01,2013-02-07 02:35:00,
2013-02-06 21:36:00,53.0,49.5,30.06,South,171,0.0,10.0,88,0.01,,---,0.02,VWS V14.01,2013-02-07 02:36:00,
2013-02-06 21:37:00,53.1,49.7,30.06,SSE,161,0.0,10.0,88,0.01,,---,0.02,VWS V14.01,2013-02-07 02:37:00,
2013-02-06 21:38:00,53.1,49.7,30.06,SSE,163,3.0,10.0,88,0.01,,---,0.02,VWS V14.01,2013-02-07 02:38:00,
2013-02-06 21:39:00,53.1,49.7,30.06,SSE,159,0.0,10.0,88,0.02,,---,0.03,VWS V14.01,2013-02-07 02:39:00,
2013-02-06 21:40:00,53.1,49.7,30.06,SSE,161,0.0,10.0,88,0.02,,---,0.03,VWS V14.01,2013-02-07 02:40:00,
2013-02-06 21:41:00,53.1,50.0,30.06,SSE,151,6.0,10.0,89,0.02,,---,0.03,VWS V14.01,2013-02-07 02:41:00,
2013-02-06 21:42:00,53.1,50.0,30.06,SSE,164,6.0,10.0,89,0.02,,---,0.03,VWS V14.01,2013-02-07 02:42:00,
2013-02-06 21:43:00,53.0,49.8,30.06,South,173,1.0,10.0,89,0.02,,---,0.03,VWS V14.01,2013-02-07 02:43:00,
2013-02-06 21:44:00,53.0,49.8,30.06,SSE,164,1.0,10.0,89,0.02,,---,0.03,VWS V14.01,2013-02-07 02:44:00,
2013-02-06 21:45:00,53.0,49.8,30.06,South,183,4.0,10.0,89,0.02,,---,0.03,VWS V14.01,2013-02-07 02:45:00,
2013-02-06 21:46:00,53.0,49.8,30.06,SSE,148,0.0,10.0,89,0.02,,---,0.03,VWS V14.01,2013-02-07 02:46:00,
2013-02-06 21:47:00,53.0,49.8,30.06,SE,136,2.0,10.0,89,0.02,,---,0.03,VWS V14.01,2013-02-07 02:47:00,
2013-02-06 21:48:00,53.0,49.8,30.06,South,175,3.0,10.0,89,0.02,,---,0.03,VWS V14.01,2013-02-07 02:48:00,
2013-02-06 21:49:00,53.0,49.8,30.06,SE,142,2.0,10.0,89,0.02,,---,0.03,VWS V14.01,2013-02-07 02:49:00,
2013-02-06 21:50:00,53.0,49.8,30.06,SSE,161,4.0,10.0,89,0.02,,---,0.03,VWS V14.01,2013-02-07 02:50:00,
2013-02-06 21:51:00,53.0,49.8,30.06,SSE,151,8.0,10.0,89,0.02,,---,0.03,VWS V14.01,2013-02-07 02:51:00,
2013-02-06 21:52:00,52.9,49.8,30.06,SSE,166,2.0,10.0,89,0.02,,---,0.03,VWS V14.01,2013-02-07 02:52:00,
2013-02-06 21:53:00,52.9,49.8,30.05,South,175,2.0,10.0,89,0.02,,---,0.03,VWS V14.01,2013-02-07 02:53:00,
2013-02-06 21:54:00,52.9,49.8,30.05,SSE,153,3.0,10.0,89,0.02,,---,0.03,VWS V14.01,2013-02-07 02:54:00,
2013-02-06 21:55:00,52.9,49.8,30.05,South,184,2.0,10.0,89,0.02,,---,0.03,VWS V14.01,2013-02-07 02:55:00,
2013-02-06 21:56:00,52.9,50.0,30.05,SSE,165,7.0,10.0,90,0.02,,---,0.03,VWS V14.01,2013-02-07 02:56:00,
2013-02-06 21:57:00,52.8,50.0,30.05,SSE,147,6.0,10.0,90,0.02,,---,0.03,VWS V14.01,2013-02-07 02:57:00,
2013-02-06 21:58:00,52.8,50.0,30.05,SSE,154,3.0,10.0,90,0.02,,---,0.03,VWS V14.01,2013-02-07 02:58:00,
2013-02-06 21:59:00,52.8,50.0,30.05,South,169,5.0,10.0,90,0.02,,---,0.03,VWS V14.01,2013-02-07 02:59:00,
2013-02-06 22:00:00,52.8,50.0,30.05,SE,143,5.0,10.0,90,0.02,,---,0.03,VWS V14.01,2013-02-07 03:00:00,
2013-02-06 22:01:00,52.7,49.8,30.05,SSE,149,5.0,9.0,90,0.01,,---,0.03,VWS V14.01,2013-02-07 03:01:00,
2013-02-06 22:02:00,52.7,49.8,30.05,SSE,150,0.0,9.0,90,0.01,,---,0.03,VWS V14.01,2013-02-07 03:02:00,
2013-02-06 22:03:00,52.7,49.8,30.05,SSE,161,3.0,9.0,90,0.01,,---,0.03,VWS V14.01,2013-02-07 03:03:00,
2013-02-06 22:04:00,52.7,49.8,30.05,SSE,150,0.0,11.0,90,0.01,,---,0.03,VWS V14.01,2013-02-07 03:04:00,
2013-02-06 22:05:00,52.7,49.8,30.05,SSE,155,5.0,11.0,90,0.01,,---,0.03,VWS V14.01,2013-02-07 03:05:00,
2013-02-06 22:06:00,52.7,49.8,30.05,South,180,4.0,11.0,90,0.01,,---,0.03,VWS V14.01,2013-02-07 03:06:00,
2013-02-06 22:07:00,52.7,49.8,30.05,South,170,6.0,11.0,90,0.01,,---,0.03,VWS V14.01,2013-02-07 03:07:00,
2013-02-06 22:08:00,52.7,49.8,30.05,South,174,3.0,11.0,90,0.01,,---,0.03,VWS V14.01,2013-02-07 03:08:00,
2013-02-06 22:09:00,52.7,49.8,30.05,SSE,165,2.0,11.0,90,0.01,,---,0.03,VWS V14.01,2013-02-07 03:09:00,
2013-02-06 22:10:00,52.7,49.8,30.05,South,190,4.0,11.0,90,0.01,,---,0.03,VWS V14.01,2013-02-07 03:10:00,
2013-02-06 22:11:00,52.7,49.8,30.05,SSE,152,1.0,11.0,90,0.01,,---,0.03,VWS V14.01,2013-02-07 03:11:00,
2013-02-06 22:12:00,52.6,49.8,30.05,South,175,2.0,11.0,90,0.01,,---,0.03,VWS V14.01,2013-02-07 03:12:00,
2013-02-06 22:13:00,52.7,49.8,30.05,South,169,0.0,11.0,90,0.02,,---,0.04,VWS V14.01,2013-02-07 03:13:00,
2013-02-06 22:14:00,52.6,49.8,30.05,South,169,0.0,11.0,90,0.02,,---,0.04,VWS V14.01,2013-02-07 03:14:00,
2013-02-06 22:15:00,52.7,49.8,30.05,South,178,0.0,11.0,90,0.02,,---,0.04,VWS V14.01,2013-02-07 03:15:00,
2013-02-06 22:16:00,52.7,49.8,30.05,SSE,148,3.0,11.0,90,0.02,,---,0.04,VWS V14.01,2013-02-07 03:16:00,
2013-02-06 22:17:00,52.7,49.8,30.05,SE,138,4.0,11.0,90,0.02,,---,0.04,VWS V14.01,2013-02-07 03:17:00,
2013-02-06 22:18:00,52.6,49.8,30.05,South,173,3.0,11.0,90,0.02,,---,0.04,VWS V14.01,2013-02-07 03:18:00,
2013-02-06 22:19:00,52.6,49.8,30.05,SSE,164,0.0,11.0,90,0.02,,---,0.04,VWS V14.01,2013-02-07 03:19:00,
2013-02-06 22:20:00,52.6,49.8,30.05,SSE,157,3.0,11.0,90,0.02,,---,0.04,VWS V14.01,2013-02-07 03:20:00,
2013-02-06 22:21:00,52.6,49.8,30.05,SE,143,4.0,11.0,90,0.02,,---,0.04,VWS V14.01,2013-02-07 03:21:00,
2013-02-06 22:22:00,52.6,50.0,30.05,SSE,158,3.0,11.0,91,0.02,,---,0.04,VWS V14.01,2013-02-07 03:22:00,
2013-02-06 22:23:00,52.6,50.0,30.05,SSW,196,3.0,11.0,91,0.02,,---,0.04,VWS V14.01,2013-02-07 03:23:00,
2013-02-06 22:24:00,52.6,50.0,30.04,SSE,150,3.0,11.0,91,0.02,,---,0.04,VWS V14.01,2013-02-07 03:24:00,
2013-02-06 22:25:00,52.6,50.0,30.04,SE,124,2.0,11.0,91,0.02,,---,0.04,VWS V14.01,2013-02-07 03:25:00,
2013-02-06 22:26:00,52.6,50.0,30.04,SSE,154,7.0,11.0,91,0.02,,---,0.04,VWS V14.01,2013-02-07 03:26:00,
2013-02-06 22:27:00,52.6,50.0,30.04,SSE,167,1.0,11.0,91,0.02,,---,0.04,VWS V14.01,2013-02-07 03:27:00,
2013-02-06 22:28:00,52.6,50.0,30.04,SSE,160,3.0,11.0,91,0.02,,---,0.04,VWS V14.01,2013-02-07 03:28:00,
2013-02-06 22:29:00,52.6,50.0,30.04,SE,132,3.0,11.0,91,0.02,,---,0.04,VWS V14.01,2013-02-07 03:29:00,
2013-02-06 22:30:00,52.6,50.0,30.04,SE,145,3.0,3.0,91,0.02,,---,0.04,VWS V14.01,2013-02-07 03:30:00,
2013-02-06 22:31:00,52.5,50.0,30.04,SSE,155,1.0,6.0,91,0.02,,---,0.04,VWS V14.01,2013-02-07 03:31:00,
2013-02-06 22:32:00,52.5,50.0,30.05,SSE,151,2.0,6.0,91,0.02,,---,0.04,VWS V14.01,2013-02-07 03:32:00,
2013-02-06 22:33:00,52.5,50.0,30.05,South,180,5.0,8.0,91,0.02,,---,0.04,VWS V14.01,2013-02-07 03:33:00,
2013-02-06 22:34:00,52.5,50.0,30.05,SSW,207,1.0,8.0,91,0.02,,---,0.04,VWS V14.01,2013-02-07 03:34:00,
2013-02-06 22:35:00,52.4,49.8,30.05,SSW,199,0.0,8.0,91,0.02,,---,0.04,VWS V14.01,2013-02-07 03:35:00,
2013-02-06 22:36:00,52.5,50.0,30.05,SSW,199,0.0,8.0,91,0.02,,---,0.04,VWS V14.01,2013-02-07 03:36:00,
2013-02-06 22:37:00,52.5,50.0,30.04,SSE,153,3.0,8.0,91,0.02,,---,0.04,VWS V14.01,2013-02-07 03:37:00,
2013-02-06 22:38:00,52.4,49.8,30.05,SSE,159,2.0,8.0,91,0.03,,---,0.05,VWS V14.01,2013-02-07 03:38:00,
2013-02-06 22:39:00,52.4,49.8,30.05,SSW,194,6.0,8.0,91,0.03,,---,0.05,VWS V14.01,2013-02-07 03:39:00,
2013-02-06 22:40:00,52.4,49.8,30.05,SSW,198,4.0,8.0,91,0.03,,---,0.05,VWS V14.01,2013-02-07 03:40:00,
2013-02-06 22:41:00,52.4,49.8,30.05,South,178,3.0,8.0,91,0.03,,---,0.05,VWS V14.01,2013-02-07 03:41:00,
2013-02-06 22:42:00,52.4,49.8,30.04,SSE,156,3.0,8.0,91,0.03,,---,0.05,VWS V14.01,2013-02-07 03:42:00,
2013-02-06 22:43:00,52.3,49.8,30.04,SE,142,7.0,8.0,91,0.03,,---,0.05,VWS V14.01,2013-02-07 03:43:00,
2013-02-06 22:44:00,52.3,49.8,30.04,South,171,1.0,8.0,91,0.03,,---,0.05,VWS V14.01,2013-02-07 03:44:00,
2013-02-06 22:45:00,52.3,49.8,30.04,SE,141,1.0,8.0,91,0.03,,---,0.05,VWS V14.01,2013-02-07 03:45:00,
2013-02-06 22:46:00,52.3,49.8,30.04,SSE,157,1.0,8.0,91,0.03,,---,0.05,VWS V14.01,2013-02-07 03:46:00,
2013-02-06 22:47:00,52.3,49.8,30.04,SSW,193,0.0,8.0,91,0.03,,---,0.05,VWS V14.01,2013-02-07 03:47:00,
2013-02-06 22:48:00,52.3,49.8,30.04,SE,140,6.0,9.0,91,0.03,,---,0.05,VWS V14.01,2013-02-07 03:48:00,
2013-02-06 22:49:00,52.3,49.8,30.04,SE,138,1.0,9.0,91,0.03,,---,0.05,VWS V14.01,2013-02-07 03:49:00,
2013-02-06 22:50:00,52.3,49.8,30.04,SE,142,0.0,9.0,91,0.03,,---,0.05,VWS V14.01,2013-02-07 03:50:00,
2013-02-06 22:51:00,52.3,49.8,30.04,SSW,196,2.0,9.0,91,0.04,,---,0.06,VWS V14.01,2013-02-07 03:51:00,
2013-02-06 22:52:00,52.3,49.8,30.04,South,190,1.0,9.0,91,0.04,,---,0.06,VWS V14.01,2013-02-07 03:52:00,
2013-02-06 22:53:00,52.3,49.8,30.04,SSE,151,5.0,9.0,91,0.04,,---,0.06,VWS V14.01,2013-02-07 03:53:00,
2013-02-06 22:54:00,52.3,49.8,30.04,SSW,202,2.0,9.0,91,0.04,,---,0.06,VWS V14.01,2013-02-07 03:54:00,
2013-02-06 22:55:00,52.2,49.7,30.03,SSW,192,7.0,9.0,91,0.04,,---,0.06,VWS V14.01,2013-02-07 03:55:00,
2013-02-06 22:56:00,52.3,49.8,30.03,SSE,157,7.0,10.0,91,0.04,,---,0.06,VWS V14.01,2013-02-07 03:56:00,
2013-02-06 22:57:00,52.2,49.7,30.03,SE,136,5.0,10.0,91,0.04,,---,0.06,VWS V14.01,2013-02-07 03:57:00,
2013-02-06 22:58:00,52.2,49.7,30.03,SSE,158,0.0,10.0,91,0.05,,---,0.07,VWS V14.01,2013-02-07 03:58:00,
2013-02-06 22:59:00,52.2,49.7,30.03,South,173,0.0,10.0,91,0.05,,---,0.07,VWS V14.01,2013-02-07 03:59:00,
2013-02-06 23:00:00,52.2,49.7,30.03,SE,137,0.0,10.0,91,0.05,,---,0.07,VWS V14.01,2013-02-07 04:00:00,
2013-02-06 23:01:00,52.2,50.0,30.03,SSE,158,1.0,8.0,92,0.04,,---,0.07,VWS V14.01,2013-02-07 04:01:00,
2013-02-06 23:02:00,52.2,50.0,30.03,SSE,154,2.0,8.0,92,0.04,,---,0.07,VWS V14.01,2013-02-07 04:02:00,
2013-02-06 23:03:00,52.2,50.0,30.03,SSW,212,7.0,12.0,92,0.04,,---,0.07,VWS V14.01,2013-02-07 04:03:00,
2013-02-06 23:04:00,52.2,50.0,30.03,SE,142,1.0,12.0,92,0.04,,---,0.07,VWS V14.01,2013-02-07 04:04:00,
2013-02-06 23:05:00,52.2,50.0,30.03,South,173,5.0,12.0,92,0.05,,---,0.08,VWS V14.01,2013-02-07 04:05:00,
2013-02-06 23:06:00,52.2,50.0,30.03,SE,139,6.0,12.0,92,0.05,,---,0.08,VWS V14.01,2013-02-07 04:06:00,
2013-02-06 23:07:00,52.2,50.0,30.03,SSE,161,4.0,12.0,92,0.05,,---,0.08,VWS V14.01,2013-02-07 04:07:00,
2013-02-06 23:08:00,52.2,50.0,30.03,SSE,152,0.0,12.0,92,0.05,,---,0.08,VWS V14.01,2013-02-07 04:08:00,
2013-02-06 23:09:00,52.2,50.0,30.03,SE,130,0.0,12.0,92,0.05,,---,0.08,VWS V14.01,2013-02-07 04:09:00,
2013-02-06 23:10:00,52.2,50.0,30.03,SSE,148,5.0,12.0,92,0.05,,---,0.08,VWS V14.01,2013-02-07 04:10:00,
2013-02-06 23:11:00,52.2,50.0,30.03,South,182,4.0,12.0,92,0.05,,---,0.08,VWS V14.01,2013-02-07 04:11:00,
2013-02-06 23:12:00,52.2,50.0,30.03,South,177,3.0,12.0,92,0.05,,---,0.08,VWS V14.01,2013-02-07 04:12:00,
2013-02-06 23:13:00,52.2,50.0,30.03,SSE,157,0.0,12.0,92,0.05,,---,0.08,VWS V14.01,2013-02-07 04:13:00,
2013-02-06 23:14:00,52.2,50.0,30.03,South,181,1.0,12.0,92,0.06,,---,0.09,VWS V14.01,2013-02-07 04:14:00,
2013-02-06 23:15:00,52.2,50.0,30.03,South,171,5.0,13.0,92,0.06,,---,0.09,VWS V14.01,2013-02-07 04:15:00,
2013-02-06 23:16:00,52.2,50.0,30.03,SSE,167,2.0,13.0,92,0.06,,---,0.09,VWS V14.01,2013-02-07 04:16:00,
2013-02-06 23:17:00,52.2,50.0,30.03,South,174,5.0,13.0,92,0.06,,---,0.09,VWS V14.01,2013-02-07 04:17:00,
2013-02-06 23:18:00,52.2,50.0,30.03,SSE,155,1.0,13.0,92,0.06,,---,0.09,VWS V14.01,2013-02-07 04:18:00,
2013-02-06 23:19:00,52.1,49.8,30.03,South,170,3.0,13.0,92,0.06,,---,0.09,VWS V14.01,2013-02-07 04:19:00,
2013-02-06 23:20:00,52.2,50.0,30.03,SE,142,7.0,13.0,92,0.06,,---,0.09,VWS V14.01,2013-02-07 04:20:00,
2013-02-06 23:21:00,52.1,49.8,30.03,SSE,159,4.0,13.0,92,0.06,,---,0.09,VWS V14.01,2013-02-07 04:21:00,
2013-02-06 23:22:00,52.1,49.8,30.02,SSE,167,3.0,13.0,92,0.06,,---,0.09,VWS V14.01,2013-02-07 04:22:00,
2013-02-06 23:23:00,52.1,49.8,30.02,SSW,198,5.0,13.0,92,0.06,,---,0.09,VWS V14.01,2013-02-07 04:23:00,
2013-02-06 23:24:00,52.1,49.8,30.02,South,186,4.0,13.0,92,0.06,,---,0.09,VWS V14.01,2013-02-07 04:24:00,
2013-02-06 23:25:00,52.1,49.8,30.02,South,190,7.0,13.0,92,0.07,,---,0.10,VWS V14.01,2013-02-07 04:25:00,
2013-02-06 23:26:00,52.1,49.8,30.02,SSW,195,7.0,13.0,92,0.07,,---,0.10,VWS V14.01,2013-02-07 04:26:00,
2013-02-06 23:27:00,52.1,49.8,30.02,SSE,165,0.0,13.0,92,0.07,,---,0.10,VWS V14.01,2013-02-07 04:27:00,
2013-02-06 23:28:00,52.1,49.8,30.02,SSE,165,4.0,13.0,92,0.07,,---,0.10,VWS V14.01,2013-02-07 04:28:00,
2013-02-06 23:29:00,52.1,49.8,30.02,SSE,161,2.0,13.0,92,0.08,,---,0.11,VWS V14.01,2013-02-07 04:29:00,
2013-02-06 23:30:00,52.1,49.8,30.02,SSE,161,0.0,13.0,92,0.09,,---,0.12,VWS V14.01,2013-02-07 04:30:00,
2013-02-06 23:31:00,52.1,49.8,30.02,South,190,3.0,9.0,92,0.08,,---,0.12,VWS V14.01,2013-02-07 04:31:00,
2013-02-06 23:32:00,52.1,49.8,30.02,South,187,7.0,9.0,92,0.08,,---,0.12,VWS V14.01,2013-02-07 04:32:00,
2013-02-06 23:33:00,52.1,49.8,30.02,South,170,3.0,9.0,92,0.09,,---,0.13,VWS V14.01,2013-02-07 04:33:00,
2013-02-06 23:34:00,52.1,49.8,30.02,South,174,0.0,9.0,92,0.09,,---,0.13,VWS V14.01,2013-02-07 04:34:00,
2013-02-06 23:35:00,52.1,49.8,30.02,SSW,205,8.0,9.0,92,0.09,,---,0.13,VWS V14.01,2013-02-07 04:35:00,
2013-02-06 23:36:00,52.1,49.8,30.02,South,182,6.0,10.0,92,0.10,,---,0.14,VWS V14.01,2013-02-07 04:36:00,
2013-02-06 23:37:00,52.0,49.8,30.02,SSW,192,0.0,10.0,92,0.10,,---,0.14,VWS V14.01,2013-02-07 04:37:00,
2013-02-06 23:38:00,52.0,49.8,30.02,South,183,0.0,10.0,92,0.10,,---,0.14,VWS V14.01,2013-02-07 04:38:00,
2013-02-06 23:39:00,52.0,49.8,30.02,SSE,167,3.0,10.0,92,0.10,,---,0.14,VWS V14.01,2013-02-07 04:39:00,
2013-02-06 23:40:00,52.1,49.8,30.02,South,181,2.0,10.0,92,0.11,,---,0.15,VWS V14.01,2013-02-07 04:40:00,
2013-02-06 23:41:00,52.1,49.8,30.02,South,170,0.0,10.0,92,0.11,,---,0.15,VWS V14.01,2013-02-07 04:41:00,
2013-02-06 23:42:00,52.1,49.8,30.02,South,178,0.0,10.0,92,0.12,,---,0.16,VWS V14.01,2013-02-07 04:42:00,
2013-02-06 23:43:00,52.1,49.8,30.02,South,178,1.0,10.0,92,0.12,,---,0.16,VWS V14.01,2013-02-07 04:43:00,
2013-02-06 23:44:00,52.1,49.8,30.02,SSW,196,6.0,10.0,92,0.13,,---,0.17,VWS V14.01,2013-02-07 04:44:00,
2013-02-06 23:45:00,52.1,49.8,30.02,South,184,6.0,11.0,92,0.13,,---,0.17,VWS V14.01,2013-02-07 04:45:00,
2013-02-06 23:46:00,52.1,49.8,30.02,SSE,168,1.0,11.0,92,0.13,,---,0.17,VWS V14.01,2013-02-07 04:46:00,
2013-02-06 23:47:00,52.1,49.8,30.02,SSE,168,0.0,11.0,92,0.14,,---,0.18,VWS V14.01,2013-02-07 04:47:00,
2013-02-06 23:48:00,52.1,50.1,30.02,SSE,149,2.0,11.0,93,0.14,,---,0.18,VWS V14.01,2013-02-07 04:48:00,
2013-02-06 23:49:00,52.1,50.1,30.02,SSE,149,1.0,11.0,93,0.14,,---,0.18,VWS V14.01,2013-02-07 04:49:00,
2013-02-06 23:50:00,52.1,50.1,30.02,SSW,196,0.0,11.0,93,0.15,,---,0.19,VWS V14.01,2013-02-07 04:50:00,
2013-02-06 23:51:00,52.1,50.1,30.02,ESE,123,0.0,11.0,93,0.16,,---,0.20,VWS V14.01,2013-02-07 04:51:00,
2013-02-06 23:52:00,52.1,50.1,30.02,South,180,0.0,11.0,93,0.16,,---,0.20,VWS V14.01,2013-02-07 04:52:00,
2013-02-06 23:53:00,52.1,50.1,30.02,SSE,159,1.0,11.0,93,0.16,,---,0.20,VWS V14.01,2013-02-07 04:53:00,
2013-02-06 23:54:00,52.1,50.1,30.02,South,182,0.0,11.0,93,0.17,,---,0.21,VWS V14.01,2013-02-07 04:54:00,
2013-02-06 23:55:00,52.1,50.1,30.02,South,169,2.0,11.0,93,0.18,,---,0.22,VWS V14.01,2013-02-07 04:55:00,
2013-02-06 23:56:00,52.1,50.1,30.01,South,179,5.0,11.0,93,0.18,,---,0.22,VWS V14.01,2013-02-07 04:56:00,
2013-02-06 23:57:00,52.1,50.1,30.01,South,178,5.0,11.0,93,0.19,,---,0.23,VWS V14.01,2013-02-07 04:57:00,
2013-02-06 23:58:00,52.1,50.1,30.01,SSW,212,7.0,11.0,93,0.19,,---,0.23,VWS V14.01,2013-02-07 04:58:00,
2013-02-06 23:59:00,52.2,50.2,30.01,South,186,2.0,11.0,93,0.20,,---,0.24,VWS V14.01,2013-02-07 04:59:00,